[[{"header":{"parameterUnit":"m.s-1","parameterCategory":1,"la1":30.6,"la2":29.2853,"lo1":-89.7004,"lo2":-87.6739,"dy":0.0162,"dx":0.0183,"nx":112,"ny":82,"refTime":"2025-05-20T18:00:00:Z","depth":0,"parameterNumber":2,"parameterNumberName":"U-component_of_WINDS"},"data":[0.0,0.0,0.0,0.0,0.0,0.0,0.0,0.0,0.0,0.0,0.0,0.0,0.0,0.0,0.0,0.0,0.0,0.0,0.0,0.0,0.0,0.0,0.0,0.0,0.0,0.0,0.0,0.0,0.0,0.0,0.0,0.0,0.0,0.0,0.0,0.0,0.0,0.0,0.0,0.0,0.0,0.0,0.0,0.0,0.0,0.0,0.0,0.0,0.0,0.0,0.0,0.0,0.0,0.0,0.0,0.0,0.0,0.0,0.0,0.0,0.0,0.0,0.0,0.0,0.0,0.0,0.0,0.0,0.0,0.0,0.0,0.0,0.0,0.0,0.0,0.0,0.0,0.0,0.0,0.0,0.0,0.0,0.0,0.0,0.0,0.0,0.0,0.0,0.0,0.0,0.0,-4.2857,-4.6666,-4.9531,-5.0619,-4.8793,-4.5723,-4.1391,0.0,0.0,0.0,0.0,0.0,0.0,0.0,0.0,0.0,0.0,0.0,0.0,0.0,0.0,0.0,0.0,0.0,0.0,0.0,0.0,0.0,0.0,0.0,0.0,0.0,0.0,0.0,0.0,0.0,0.0,0.0,0.0,0.0,0.0,0.0,0.0,0.0,0.0,0.0,0.0,0.0,0.0,0.0,0.0,0.0,0.0,0.0,0.0,0.0,0.0,0.0,0.0,0.0,0.0,0.0,0.0,0.0,0.0,0.0,0.0,0.0,0.0,0.0,0.0,0.0,0.0,0.0,0.0,0.0,0.0,0.0,0.0,0.0,0.0,0.0,0.0,0.0,0.0,0.0,0.0,0.0,0.0,0.0,0.0,0.0,0.0,0.0,0.0,0.0,0.0,0.0,0.0,0.0,0.0,0.0,0.0,0.0,0.0,0.0,0.0,0.0,0.0,0.0,0.0,-3.9752,-4.7971,-4.9483,-5.0282,-5.1191,-4.8653,-4.5599,-4.2208,0.0,0.0,0.0,0.0,0.0,0.0,0.0,0.0,0.0,0.0,0.0,0.0,0.0,0.0,0.0,0.0,0.0,0.0,0.0,0.0,0.0,0.0,0.0,0.0,0.0,0.0,0.0,0.0,0.0,0.0,0.0,0.0,0.0,0.0,0.0,0.0,0.0,0.0,0.0,0.0,0.0,0.0,0.0,0.0,0.0,0.0,0.0,0.0,0.0,0.0,0.0,0.0,0.0,0.0,0.0,0.0,0.0,0.0,0.0,0.0,0.0,0.0,0.0,0.0,0.0,0.0,0.0,0.0,0.0,0.0,0.0,0.0,0.0,0.0,0.0,0.0,0.0,0.0,0.0,0.0,0.0,0.0,0.0,0.0,0.0,0.0,0.0,0.0,0.0,0.0,0.0,0.0,0.0,0.0,0.0,0.0,0.0,0.0,0.0,0.0,0.0,0.0,0.0,-3.9014,-4.2509,-5.0004,-5.0395,-5.045,-5.1323,-4.8487,-4.5394,-4.2378,-3.8622,0.0,0.0,0.0,0.0,0.0,0.0,0.0,0.0,0.0,0.0,0.0,0.0,0.0,0.0,0.0,0.0,0.0,0.0,0.0,0.0,0.0,0.0,0.0,0.0,0.0,0.0,0.0,0.0,0.0,0.0,0.0,0.0,0.0,0.0,0.0,0.0,0.0,0.0,0.0,0.0,0.0,0.0,0.0,0.0,0.0,0.0,0.0,0.0,0.0,0.0,0.0,0.0,0.0,0.0,0.0,0.0,0.0,0.0,0.0,0.0,0.0,0.0,0.0,0.0,0.0,0.0,0.0,0.0,0.0,0.0,0.0,0.0,0.0,0.0,0.0,0.0,0.0,0.0,0.0,0.0,0.0,0.0,0.0,0.0,0.0,0.0,0.0,0.0,0.0,0.0,0.0,0.0,0.0,0.0,0.0,0.0,0.0,0.0,0.0,0.0,0.0,0.0,-4.2723,-4.5807,-5.0599,-5.0506,-5.0376,-5.1063,-4.7804,-4.4628,-4.2064,-3.7459,0.0,0.0,0.0,0.0,0.0,0.0,0.0,0.0,0.0,0.0,0.0,0.0,0.0,0.0,0.0,0.0,0.0,0.0,0.0,0.0,0.0,0.0,0.0,0.0,0.0,0.0,0.0,0.0,0.0,0.0,0.0,0.0,0.0,0.0,0.0,0.0,0.0,0.0,0.0,0.0,0.0,0.0,0.0,0.0,0.0,0.0,0.0,0.0,0.0,0.0,0.0,0.0,0.0,0.0,0.0,0.0,0.0,0.0,0.0,0.0,0.0,0.0,0.0,0.0,0.0,0.0,0.0,0.0,0.0,0.0,0.0,0.0,0.0,0.0,0.0,0.0,0.0,0.0,0.0,0.0,0.0,0.0,0.0,0.0,0.0,0.0,0.0,0.0,0.0,0.0,0.0,0.0,0.0,0.0,0.0,0.0,0.0,0.0,0.0,0.0,0.0,0.0,-4.3743,-4.811,-5.006,-5.0172,-5.0153,-5.0265,-4.6071,-4.2728,-4.1101,-3.5162,0.0,0.0,0.0,0.0,0.0,0.0,0.0,0.0,0.0,0.0,0.0,0.0,0.0,0.0,0.0,0.0,0.0,0.0,0.0,0.0,0.0,0.0,0.0,0.0,0.0,0.0,0.0,0.0,0.0,0.0,0.0,0.0,0.0,0.0,0.0,0.0,0.0,0.0,0.0,0.0,0.0,0.0,0.0,0.0,0.0,0.0,0.0,0.0,0.0,0.0,0.0,0.0,0.0,0.0,0.0,0.0,0.0,0.0,0.0,0.0,0.0,0.0,0.0,0.0,0.0,0.0,0.0,0.0,0.0,0.0,0.0,0.0,0.0,0.0,0.0,0.0,0.0,0.0,0.0,0.0,0.0,0.0,0.0,0.0,0.0,0.0,0.0,0.0,0.0,0.0,0.0,0.0,0.0,0.0,0.0,0.0,0.0,0.0,0.0,0.0,0.0,0.0,-4.2487,-4.6605,0.0,-5.0153,-4.9949,-4.9429,-4.652,-4.3391,-4.0328,0.0,0.0,0.0,0.0,0.0,0.0,0.0,0.0,0.0,0.0,0.0,0.0,0.0,0.0,0.0,0.0,0.0,0.0,0.0,0.0,0.0,0.0,0.0,0.0,0.0,0.0,0.0,0.0,0.0,0.0,0.0,0.0,0.0,0.0,0.0,0.0,0.0,0.0,0.0,0.0,0.0,0.0,0.0,0.0,0.0,0.0,0.0,0.0,0.0,0.0,0.0,0.0,0.0,0.0,0.0,0.0,0.0,0.0,0.0,0.0,0.0,0.0,0.0,0.0,0.0,0.0,0.0,0.0,0.0,0.0,0.0,0.0,0.0,0.0,0.0,0.0,0.0,0.0,0.0,0.0,0.0,0.0,0.0,0.0,0.0,0.0,0.0,0.0,0.0,0.0,0.0,0.0,0.0,0.0,0.0,0.0,0.0,0.0,0.0,0.0,0.0,0.0,-3.8248,-4.2301,-4.6067,0.0,-4.9763,-4.9447,-4.8593,-4.5942,-4.2776,-3.9127,0.0,0.0,0.0,0.0,0.0,0.0,0.0,0.0,0.0,0.0,0.0,0.0,0.0,0.0,0.0,0.0,0.0,0.0,0.0,0.0,0.0,0.0,0.0,0.0,0.0,0.0,0.0,0.0,0.0,0.0,0.0,0.0,0.0,0.0,0.0,0.0,0.0,0.0,0.0,0.0,0.0,0.0,0.0,0.0,0.0,0.0,0.0,0.0,0.0,0.0,0.0,0.0,0.0,0.0,0.0,0.0,0.0,0.0,0.0,0.0,0.0,0.0,0.0,0.0,0.0,0.0,0.0,0.0,0.0,0.0,0.0,0.0,0.0,0.0,0.0,0.0,0.0,0.0,0.0,0.0,0.0,0.0,0.0,0.0,0.0,0.0,0.0,0.0,0.0,0.0,0.0,0.0,0.0,0.0,0.0,0.0,0.0,0.0,0.0,0.0,0.0,0.0,-3.9271,-4.366,-4.7107,-4.8723,-4.889,-4.8556,-4.7757,-4.3965,-4.0359,0.0,0.0,0.0,0.0,0.0,0.0,0.0,0.0,0.0,0.0,0.0,0.0,0.0,0.0,0.0,0.0,0.0,0.0,0.0,0.0,0.0,0.0,0.0,0.0,0.0,0.0,0.0,0.0,0.0,0.0,0.0,0.0,0.0,0.0,0.0,0.0,0.0,0.0,0.0,0.0,0.0,0.0,0.0,0.0,0.0,0.0,0.0,0.0,0.0,0.0,0.0,0.0,0.0,0.0,0.0,0.0,0.0,0.0,0.0,0.0,0.0,0.0,0.0,0.0,0.0,0.0,0.0,0.0,0.0,0.0,0.0,0.0,0.0,0.0,0.0,0.0,0.0,0.0,0.0,0.0,0.0,0.0,0.0,0.0,0.0,0.0,0.0,0.0,0.0,0.0,0.0,0.0,0.0,0.0,0.0,0.0,0.0,0.0,0.0,0.0,0.0,0.0,0.0,0.0,-4.3287,-4.6903,-4.7943,-4.8234,-4.793,-4.6938,-4.4449,-4.1298,-3.7432,0.0,0.0,0.0,0.0,0.0,0.0,0.0,0.0,0.0,0.0,0.0,0.0,0.0,0.0,0.0,0.0,0.0,0.0,0.0,0.0,0.0,0.0,0.0,0.0,0.0,0.0,0.0,0.0,0.0,0.0,0.0,0.0,0.0,0.0,0.0,0.0,0.0,0.0,0.0,0.0,0.0,0.0,0.0,0.0,0.0,0.0,0.0,0.0,0.0,0.0,0.0,0.0,0.0,0.0,0.0,0.0,0.0,0.0,0.0,0.0,0.0,0.0,0.0,0.0,0.0,0.0,0.0,0.0,0.0,0.0,0.0,0.0,0.0,0.0,0.0,0.0,0.0,0.0,0.0,0.0,0.0,0.0,0.0,0.0,0.0,0.0,0.0,0.0,0.0,0.0,0.0,0.0,0.0,0.0,0.0,0.0,0.0,0.0,0.0,0.0,0.0,0.0,-3.8093,-4.2871,-4.6327,-4.7144,-4.7362,-4.7102,-4.6218,-4.465,-4.1851,-3.7513,0.0,0.0,0.0,0.0,0.0,0.0,0.0,0.0,0.0,0.0,0.0,0.0,0.0,0.0,0.0,0.0,0.0,0.0,0.0,0.0,0.0,0.0,0.0,0.0,0.0,0.0,0.0,0.0,0.0,0.0,0.0,0.0,0.0,0.0,0.0,0.0,0.0,0.0,0.0,0.0,0.0,0.0,0.0,0.0,0.0,0.0,0.0,0.0,0.0,0.0,0.0,0.0,0.0,0.0,0.0,0.0,0.0,0.0,0.0,0.0,0.0,0.0,0.0,0.0,0.0,0.0,0.0,0.0,0.0,0.0,0.0,0.0,0.0,0.0,0.0,0.0,0.0,0.0,0.0,0.0,0.0,0.0,0.0,0.0,0.0,0.0,0.0,0.0,0.0,0.0,0.0,0.0,0.0,0.0,0.0,0.0,0.0,0.0,0.0,0.0,0.0,0.0,-3.798,-4.2385,-4.5565,-4.6308,-4.6415,-4.619,-4.5625,-4.4588,-4.2123,-3.7799,0.0,0.0,0.0,0.0,0.0,0.0,0.0,0.0,0.0,0.0,0.0,0.0,0.0,0.0,0.0,0.0,0.0,0.0,0.0,0.0,0.0,0.0,0.0,0.0,0.0,0.0,0.0,0.0,0.0,0.0,0.0,0.0,0.0,0.0,0.0,0.0,0.0,0.0,0.0,0.0,0.0,0.0,0.0,0.0,0.0,0.0,0.0,0.0,0.0,0.0,0.0,0.0,0.0,0.0,0.0,0.0,0.0,0.0,0.0,0.0,-4.1796,0.0,0.0,0.0,0.0,0.0,0.0,0.0,0.0,0.0,0.0,0.0,0.0,0.0,0.0,0.0,0.0,0.0,0.0,0.0,0.0,0.0,0.0,0.0,0.0,0.0,0.0,0.0,0.0,0.0,0.0,0.0,0.0,0.0,0.0,0.0,0.0,0.0,0.0,0.0,0.0,0.0,-3.7217,-4.2048,-4.5361,-4.5528,-4.5708,-4.5672,-4.5395,-4.4336,-4.2403,-3.9388,0.0,0.0,0.0,0.0,0.0,0.0,0.0,0.0,0.0,0.0,0.0,0.0,0.0,0.0,0.0,0.0,0.0,0.0,0.0,0.0,0.0,0.0,0.0,0.0,0.0,0.0,0.0,0.0,0.0,0.0,0.0,0.0,0.0,0.0,0.0,0.0,0.0,0.0,0.0,0.0,0.0,0.0,0.0,0.0,0.0,0.0,0.0,0.0,0.0,0.0,0.0,0.0,0.0,0.0,0.0,0.0,0.0,0.0,0.0,0.0,0.0,-4.3814,0.0,0.0,0.0,0.0,0.0,0.0,0.0,0.0,0.0,0.0,0.0,0.0,0.0,0.0,0.0,0.0,0.0,0.0,0.0,0.0,0.0,0.0,0.0,0.0,0.0,0.0,0.0,0.0,0.0,0.0,0.0,0.0,0.0,0.0,0.0,0.0,0.0,0.0,0.0,0.0,-3.7567,-4.1824,-4.4674,-4.4674,-4.4773,-4.4886,-4.5054,-4.4406,-4.3182,-4.1303,-3.808,0.0,0.0,0.0,0.0,0.0,0.0,0.0,0.0,0.0,0.0,0.0,0.0,0.0,0.0,0.0,0.0,0.0,0.0,0.0,0.0,0.0,0.0,0.0,0.0,0.0,0.0,0.0,0.0,0.0,0.0,0.0,0.0,0.0,0.0,0.0,0.0,0.0,0.0,0.0,0.0,0.0,0.0,0.0,0.0,0.0,0.0,0.0,0.0,0.0,0.0,0.0,0.0,0.0,0.0,-5.1602,-5.2232,-5.2232,-5.2647,-5.3158,-5.0326,-4.8991,-4.8624,0.0,0.0,0.0,0.0,0.0,0.0,0.0,0.0,0.0,0.0,0.0,0.0,0.0,0.0,0.0,0.0,0.0,0.0,0.0,0.0,0.0,0.0,0.0,0.0,0.0,-4.2244,-4.0823,0.0,0.0,0.0,0.0,0.0,0.0,0.0,0.0,0.0,0.0,0.0,0.0,-3.842,-4.1876,-4.4136,-4.4136,-4.4136,-4.4308,-4.4688,-4.4612,-4.4083,-4.2983,-4.0568,-3.7801,0.0,0.0,0.0,0.0,0.0,0.0,0.0,0.0,0.0,0.0,0.0,0.0,0.0,0.0,0.0,0.0,0.0,0.0,0.0,0.0,0.0,0.0,0.0,0.0,0.0,0.0,0.0,0.0,0.0,0.0,0.0,0.0,-3.8408,-4.0945,0.0,0.0,0.0,0.0,0.0,0.0,0.0,0.0,0.0,0.0,0.0,0.0,0.0,0.0,-5.1533,-5.3942,-5.518,-5.52,-5.6689,-5.7482,-5.7579,-5.7579,-5.7637,-5.7742,-5.7278,0.0,-5.0531,-5.0086,0.0,0.0,0.0,0.0,0.0,0.0,0.0,0.0,0.0,0.0,0.0,0.0,0.0,0.0,0.0,0.0,0.0,0.0,0.0,0.0,0.0,0.0,-4.5945,-4.6172,-4.6663,-4.6759,0.0,-4.0662,-3.6192,-3.5045,0.0,0.0,0.0,0.0,0.0,0.0,0.0,0.0,-3.9424,-4.2595,-4.4688,-4.4688,-4.4688,-4.4624,-4.4465,-4.4849,-4.4611,-4.3471,-4.1447,-3.9776,-3.8608,-3.478,0.0,0.0,0.0,0.0,0.0,0.0,0.0,0.0,0.0,0.0,0.0,0.0,0.0,0.0,0.0,0.0,0.0,0.0,0.0,0.0,0.0,0.0,0.0,0.0,0.0,0.0,0.0,0.0,0.0,-3.8137,-4.1342,-4.1969,-4.2569,-4.2544,0.0,0.0,0.0,0.0,0.0,0.0,0.0,0.0,0.0,-5.1776,-5.3575,-5.4669,-5.5064,-5.7134,-5.8197,-5.8197,-5.8971,-5.9571,-6.0016,-6.0016,-6.0016,-6.0016,-6.0016,-5.8468,-5.5818,-5.3884,-5.1428,-4.874,0.0,0.0,0.0,0.0,0.0,-4.6457,-4.7405,0.0,0.0,0.0,0.0,0.0,0.0,0.0,0.0,0.0,0.0,0.0,0.0,0.0,0.0,-4.8085,-4.8202,-4.8144,-4.8279,-4.5566,-4.2288,0.0,-3.8738,-3.7334,-3.3718,0.0,0.0,0.0,0.0,0.0,-4.122,-4.3411,-4.4788,-4.4788,-4.4788,-4.4812,-4.4849,-4.5063,-4.5039,-4.4697,-4.3394,-4.1995,-4.0596,-3.7943,-3.5011,0.0,0.0,0.0,0.0,0.0,0.0,0.0,0.0,0.0,0.0,0.0,0.0,0.0,0.0,0.0,0.0,0.0,0.0,0.0,0.0,0.0,0.0,0.0,0.0,0.0,0.0,0.0,0.0,-4.1019,-4.3879,-4.366,-4.5162,-4.5522,0.0,0.0,0.0,0.0,0.0,0.0,-5.1177,-5.2078,-5.3343,-5.5084,-5.6979,-5.8053,-5.8266,-5.9551,-6.0209,-6.0209,-6.0209,-6.0518,-6.1099,-6.1099,-6.1099,-6.1099,-6.1099,-6.077,-5.9977,-5.6998,-5.4755,-5.3033,-5.1563,-5.0461,-4.9784,-5.0422,-5.0809,-5.1177,-5.2434,-5.2724,-5.2182,-5.0055,0.0,-4.7328,-4.3331,0.0,0.0,0.0,0.0,-4.4793,-4.7047,0.0,-4.7981,-4.9403,-4.924,-4.8933,-4.9586,-4.9048,-4.7375,0.0,-4.2931,-4.1431,-3.7199,0.0,0.0,0.0,0.0,-4.1399,-4.2841,-4.4198,-4.5007,-4.5007,-4.5007,-4.5063,-4.5191,-4.5253,-4.5352,-4.5495,-4.454,-4.3361,-4.1971,-4.0222,-3.7732,0.0,0.0,0.0,0.0,0.0,0.0,0.0,0.0,0.0,0.0,0.0,0.0,0.0,0.0,0.0,0.0,0.0,0.0,0.0,0.0,0.0,0.0,0.0,0.0,0.0,0.0,0.0,0.0,0.0,0.0,-4.7896,-4.9571,0.0,0.0,0.0,0.0,-5.0453,-5.1389,-5.2995,-5.5548,-5.6506,-5.7791,-5.9513,-5.9706,-6.0132,-6.0905,-6.1002,-6.1041,-6.1041,-6.1041,-6.106,-6.1099,-6.1099,-6.1099,-6.1099,-6.1099,-6.1079,-6.0905,-5.9145,-5.7385,-5.5722,-5.4871,-5.4,-5.3246,-5.3285,-5.3826,-5.4561,-5.4639,-5.4136,-5.3672,-5.5084,-5.3354,-5.0511,-4.9494,-4.7444,0.0,0.0,-4.6883,-4.7294,-4.8957,-4.9376,-4.9581,-5.0423,-5.0596,-5.0577,-5.0635,-4.9952,-4.8798,0.0,-4.597,-4.4825,-4.297,0.0,-4.147,-4.1236,-4.2197,-4.319,-4.3857,-4.4892,-4.5568,-4.5568,-4.5568,-4.5457,-4.5222,-4.5429,-4.5485,-4.5232,-4.3922,-4.3124,-4.3019,-4.0623,-3.8084,-3.5474,-3.3635,0.0,0.0,0.0,0.0,0.0,0.0,0.0,0.0,0.0,0.0,0.0,0.0,0.0,0.0,0.0,0.0,0.0,0.0,0.0,0.0,0.0,0.0,0.0,0.0,0.0,0.0,0.0,0.0,-5.072,-5.2821,0.0,0.0,-5.2182,-5.2975,-5.4089,-5.4987,-5.6379,-5.8391,-5.8797,-5.9493,-6.0634,-6.1215,-6.166,-6.193,-6.2491,-6.2762,-6.2762,-6.2762,-6.2472,-6.195,-6.195,-6.164,-6.1099,-6.1099,-6.1099,-6.106,-6.046,-5.9532,-5.8488,-5.8197,-5.754,-5.6766,-5.6766,-5.6979,-5.725,-5.725,-5.7037,-5.6689,-5.6167,-5.4078,-5.1679,-5.1389,-5.0268,-4.9262,-5.0132,-5.0391,-5.0627,-5.1741,-5.2013,-5.1929,-5.1607,-5.1539,-5.1385,-5.0808,-5.0462,-5.0057,-4.946,-4.8182,-4.649,-4.4259,-4.4547,-4.4502,-4.2789,-4.3782,-4.4799,-4.5005,-4.5358,-4.5594,-4.5594,-4.5594,-4.5568,-4.5476,-4.555,-4.5309,-4.4661,-4.4147,-4.3393,-4.2316,-4.0854,-3.9142,-3.7161,-3.4891,-3.1916,0.0,0.0,0.0,0.0,0.0,0.0,0.0,0.0,0.0,0.0,0.0,0.0,0.0,0.0,0.0,0.0,0.0,0.0,0.0,0.0,0.0,0.0,0.0,0.0,0.0,0.0,-5.1997,-5.2577,-5.5142,-5.6205,-5.4503,-5.5664,-5.6844,-5.7656,-5.8517,-5.9648,-6.1099,-6.1176,-6.1427,-6.195,-6.253,-6.2839,-6.2839,-6.34,-6.37,-6.37,-6.37,-6.34,-6.2839,-6.2839,-6.2356,-6.1543,-6.1543,-6.1369,-6.1099,-6.1099,-6.0789,-6.0306,-6.0306,-5.9957,-5.9435,-5.9435,-5.9435,-5.9397,-5.9126,-5.9029,-5.8797,-5.7346,-5.5548,-5.3865,-5.3575,-5.2898,-5.2279,-5.255,-5.2635,-5.2754,-5.3265,-5.3411,-5.3239,-5.2617,-5.2251,-5.1876,-5.1308,-5.0942,-5.0729,-5.0729,-4.9566,-4.8037,-4.635,-4.6738,-4.674,-4.5073,-4.5526,-4.6028,-4.6028,-4.5787,-4.5594,-4.5594,-4.5594,-4.5594,-4.5594,-4.5325,-4.5037,-4.4759,-4.3932,-4.3085,-4.2277,-4.0854,-3.9438,-3.8027,-3.5494,-3.2936,-3.0377,0.0,0.0,0.0,0.0,0.0,0.0,0.0,0.0,0.0,0.0,0.0,0.0,0.0,0.0,0.0,0.0,0.0,0.0,0.0,0.0,0.0,0.0,0.0,-4.7273,-5.0971,-5.3607,-5.3699,-5.667,-5.8062,-5.636,-5.8526,-6.0344,-6.1118,-6.1969,-6.282,-6.3661,-6.37,-6.37,-6.37,-6.3739,-6.3739,-6.3739,-6.3777,-6.3777,-6.3777,-6.3777,-6.3758,-6.3739,-6.3739,-6.3265,-6.2453,-6.2414,-6.193,-6.1137,-6.1118,-6.1099,-6.1099,-6.1099,-6.1099,-6.1099,-6.1099,-6.1099,-6.0983,-6.0209,-5.9919,-5.9764,-5.8913,-5.8043,-5.7183,-5.6293,-5.5509,-5.4697,-5.3826,-5.3575,-5.3567,-5.3497,-5.3488,-5.3479,-5.3454,-5.2789,-5.2171,-5.2113,-5.1438,-5.0821,-5.0801,-5.0121,-4.9525,-4.9519,-4.8756,-4.8162,-4.8206,-4.7468,0.0,-4.6894,-4.6144,-4.5594,-4.5594,-4.5594,-4.5594,-4.5594,-4.4816,-4.4682,-4.5479,-4.322,-4.222,-4.3028,-4.0662,-3.8931,-3.8065,-3.5545,-3.3814,-3.2987,0.0,0.0,0.0,0.0,0.0,0.0,0.0,0.0,0.0,0.0,0.0,0.0,0.0,0.0,0.0,0.0,0.0,0.0,0.0,0.0,0.0,0.0,-5.1494,-5.1726,-5.3812,-5.602,-5.7907,-6.0035,-6.1176,-6.0692,-6.1853,-6.2752,-6.2975,-6.3207,-6.3449,-6.37,-6.37,-6.37,-6.37,-6.4319,-6.4648,-6.4648,-6.5218,-6.5508,-6.5508,-6.5508,-6.5199,-6.4648,-6.4648,-6.4184,-6.3304,-6.2665,-6.2259,-6.1988,-6.1369,-6.1099,-6.1099,-6.1099,-6.1099,-6.1099,-6.1099,-6.1099,-6.1079,-6.0847,-6.0383,-5.9861,-5.9609,-5.8952,-5.8081,-5.7211,-5.6777,-5.6437,-5.5567,-5.5316,-5.5307,-5.5299,-5.529,-5.5127,-5.4492,-5.4155,-5.3644,-5.2373,-5.1908,-5.1578,-5.0999,-5.0681,-5.0297,-4.9624,-4.929,-4.8915,-4.8373,0.0,0.0,-4.6889,-4.6131,-4.5594,-4.5594,-4.5594,-4.5594,-4.5594,-4.5383,-4.4825,0.0,-4.3124,-4.2566,-4.2181,-4.0873,-3.9785,-3.895,-3.6449,-3.5019,0.0,0.0,0.0,0.0,0.0,0.0,0.0,0.0,0.0,0.0,0.0,0.0,0.0,0.0,0.0,0.0,0.0,0.0,0.0,0.0,0.0,0.0,-5.221,-5.4547,-5.5979,-5.7026,-5.8197,-5.9725,-6.1389,-6.2394,-6.2394,-6.3516,-6.4242,-6.4242,-6.4571,-6.4754,-6.4754,-6.4754,-6.4754,-6.4754,-6.5238,-6.5489,-6.5489,-6.5973,-6.6205,-6.6205,-6.6205,-6.5953,-6.5489,-6.5489,-6.5044,0.0,-6.3323,-6.2743,-6.2336,-6.1466,-6.1099,0.0,0.0,0.0,0.0,0.0,-6.1099,-6.1099,-6.1099,-6.0789,-6.0402,-6.0402,-5.9822,-5.9048,-5.8546,-5.7879,-5.7183,-5.668,-5.6274,-5.6012,-5.6012,-5.6012,-5.5868,-5.5358,-5.4991,-5.4364,-5.2986,-5.2404,-5.189,-5.1059,0.0,0.0,-5.0177,-5.0047,-4.9903,-4.9457,-4.8593,-4.7865,0.0,-4.6677,-4.5997,-4.5633,-4.5594,-4.5594,-4.5594,-4.5267,0.0,0.0,0.0,-4.2547,-4.1316,-4.0766,0.0,0.0,0.0,0.0,0.0,0.0,0.0,0.0,-3.5122,-3.4937,0.0,0.0,0.0,0.0,0.0,0.0,0.0,0.0,0.0,0.0,0.0,0.0,0.0,0.0,0.0,0.0,-5.4675,-5.6476,-5.959,-6.0112,-6.017,-6.017,-6.1582,-6.2588,-6.2685,-6.4174,-6.5141,-6.5141,-6.5799,-6.6205,-6.6205,0.0,0.0,0.0,0.0,-6.6205,-6.6205,-6.6205,-6.6205,-6.6205,-6.6205,-6.6205,-6.6205,-6.6205,-6.5799,-6.5083,-6.4222,-6.3342,-6.2491,-6.1621,-6.1195,-6.1099,-6.1099,-6.1099,-6.1099,-6.1099,-6.1099,0.0,0.0,0.0,0.0,-6.1099,-6.0615,-6.0016,-5.9919,-5.8758,-5.7434,-5.7318,-5.6661,-5.6012,-5.6012,-5.6012,-5.6012,-5.6012,-5.5451,-5.4697,-5.3826,-5.2956,-5.2086,-5.1215,-5.0975,-5.0898,-5.0898,-5.0841,-5.0827,-5.088,-5.0121,0.0,-4.8463,-4.7501,-4.6617,-4.5843,0.0,0.0,-4.5603,-4.4902,-4.472,-4.5421,-4.4066,-4.2547,-4.0997,-4.0939,-4.0939,-4.0939,-4.0843,-4.1554,-4.3104,-4.3104,-4.2758,-4.1981,-3.8135,-3.7387,0.0,0.0,0.0,0.0,0.0,0.0,0.0,0.0,0.0,0.0,0.0,0.0,0.0,0.0,0.0,-5.521,-5.7469,-5.9377,-6.0673,-6.1466,-6.193,-6.193,-6.282,-6.371,-6.4425,-6.5392,-6.5973,-6.5973,-6.6108,-6.6205,-6.6205,-6.6205,0.0,-6.6205,-6.6205,-6.6205,-6.6205,-6.6205,-6.6205,-6.6205,0.0,0.0,-6.6205,-6.6205,-6.6127,-6.5915,-6.5102,-6.4261,-6.3381,-6.2511,-6.1737,-6.1099,-6.1099,-6.1099,-6.1099,-6.1099,-6.1099,-6.1099,-6.1099,-6.1099,-6.1099,-6.1099,-6.0983,-6.075,-6.0093,-5.9165,0.0,-5.7492,-5.6661,-5.6012,-5.6012,-5.6012,-5.6012,-5.6012,-5.5877,-5.5548,-5.4735,-5.3865,-5.2995,-5.2124,-5.1389,-5.0898,-5.0898,-5.089,-5.0901,-5.0909,-5.0143,-4.9512,-4.9357,-4.7954,-4.6926,-4.6744,-4.6095,-4.5684,-4.5684,-4.5477,-4.5133,-4.4586,-4.4239,-4.3912,-4.3585,-4.3566,-4.3566,-4.3566,-4.2931,-4.2758,-4.3104,-4.3104,-4.3355,-4.3778,-4.2316,-4.1492,0.0,0.0,0.0,0.0,0.0,0.0,0.0,0.0,0.0,0.0,0.0,-4.9582,-5.1334,0.0,-5.5457,-5.7643,-5.9406,-6.0789,-6.164,-6.2491,-6.2897,-6.2453,-6.3555,-6.4532,-6.4957,-6.5721,-6.6205,-6.6205,-6.6205,-6.6205,-6.6205,-6.6205,-6.6205,-6.6205,-6.6205,-6.6205,-6.6205,-6.6205,-6.6205,-6.6205,-6.6205,-6.6205,-6.6205,-6.6205,-6.6205,-6.6166,-6.5354,-6.4513,-6.3603,-6.2298,-6.1485,-6.1099,-6.1099,-6.1099,-6.1099,-6.1099,-6.1099,-6.1099,-6.1099,-6.1099,-6.1099,-6.1099,-6.1099,-6.1021,-6.0615,-5.9919,-5.9068,-5.8197,-5.7327,-5.6545,-5.61,-5.6012,-5.6012,-5.6012,-5.6012,-5.578,-5.4967,-5.4116,-5.3246,-5.2364,-5.1505,-5.0898,-5.0898,-5.0898,-5.0898,-5.0898,-5.0534,-5.0093,-4.9671,-4.8836,-4.797,-4.7097,-4.6618,-4.6177,-4.5734,-4.5673,-4.5447,-4.4979,-4.496,-4.4739,-4.4316,-4.4297,-4.4297,-4.4297,-4.3912,-4.3912,-4.4355,-4.4355,-4.4547,-4.494,-4.4528,-4.4124,0.0,0.0,0.0,0.0,0.0,0.0,0.0,0.0,-4.8282,-5.0894,-5.195,-5.3033,-5.5142,-5.6205,-5.7501,-5.9764,-6.0828,-6.166,-6.253,-6.3265,-6.3449,-6.2743,-6.4038,-6.5064,-6.5218,-6.5818,-6.6205,-6.6205,-6.6205,-6.6205,-6.6205,-6.6205,-6.6205,-6.6205,-6.6205,-6.6205,-6.6205,-6.6205,-6.6205,-6.6205,-6.6205,-6.6205,-6.6205,-6.6205,-6.6205,-6.6166,-6.5354,-6.4513,-6.3584,-6.2008,-6.1253,-6.1099,-6.1099,-6.1099,-6.1099,-6.1099,-6.1099,-6.1099,-6.1099,-6.1099,-6.1099,-6.1099,-6.1099,-6.1099,-6.1099,-6.0538,-5.9725,-5.8845,-5.7965,-5.7106,-5.6235,-5.6012,-5.6012,-5.6012,-5.6012,-5.5818,-5.518,-5.4233,-5.3285,-5.2597,-5.1602,-5.0898,-5.0898,-5.0898,-5.0898,-5.0898,-5.0898,-5.0658,-4.993,-4.9718,-4.9084,-4.7661,-4.7364,-4.6885,-4.6,-4.5795,-4.5665,-4.5594,-4.5594,-4.5287,-4.4586,-4.4547,-4.4547,-4.4547,-4.4547,-4.4893,-4.5594,-4.5594,-4.5594,-4.5594,-4.5594,-4.5594,-4.3223,-4.3859,-4.495,-4.6387,-4.6843,-4.8305,0.0,0.0,-5.3615,-5.691,-5.7675,-5.783,-5.812,-5.8874,-5.9783,-6.0809,-6.1698,-6.2569,-6.3429,-6.3642,-6.3661,-6.3565,-6.4416,-6.5276,-6.5992,-6.6147,-6.6205,-6.6205,-6.6205,-6.6205,-6.6205,-6.6205,-6.6205,-6.6205,-6.6205,-6.6205,-6.6205,-6.6205,-6.6205,-6.6205,-6.6205,-6.6205,-6.6205,-6.6205,-6.6205,-6.6166,-6.5354,-6.4513,-6.3623,-6.2646,-6.1795,-6.1099,-6.1099,-6.1099,-6.1099,-6.1099,-6.1099,-6.1099,-6.1099,-6.1099,-6.1099,-6.1099,-6.1099,-6.1099,-6.1099,-6.0538,-5.9725,-5.8845,-5.7965,-5.7106,-5.6235,-5.6012,-5.6012,-5.6012,-5.6012,-5.5993,-5.5896,-5.4619,-5.3459,-5.3362,-5.2028,-5.0898,-5.0898,-5.0898,-5.0898,-5.0898,-5.0898,-5.0859,-5.0774,-5.0124,-4.9622,-4.9421,-4.8655,-4.7777,-4.6835,-4.6106,-4.5665,-4.5594,-4.5594,-4.5556,-4.546,-4.546,-4.546,-4.546,-4.546,-4.5498,-4.5594,-4.5594,-4.5594,-4.5594,-4.5594,-4.5594,-4.7059,-4.7917,-4.8826,0.0,-5.1674,-5.3663,-5.5664,-5.5947,-5.6447,-5.8862,-5.9358,-5.9493,-5.9977,-6.0344,-6.0867,0.0,-6.2588,-6.3458,-6.4338,-6.4454,-6.4454,-6.4454,-6.4338,-6.4571,-6.5412,-6.5489,-6.5702,-6.6166,-6.6205,-6.6205,-6.6205,-6.6205,-6.6205,-6.6205,-6.6205,-6.6205,-6.6205,-6.6205,-6.6205,-6.6205,-6.6205,-6.6205,-6.6205,-6.6205,-6.6205,-6.6166,-6.5354,-6.4513,-6.3642,-6.2762,-6.1892,-6.1099,-6.1099,-6.1099,-6.1099,-6.1099,-6.1099,-6.1099,-6.1099,-6.1099,-6.1099,-6.1099,-6.1099,-6.1099,-6.1099,-6.0867,-6.0422,-5.959,-5.872,-5.7869,-5.697,-5.6371,-5.6012,-5.6012,-5.6012,-5.6012,-5.6012,-5.5084,-5.4116,-5.3594,-5.2492,-5.1505,-5.0995,-5.0898,-5.0898,-5.0898,-5.0898,-5.0898,-5.0898,-5.0608,-5.0221,-4.9745,-4.8899,-4.7998,-4.7094,-4.6676,-4.6219,-4.5695,-4.5631,-4.5594,-4.5594,-4.5594,-4.5594,-4.5594,-4.5594,-4.5594,-4.5594,-4.5594,-4.5594,-4.5594,-4.5594,-4.5594,-4.8976,0.0,0.0,-5.2782,-5.5209,-5.7353,-5.7249,-5.7676,-5.8506,-5.9927,-6.0228,-6.0402,-6.0983,-6.1099,-6.1466,-6.2588,-6.3284,-6.4087,-6.518,-6.4928,-6.4648,-6.4648,-6.3661,-6.3323,-6.4193,-6.4715,-6.5334,-6.6147,-6.6205,-6.6205,-6.6205,-6.6205,-6.6205,-6.6205,-6.6205,-6.6205,-6.6205,-6.6205,-6.6205,-6.6205,-6.6205,-6.6205,-6.6205,-6.6205,-6.6205,-6.6166,-6.5586,-6.4706,-6.3661,-6.3013,-6.2104,-6.1099,-6.1099,-6.1099,-6.1099,-6.1099,-6.1099,-6.1099,-6.1099,-6.1099,-6.1099,-6.1099,-6.1099,-6.1099,-6.1099,-6.1099,-6.0925,-6.0132,-5.9261,-5.8391,-5.754,-5.6641,-5.6012,-5.6012,-5.6012,-5.6012,-5.6012,-5.5374,-5.46,-5.3981,-5.2956,-5.1989,-5.137,-5.1053,-5.0898,-5.0898,-5.0898,-5.0898,-5.0898,-5.0898,-5.0685,-5.0094,-4.9262,-4.8485,-4.782,-4.7518,-4.7072,-4.6397,-4.6112,-4.5951,-4.5951,-4.5729,-4.5594,-4.5594,-4.5594,-4.5594,-4.5594,-4.5594,-4.5729,-4.5951,-4.5951,-4.6067,0.0,0.0,-5.2835,-5.4427,-5.6079,-5.7733,-5.9406,-5.9812,-6.0063,-6.0886,-6.106,-6.1079,-6.1099,-6.1099,-6.166,-6.3391,-6.3681,-6.428,-6.5934,-6.4754,-6.3739,-6.3739,-6.222,-6.1524,0.0,-6.4,-6.5334,-6.6147,-6.6205,-6.6205,-6.6205,-6.6205,-6.6205,-6.6205,-6.6205,-6.6205,-6.6205,-6.6205,-6.6205,-6.6205,-6.6205,-6.6205,-6.6205,-6.6205,-6.6205,-6.6205,-6.6166,-6.5218,-6.37,-6.3681,-6.2646,-6.1099,-6.1099,-6.1099,-6.1099,-6.1099,-6.1099,-6.1099,-6.1099,-6.1099,-6.1099,-6.1099,-6.1099,-6.1099,-6.1099,-6.1099,-6.0925,-6.0132,-5.9261,-5.8391,-5.754,-5.6641,-5.6012,-5.6012,-5.6012,-5.6012,-5.6012,-5.5374,-5.4793,-5.4774,-5.3362,-5.219,-5.2171,-5.1467,-5.0898,-5.0898,-5.0898,-5.0898,-5.0898,-5.0898,-5.0898,-5.0859,-5.0152,-4.9598,-4.944,-4.8718,-4.8193,-4.8038,-4.7298,-4.6846,-4.6846,-4.6047,-4.5594,-4.5594,-4.5594,-4.5594,-4.5594,-4.5594,-4.6028,-4.6846,-4.6846,-4.7278,-5.1082,0.0,-5.5404,-5.6963,-5.86,-5.9977,-6.0557,-6.0692,-6.0615,-6.0364,-6.0306,-6.0132,-5.9551,-5.9899,-6.0673,-6.1795,-6.2936,-6.4106,-6.5238,-6.4909,-6.4358,-6.3777,-6.2665,0.0,0.0,0.0,0.0,-6.5296,-6.5392,-6.5895,-6.6998,-6.7056,-6.7056,-6.7056,-6.7056,-6.6785,-6.6205,-6.6205,-6.6205,-6.6205,-6.6205,-6.6205,-6.6205,-6.6205,-6.6205,-6.6205,-6.6205,-6.5238,-6.37,-6.37,-6.2665,-6.1099,-6.1099,-6.1099,-6.1099,-6.1099,-6.1099,-6.1099,-6.1099,-6.1099,-6.1099,-6.1099,-6.1099,-6.1099,-6.1099,-6.1099,-6.1041,-6.077,-6.0093,-5.9261,-5.8391,-5.7521,-5.6719,-5.6147,-5.6012,-5.6012,-5.6012,-5.5799,-5.5451,-5.4909,-5.3865,-5.2879,-5.2306,-5.1486,-5.0898,-5.0898,-5.0898,-5.0898,-5.0898,-5.0898,-5.0898,-5.0898,-5.0662,-5.0232,-4.9628,-4.9279,-4.8822,-4.8209,-4.7874,-4.7702,-4.7702,-4.6894,-4.6471,-4.6471,-4.5893,-4.5874,-4.6471,-4.6471,-4.6894,-4.7702,-4.7702,-4.7836,-5.3455,-5.5433,-5.7131,-5.869,-6.0093,-6.1099,-6.1099,-6.0886,-6.0518,-6.0016,-5.9397,-5.8797,-5.8236,-5.8333,-5.8971,-6.0441,-6.1853,-6.3284,-6.4793,-6.4986,-6.4803,-6.4242,-6.34,0.0,0.0,0.0,0.0,-6.4889,-6.5257,-6.6031,-6.7423,-6.7501,-6.7636,-6.7945,-6.7655,-6.723,-6.6669,-6.6359,-6.6205,-6.6205,-6.6205,-6.6205,-6.6205,-6.6205,-6.6205,-6.6205,-6.6205,-6.5431,-6.4145,-6.3835,-6.2859,-6.1524,-6.1215,-6.1099,-6.1099,-6.1099,-6.1099,-6.1099,-6.1099,-6.1099,-6.1099,-6.1099,-6.1099,-6.1099,-6.1099,-6.1099,-6.1099,-6.1099,-6.0518,-5.9706,-5.8825,-5.7946,-5.7086,-5.6197,-5.6012,-5.6012,-5.6012,-5.6012,-5.5857,-5.5335,-5.4542,-5.3691,-5.2801,-5.1679,-5.0898,-5.0898,-5.0898,-5.0898,-5.0898,-5.0898,-5.0898,-5.0898,-5.0905,-5.0659,-5.0091,-4.9975,-4.969,-4.9133,-4.8759,-4.8567,-4.8567,-4.7778,-4.7336,-4.7336,-4.6778,-4.6778,-4.7336,-4.7336,-4.7759,-4.8567,-4.8567,-4.874,-5.4764,-5.6435,-5.81,-5.9598,-6.0556,-6.1089,-6.1041,-6.0441,-5.9861,-5.9725,-5.8352,-5.7144,0.0,0.0,-5.6766,-5.9281,-6.0538,-6.2046,-6.458,-6.5006,-6.5044,0.0,0.0,0.0,0.0,0.0,0.0,-6.4986,0.0,-6.6592,-6.752,-6.7617,-6.8003,-6.8835,-6.8023,-6.7559,-6.7501,-6.665,-6.6205,-6.6205,-6.6205,-6.6205,-6.6205,-6.6205,-6.6205,-6.6205,-6.6205,-6.574,-6.4928,-6.4068,-6.3187,-6.2317,-6.1447,-6.1099,-6.1099,-6.1099,-6.1099,-6.1099,-6.1099,-6.1099,-6.1099,-6.1099,-6.1099,-6.1099,-6.1099,-6.1099,-6.1099,-6.1099,-6.0557,-5.9764,-5.8894,-5.8023,-5.7144,-5.6274,-5.6031,-5.6012,-5.6012,-5.6012,-5.6012,-5.6012,-5.5354,-5.4503,-5.3594,-5.2066,-5.0956,-5.0917,-5.0898,-5.0898,-5.0898,-5.0898,-5.0898,-5.0898,-5.0905,-5.0863,-5.0801,-5.0729,-5.0702,-5.0693,-4.9913,-4.9471,-4.9471,-4.8625,-4.8163,-4.8163,-4.8125,-4.8125,-4.8163,-4.8163,-4.8606,-4.9471,-4.9471,-4.9913,-5.7363,-5.8789,-5.9829,-6.0721,-6.1089,-6.1077,-6.0361,-6.0054,-5.9339,-5.7404,-5.6167,-5.5045,0.0,0.0,0.0,-5.6786,-5.9861,0.0,-6.3855,-6.5102,0.0,-6.5064,0.0,-6.5064,-6.3816,-6.4831,0.0,0.0,-6.6089,-6.6862,-6.839,-6.9048,-6.9454,-6.9686,-6.8893,-6.8158,-6.752,-6.665,-6.6205,-6.6205,-6.6205,-6.6205,-6.6205,-6.6205,-6.6205,-6.6205,-6.6205,-6.574,-6.4928,-6.4068,-6.3187,-6.2317,-6.1447,-6.1099,-6.1099,-6.1099,-6.1099,-6.1099,-6.1099,-6.1099,-6.1099,-6.1099,-6.1099,-6.1099,-6.1099,-6.1099,-6.1099,-6.1099,-6.0944,-6.0596,-5.9783,-5.8913,-5.8043,-5.7183,-5.6467,-5.6012,-5.6012,-5.6012,-5.6012,-5.6012,-5.5354,-5.431,-5.2782,-5.2163,-5.1641,-5.0995,-5.0898,-5.0898,-5.0898,-5.0898,-5.0898,-5.0898,-5.0905,-5.0863,-5.0801,-5.0729,-5.0702,-5.0693,-5.05,-5.0366,-5.0366,-4.9529,-4.9067,-4.9067,-4.8432,-4.8413,-4.9067,-4.9067,-4.951,-5.0366,-5.0366,-5.05,-5.9095,-6.0217,-6.0957,-6.127,-6.1311,-6.0868,-5.9267,-5.856,-5.7532,-5.4943,-5.3453,0.0,0.0,0.0,0.0,0.0,0.0,0.0,-6.3429,-6.4831,-6.5779,0.0,-6.6495,0.0,-6.5992,-6.6785,-6.7346,0.0,-6.6998,-6.752,-6.9241,-6.9744,-7.017,-7.0556,-6.9763,-6.8738,-6.752,-6.665,-6.6205,-6.6205,-6.6205,-6.6205,-6.6205,-6.6205,-6.6205,-6.6205,0.0,-6.5934,-6.5431,-6.4222,-6.34,-6.2859,-6.1582,-6.1099,-6.1099,-6.1099,-6.1099,-6.1099,-6.1099,-6.1099,-6.1099,-6.1099,-6.1099,-6.1099,-6.1099,-6.1099,-6.1099,-6.1099,-6.1099,-6.0905,-6.0112,-5.9532,-5.8855,-5.7589,-5.6932,-5.6467,-5.6081,-5.6012,-5.6012,-5.6012,-5.5354,-5.4484,-5.3498,-5.3014,-5.2472,-5.1602,-5.1467,-5.1331,-5.0956,-5.0898,-5.0898,-5.0898,-5.0905,-5.0872,-5.0846,-5.0784,-5.073,-5.0702,-5.0702,-5.0693,-5.0693,-5.0231,-4.9971,-4.9971,-4.949,-4.9471,-4.9971,-4.9971,-5.0231,-5.0712,-5.0712,-5.0712,-6.0274,-6.1048,-6.1583,-6.1456,-6.1303,-6.0546,-5.8145,-5.67,-5.5145,-5.2597,0.0,-4.9048,-4.8297,-4.9491,-5.1215,-5.3169,0.0,-5.9793,-6.3216,-6.4454,-6.5624,-6.7307,-6.7597,-6.7965,-6.8738,-6.8912,-6.897,-6.897,-6.8255,-6.8468,-6.9918,-7.0112,-7.0421,-7.0943,-7.0228,-6.9028,-6.7346,-6.6572,-6.6205,-6.6205,-6.6205,-6.6205,-6.6205,-6.6205,-6.6205,-6.6205,0.0,0.0,-6.6069,-6.4396,-6.37,-6.3526,-6.1776,-6.1099,-6.1099,-6.1099,-6.1099,-6.1099,-6.1099,-6.1099,-6.1099,-6.1099,-6.1099,-6.1099,-6.1099,-6.1099,-6.1099,-6.1099,-6.1099,-6.0944,-6.0248,-5.9977,-5.9493,-5.7869,-5.7376,-5.7048,-5.6177,-5.6012,-5.6012,-5.6012,-5.5451,-5.4929,-5.4813,-5.4175,-5.3382,-5.25,-5.2268,-5.1931,-5.1169,-5.0975,-5.0898,-5.0898,-5.0913,-5.0908,-5.0899,-5.0846,-5.0784,-5.0701,-5.0701,-5.0702,-5.0693,-5.0693,-5.0693,-5.0712,-5.0712,-5.0712,-5.0712,-5.0712,-5.0712,-5.0712,-5.0712,-5.0712,-6.123,-6.1561,-6.1656,-6.1583,-6.1016,-5.996,-5.8031,-5.5789,0.0,0.0,0.0,-4.6524,-4.6388,-4.7708,0.0,-5.2995,0.0,0.0,0.0,0.0,-6.5624,0.0,0.0,0.0,0.0,0.0,0.0,0.0,0.0,0.0,-6.9976,-7.0672,-7.0518,-6.928,-6.9087,-6.8177,-6.6437,-6.6282,-6.6205,-6.6205,-6.6205,-6.6205,-6.6205,-6.6205,-6.6205,-6.6205,0.0,0.0,-6.6069,-6.4396,-6.37,-6.3526,-6.1776,-6.1099,-6.1099,-6.1099,-6.1099,-6.1099,-6.1099,-6.1099,-6.1099,-6.1099,-6.1099,-6.1099,-6.1099,-6.1099,-6.1099,-6.1099,-6.1099,-6.1079,-6.0925,-6.0402,-5.9629,-5.8623,-5.783,-5.7048,-5.6177,-5.6012,-5.6012,-5.6012,-5.5896,-5.5586,-5.4909,-5.4677,-5.4271,-5.3401,-5.2655,-5.2152,-5.1989,-5.1351,-5.0898,-5.0898,-5.089,-5.0893,-5.0899,-5.0891,-5.0838,-5.0701,-5.0738,-5.0767,-5.0693,-5.0702,-5.0712,-5.0693,-5.0712,-5.0712,-5.0712,-5.0712,-5.0712,-5.0712,-5.0712,-5.0712,-6.1465,-6.1699,-6.1699,-6.1655,-6.0977,-5.9495,-5.643,0.0,0.0,0.0,0.0,-4.4552,-4.4108,0.0,0.0,0.0,0.0,0.0,0.0,0.0,0.0,0.0,0.0,0.0,0.0,0.0,0.0,0.0,0.0,0.0,-7.0672,-7.0634,-7.0266,-6.9454,-6.8584,-6.7713,-6.6882,-6.6437,-6.6205,-6.6205,-6.6205,-6.6205,-6.6205,-6.6205,-6.6205,-6.6205,0.0,0.0,-6.6069,-6.4396,-6.37,-6.3526,-6.1776,-6.1099,-6.1099,-6.1099,-6.1099,-6.1099,-6.1099,-6.1099,-6.1099,-6.1099,-6.1099,-6.1099,-6.1099,-6.1099,-6.1099,-6.1099,-6.1099,-6.1099,-6.1099,-6.0809,-6.0306,-5.9474,-5.8255,-5.7048,-5.6177,-5.6012,-5.6012,-5.6012,-5.6012,-5.5877,-5.549,-5.5412,-5.5142,-5.4291,-5.3826,-5.3382,-5.2917,-5.2124,-5.1409,-5.0956,-5.0898,-5.089,-5.0893,-5.0893,-5.0861,-5.0821,-5.0838,-5.0812,-5.0692,-5.0711,-5.0702,-5.0693,-5.0712,-5.0712,-5.0712,-5.0712,-5.0712,-5.0712,-5.0712,-5.0712,-6.1465,-6.1699,-6.1699,-6.1699,-6.0873,-5.9047,-5.5156,-5.2473,0.0,0.0,-4.3977,-4.296,-4.2632,0.0,0.0,0.0,0.0,0.0,0.0,0.0,0.0,0.0,0.0,0.0,0.0,0.0,0.0,0.0,0.0,0.0,0.0,-7.0363,-6.9841,-6.9473,-6.8197,-6.7404,-6.723,-6.6533,-6.6205,-6.6205,-6.6205,-6.6205,-6.6205,-6.6205,-6.6205,-6.6205,0.0,0.0,0.0,-6.4319,-6.3584,-6.3265,-6.1718,-6.1099,-6.1099,-6.1099,-6.1099,-6.1099,-6.1099,-6.1099,-6.1099,-6.1099,-6.1099,-6.1099,-6.1099,-6.1099,-6.1099,-6.1099,-6.1099,-6.1099,-6.1099,-6.1099,-6.0847,-5.9861,-5.843,-5.7048,-5.6177,-5.6012,-5.6012,-5.6012,-5.6012,-5.6012,-5.6012,-5.6012,-5.5799,-5.5142,-5.4909,-5.4542,-5.3865,-5.3014,-5.2221,-5.1525,-5.1111,-5.0898,-5.0898,-5.0898,-5.0901,-5.0899,-5.0908,-5.0846,-5.0701,-5.071,-5.0711,-5.0693,-5.0712,-5.0712,-5.0712,-5.0712,-5.0712,-5.0712,-5.0712,-5.0712,-6.1465,-6.1699,-6.1699,-6.1699,-6.0488,-5.8574,-5.5801,0.0,0.0,-4.5566,-4.304,-4.1771,-4.3214,-4.4265,0.0,0.0,0.0,0.0,0.0,0.0,0.0,0.0,0.0,0.0,0.0,0.0,0.0,0.0,0.0,0.0,0.0,-7.0034,-6.9299,-6.7771,-6.7578,-6.7114,-6.6321,-6.6243,-6.6205,-6.6205,-6.6205,-6.6205,-6.6205,-6.6205,-6.6205,-6.6205,0.0,0.0,0.0,-6.4087,-6.3226,-6.2414,-6.1466,-6.1099,-6.1099,-6.1099,-6.1099,-6.1099,-6.1099,-6.1099,-6.1099,-6.1099,-6.1099,-6.1099,-6.1099,-6.1099,-6.1099,-6.1099,-6.1099,-6.1099,-6.1099,-6.1099,-6.0692,-5.9087,-5.7985,-5.7048,-5.6177,-5.6012,-5.6012,-5.6012,-5.6012,-5.6012,-5.6012,-5.6012,-5.5973,-5.5896,-5.5277,-5.4774,-5.4697,-5.3923,-5.3343,-5.3265,-5.1834,-5.0898,-5.0898,-5.0898,-5.0901,-5.0899,-5.0893,-5.0841,-5.0701,-5.0766,-5.0767,-5.0693,-5.0712,-5.0712,-5.0712,-5.0712,-5.0712,-5.0712,-5.0712,-5.0712,-6.041,-6.1308,-6.1699,-6.1699,-6.0058,-5.7734,-5.5117,0.0,-4.7383,-4.4766,-4.2597,-4.1519,-4.2671,-4.3084,-4.4318,0.0,0.0,0.0,0.0,0.0,0.0,0.0,0.0,0.0,0.0,0.0,0.0,0.0,0.0,0.0,0.0,-6.8506,-6.8197,-6.752,-6.6998,-6.6553,-6.6205,-6.6205,-6.6205,-6.6205,-6.6205,-6.6205,-6.6205,-6.6205,-6.6205,-6.6205,0.0,0.0,0.0,-6.4068,-6.3187,-6.2317,-6.1447,-6.1099,-6.1099,-6.1099,-6.1099,-6.1099,-6.1099,-6.1099,-6.1099,-6.1099,-6.1099,-6.1099,-6.1099,-6.1099,-6.1099,-6.1099,-6.1099,-6.1099,-6.1099,-6.1099,-6.0809,-5.9648,-5.872,-5.7849,-5.697,-5.6371,-5.6012,-5.6012,-5.6012,-5.6012,-5.6012,-5.6012,-5.6012,-5.6012,-5.5741,-5.5528,-5.5528,-5.4793,-5.4271,-5.4271,-5.3188,-5.2453,-5.2453,-5.2453,-5.2464,-5.2467,-5.1962,-5.1647,-5.1543,-5.1097,-5.0829,-5.0767,-5.073,-5.0692,-5.0692,-5.0702,-5.0712,-5.0712,-5.0712,-5.0952,-5.9355,-6.0664,-6.1328,-6.1328,-5.959,-5.7148,0.0,0.0,-4.6855,-4.4238,-4.2363,-4.1445,-4.2246,-4.2569,-4.3435,0.0,0.0,0.0,0.0,0.0,0.0,0.0,0.0,0.0,0.0,0.0,0.0,0.0,0.0,0.0,0.0,0.0,-6.7114,-6.7114,-6.6514,-6.6205,-6.6205,-6.6205,-6.6205,-6.6205,-6.6205,-6.6205,-6.6205,-6.6205,-6.6069,0.0,0.0,0.0,0.0,-6.3574,-6.2801,-6.195,-6.135,-6.1099,-6.1099,-6.1099,-6.1099,-6.1099,-6.1099,-6.1099,-6.1099,-6.1099,-6.1099,-6.1099,-6.1099,-6.1099,-6.1099,-6.1099,-6.1099,-6.1099,-6.1099,-6.1099,-6.0905,-6.0093,-5.9435,-5.8681,-5.7531,-5.6815,-5.6313,-5.6051,-5.6012,-5.6012,-5.6012,-5.6012,-5.6012,-5.6012,-5.6012,-5.6012,-5.6012,-5.5509,-5.5142,-5.5142,-5.4619,-5.4039,-5.3536,-5.3498,-5.3498,-5.3498,-5.2917,-5.2553,-5.2483,-5.1691,-5.123,-5.1187,-5.1152,-5.1105,-5.1105,-5.1347,-5.1462,-5.1462,-5.1443,-5.1741,-5.8496,-5.9805,-6.041,-6.041,-5.914,-5.6992,0.0,-5.0058,-4.6855,-4.4238,-4.2363,-4.1445,-4.2246,-4.3057,-4.4169,-4.5902,0.0,0.0,0.0,0.0,0.0,0.0,0.0,0.0,0.0,0.0,0.0,0.0,0.0,0.0,0.0,0.0,-6.6205,-6.6205,-6.6205,-6.6205,-6.6205,-6.6205,-6.6205,-6.6205,-6.6205,-6.6205,-6.6205,-6.6205,0.0,0.0,0.0,0.0,0.0,-6.2433,-6.1911,-6.1118,-6.1099,-6.1099,-6.1099,-6.1099,-6.1099,-6.1099,-6.1099,-6.1099,-6.1099,-6.1099,-6.1099,-6.1099,-6.1099,-6.1099,-6.1099,-6.1099,-6.1099,-6.1099,-6.1099,-6.1099,-6.0905,-6.0093,-5.988,-5.9416,-5.7666,-5.728,-5.7028,-5.6158,-5.6012,-5.6012,-5.6012,-5.6012,-5.6012,-5.6012,-5.6012,-5.6012,-5.6012,-5.5993,-5.5993,-5.5993,-5.5993,-5.5296,-5.3633,-5.3498,-5.3498,-5.3498,-5.3478,-5.3462,-5.3391,-5.2561,-5.2099,-5.2094,-5.2094,-5.2094,-5.2094,-5.2887,-5.3263,-5.3263,-5.3204,-5.3183,-5.4219,-5.5801,-5.6777,-5.6172,-5.4726,-5.3027,-5.1367,-4.8301,-4.543,-4.3984,-4.2363,-4.1445,-4.2246,-4.2167,-4.3099,-4.6537,-4.705,0.0,0.0,0.0,0.0,0.0,0.0,0.0,0.0,0.0,0.0,0.0,0.0,0.0,0.0,0.0,-6.6205,-6.6205,-6.6205,-6.6205,-6.6205,-6.6205,-6.6205,-6.6205,-6.6205,-6.5915,-6.5373,-6.5373,0.0,0.0,0.0,0.0,0.0,-6.2394,-6.1892,-6.1099,-6.1099,-6.1099,-6.1099,-6.1099,-6.1099,-6.1099,-6.1099,-6.1099,-6.1099,-6.1099,-6.1099,-6.1099,-6.1099,-6.1099,-6.1099,-6.1099,-6.1099,-6.1099,-6.1099,-6.1099,-6.1041,-6.0789,-6.0306,-5.959,-5.843,-5.7714,-5.7028,-5.6158,-5.6012,-5.6012,-5.6012,-5.6012,-5.6012,-5.6012,-5.6012,-5.6012,-5.6012,-5.6012,-5.6012,-5.6012,-5.6012,-5.5799,-5.5258,-5.5219,-5.5219,-5.5219,-5.4697,-5.4379,-5.437,-5.352,-5.3067,-5.3058,-5.3005,-5.2988,-5.2988,-5.3252,-5.334,-5.3302,-5.3849,-5.4087,-5.1035,-5.3008,-5.4199,-5.3652,-5.2441,-5.1016,-4.9551,-4.7031,-4.4668,-4.3457,-4.2148,-4.1348,-4.1855,-4.1797,-4.2616,-4.5597,-4.5916,0.0,0.0,0.0,0.0,0.0,0.0,0.0,0.0,0.0,0.0,0.0,0.0,0.0,0.0,0.0,-6.6205,-6.6205,-6.6205,-6.6205,-6.6205,-6.6205,-6.605,-6.574,-6.574,-6.5315,-6.4513,0.0,0.0,0.0,0.0,0.0,0.0,-6.1911,-6.1601,-6.1099,-6.1099,-6.1099,-6.1099,-6.1099,-6.1099,-6.1099,-6.1099,-6.1099,-6.1099,-6.1099,-6.1099,-6.1099,-6.1099,-6.1099,-6.1099,-6.1099,-6.1099,-6.1099,-6.1099,-6.1099,-6.1099,-6.1099,-6.0712,-6.0035,-5.8855,-5.8178,-5.7443,-5.6225,-5.6012,-5.6012,-5.6012,-5.6012,-5.6012,-5.6012,-5.6012,-5.6012,-5.6012,-5.6012,-5.6012,-5.6012,-5.6012,-5.6012,-5.6012,-5.6012,-5.6012,-5.6012,-5.5528,-5.5258,-5.5258,-5.4445,-5.3981,-5.3981,-5.3956,-5.3939,-5.3939,-5.4223,-5.4342,-5.4265,-5.4755,-5.4974,0.0,-5.0879,-5.2148,-5.207,-5.1445,-5.0234,-4.7851,-4.6016,0.0,-4.2734,-4.1758,-4.123,-4.1367,-4.1933,-4.2773,-4.3887,-4.4805,0.0,0.0,0.0,0.0,0.0,0.0,0.0,0.0,0.0,0.0,0.0,0.0,0.0,0.0,0.0,0.0,-6.6127,-6.6108,-6.6108,-6.6108,-6.6108,-6.5702,-6.4919,-6.4919,-6.4454,-6.3623,0.0,0.0,0.0,0.0,0.0,0.0,-6.1099,-6.1099,-6.1099,-6.1099,-6.1099,-6.1099,-6.1099,-6.1099,-6.1099,-6.1099,-6.1099,-6.1099,-6.1099,-6.1099,-6.1099,-6.1099,-6.1099,-6.1099,-6.1099,-6.1099,-6.1099,-6.1099,-6.1099,-6.1099,-6.1099,-6.1099,-6.0654,-5.9029,-5.8651,-5.8101,-5.6418,-5.6051,-5.6012,-5.6012,-5.6012,-5.6012,-5.6012,-5.6012,-5.6012,-5.6012,-5.6012,-5.6012,-5.6012,-5.6012,-5.6012,-5.6012,-5.6012,-5.6012,-5.6012,-5.6012,-5.6012,-5.6012,-5.5277,-5.489,-5.489,-5.489,-5.489,-5.489,-5.5631,-5.5933,-5.5807,-5.5797,-5.5766,-4.3945,0.0,-4.6641,-4.5976,-4.5664,-4.5351,0.0,-4.3789,-4.2891,-4.248,-4.1758,-4.1582,-4.2871,-4.2715,-4.3555,-4.7109,0.0,0.0,0.0,0.0,0.0,0.0,0.0,0.0,0.0,0.0,0.0,0.0,0.0,0.0,0.0,0.0,0.0,-6.5296,-6.5276,-6.5276,-6.5276,-6.5276,-6.4851,-6.401,-6.401,-6.3555,-6.2704,0.0,0.0,0.0,0.0,0.0,-6.1099,-6.1099,-6.1099,-6.1099,-6.1099,-6.1099,-6.1099,-6.1099,-6.1099,-6.1099,-6.1099,-6.1099,-6.1099,-6.1099,-6.1099,-6.1099,-6.1099,-6.1099,-6.1099,-6.1099,-6.1099,-6.1099,-6.1099,-6.1099,-6.1099,-6.1099,-6.1099,-6.0828,-5.9803,-5.9068,-5.8275,-5.7202,-5.6448,-5.6012,-5.6012,-5.6012,-5.6012,-5.6012,-5.6012,-5.6012,-5.6012,-5.6012,-5.6012,-5.6012,-5.6012,-5.6012,-5.6012,-5.6012,-5.6012,-5.6012,-5.6012,-5.6012,-5.6012,-5.5818,-5.5722,-5.5722,-5.5722,-5.5722,-5.5722,-5.5901,-5.5981,-5.5943,-5.5846,-5.5787,-4.1855,-4.3672,-4.5488,-4.5019,-4.4883,-4.4785,-4.4394,-4.3301,-4.2305,-4.1933,0.0,0.0,-4.2871,0.0,0.0,0.0,0.0,0.0,0.0,0.0,0.0,0.0,0.0,0.0,0.0,0.0,0.0,0.0,0.0,0.0,0.0,0.0,0.0,0.0,-6.4416,-6.4396,-6.4396,-6.4396,-6.3961,-6.3091,-6.3091,-6.2646,-6.1795,0.0,0.0,0.0,0.0,0.0,-6.1099,-6.1099,-6.1099,-6.1099,-6.1099,-6.1099,-6.1099,-6.1099,-6.1099,-6.1099,-6.1099,-6.1099,-6.1099,-6.1099,-6.1099,-6.1099,-6.1099,-6.1099,-6.1099,-6.1099,-6.1099,-6.1099,-6.1099,-6.1099,-6.1099,-6.1099,-6.1099,-6.0886,-6.0074,-5.9532,-5.8816,-5.755,-5.6912,-5.6467,-5.607,-5.6012,-5.6012,-5.6012,-5.6012,-5.6012,-5.6012,-5.6012,-5.6012,-5.6012,-5.6012,-5.6012,-5.6012,-5.6012,-5.6012,-5.6012,-5.6012,-5.6012,-5.6012,-5.6012,-5.6012,-5.6012,-5.6012,-5.6012,-5.6012,-5.6005,-5.5998,-5.599,-5.5924,-5.5885,-4.1504,-4.3887,-4.6191,-4.5801,-4.5898,-4.5879,-4.5,0.0,0.0,0.0,0.0,0.0,0.0,-4.3711,0.0,0.0,0.0,0.0,0.0,0.0,0.0,0.0,0.0,0.0,0.0,0.0,0.0,0.0,0.0,0.0,0.0,0.0,0.0,0.0,-6.3591,-6.3474,-6.3358,-6.3458,-6.3052,-6.2201,-6.2201,-6.1814,-6.1099,-6.1099,0.0,0.0,0.0,0.0,-6.1099,-6.1099,-6.1099,-6.1099,-6.1099,-6.1099,-6.1099,-6.1099,-6.1099,-6.1099,-6.1099,-6.1099,-6.1099,-6.1099,-6.1099,-6.1099,-6.1099,-6.1099,-6.1099,-6.1099,-6.1099,-6.1099,-6.1099,-6.1099,-6.1099,-6.1099,-6.1099,-6.0905,-6.0228,-5.9996,-5.9455,-5.7985,-5.7473,-5.7067,-5.6332,-5.6089,-5.6012,-5.6012,-5.6012,-5.6012,-5.6012,-5.6012,-5.6012,-5.6012,-5.6012,-5.6012,-5.6012,-5.6012,-5.6012,-5.6012,-5.6012,-5.6012,-5.6012,-5.6012,-5.6012,-5.6012,-5.6012,-5.6012,-5.6012,-5.6012,-5.6005,-5.6008,-5.5999,-5.5971,-4.293,-4.4785,-4.5762,-4.3555,-4.4101,-4.4961,-4.4101,-4.3691,0.0,0.0,0.0,0.0,0.0,0.0,0.0,0.0,0.0,0.0,0.0,0.0,0.0,0.0,0.0,0.0,0.0,0.0,0.0,0.0,0.0,0.0,0.0,0.0,0.0,0.0,0.0,-6.2505,-6.1751,-6.2322,-6.2162,-6.1311,-6.1311,-6.1234,-6.1099,-6.1099,-6.1099,0.0,0.0,-6.1099,-6.1099,-6.1099,-6.1099,-6.1099,-6.1099,-6.1099,-6.1099,-6.1099,-6.1099,-6.1099,-6.1099,-6.1099,-6.1099,-6.1099,-6.1099,-6.1099,-6.1099,-6.1099,-6.1099,-6.1099,-6.1099,-6.1099,-6.1099,-6.1099,-6.1099,-6.1099,-6.1099,-6.1079,-6.0944,-6.0383,-5.9822,-5.9551,-5.8314,-5.726,-5.7125,-5.6487,-5.6012,-5.6012,-5.6012,-5.6012,-5.6012,-5.6012,-5.6012,-5.6012,-5.6012,-5.6012,-5.6012,-5.6012,-5.6012,-5.6012,-5.6012,-5.6012,-5.6012,-5.6012,-5.6012,-5.6012,-5.6012,-5.6012,-5.6012,-5.6012,-5.6003,-5.5995,-5.5998,-5.599,-4.2148,-4.3594,-4.4726,-4.3984,-4.5469,-4.6875,-4.6016,-4.5449,-4.5098,0.0,0.0,0.0,0.0,0.0,0.0,0.0,0.0,0.0,0.0,0.0,0.0,0.0,0.0,0.0,0.0,0.0,0.0,0.0,0.0,0.0,0.0,0.0,0.0,0.0,0.0,0.0,-6.1504,-6.1748,-6.1666,-6.1258,-6.1258,-6.1258,-6.1258,-6.1258,-6.1258,0.0,0.0,-6.1235,-6.1217,-6.1217,-6.1178,-6.1099,-6.1099,-6.1099,-6.1099,-6.1099,-6.1099,-6.1099,-6.1099,-6.1099,-6.1099,-6.1099,-6.1099,-6.1099,-6.1099,-6.1099,-6.1099,-6.1099,-6.1099,-6.1099,-6.1099,-6.1099,-6.1099,-6.1099,-6.1099,-6.1099,-6.1099,-6.0809,-6.0422,-5.9977,-5.9242,-5.841,-5.7454,-5.697,-5.6545,-5.607,-5.6012,-5.6012,-5.6012,-5.6012,-5.6012,-5.6012,-5.6012,-5.6012,-5.6012,-5.6012,-5.6012,-5.6012,-5.6012,-5.6012,-5.6012,-5.6012,-5.6012,-5.6012,-5.6012,-5.6012,-5.6012,-5.6012,-5.6012,-5.6003,-5.6005,-5.5996,-4.168,-4.2715,-4.3906,-4.4785,-4.6504,-4.8027,-4.8164,-4.7539,-4.7012,0.0,0.0,0.0,0.0,0.0,0.0,0.0,0.0,0.0,0.0,0.0,0.0,0.0,0.0,0.0,0.0,0.0,0.0,0.0,0.0,0.0,0.0,0.0,0.0,0.0,0.0,0.0,-6.1619,-6.152,-6.1456,-6.1393,-6.1393,-6.1393,-6.1393,-6.1393,-6.1393,-6.1393,-6.1393,-6.1367,-6.1318,-6.1318,-6.1269,-6.1173,-6.1173,-6.1173,-6.1173,-6.1173,-6.1173,-6.1173,-6.1173,-6.1173,-6.1173,-6.1173,-6.1173,-6.1173,-6.1173,-6.1173,-6.1164,-6.1161,-6.1159,-6.1148,-6.1098,-6.1099,-6.1099,-6.1099,-6.1116,-6.1143,-6.1143,-6.1159,-6.0998,-6.0359,-6.0087,-5.9486,-5.7936,-5.7509,-5.7064,-5.6211,-5.6075,-5.6075,-5.6075,-5.6056,-5.6051,-5.6051,-5.6018,-5.6012,-5.6012,-5.6012,-5.6012,-5.6012,-5.6012,-5.6012,-5.6012,-5.6012,-5.6012,-5.6012,-5.6012,-5.6012,-5.6012,-5.6012,-5.6012,-5.6012,-5.6012,-5.6012,-4.3105,-4.3613,-4.3906,-4.4785,-4.5137,-4.6113,-4.9297,-4.9336,-4.9141,-5.0703,0.0,0.0,0.0,0.0,0.0,0.0,0.0,0.0,0.0,0.0,0.0,0.0,0.0,0.0,0.0,0.0,0.0,0.0,0.0,0.0,0.0,0.0,0.0,0.0,0.0,0.0,-6.1699,-6.1679,-6.1579,-6.1393,-6.1393,-6.1393,-6.1393,-6.1393,-6.1393,-6.1393,-6.1393,-6.1408,-6.1383,-6.1383,-6.1398,-6.1388,-6.1388,-6.1388,-6.1388,-6.1388,-6.1388,-6.1388,-6.1388,-6.1388,-6.1388,-6.1388,-6.1388,-6.1388,-6.1388,-6.1388,-6.1367,-6.1311,-6.1324,-6.134,-6.115,-6.1099,-6.1099,-6.1099,-6.1192,-6.1289,-6.1289,-6.1336,-6.1349,-6.1291,-6.0692,-5.9879,-5.8958,-5.8106,-5.7288,-5.6407,-5.629,-5.629,-5.629,-5.6216,-5.6201,-5.6201,-5.6071,-5.6012,-5.6012,-5.6012,-5.6012,-5.6012,-5.6012,-5.6012,-5.6012,-5.6012,-5.6012,-5.6012,-5.6012,-5.6012,-5.6012,-5.6012,-5.6012,-5.6012,-5.6012,-5.6012,-4.1973,-4.291,-4.3906,-4.4785,-4.541,0.0,0.0,-5.0742,-5.1894,-5.418,-5.4902,0.0,0.0,0.0,0.0,0.0,0.0,0.0,0.0,0.0,0.0,0.0,0.0,0.0,0.0,0.0,0.0,0.0,0.0,0.0,0.0,0.0,0.0,0.0,0.0,0.0,0.0,-6.1699,-6.1658,-6.16,-6.16,-6.16,-6.16,-6.16,-6.16,-6.16,-6.16,-6.1564,-6.1511,-6.1511,-6.1483,-6.1393,-6.1393,-6.1393,-6.1393,-6.1393,-6.1393,-6.1393,-6.1393,-6.1393,-6.1393,-6.1393,-6.1393,-6.1393,-6.1393,-6.1393,-6.1383,-6.1362,-6.1383,-6.1378,-6.1255,-6.1269,-6.1298,-6.1298,-6.1336,-6.1351,-6.1351,-6.1383,-6.1393,-6.1393,-6.114,-6.0521,-5.9133,-5.8631,-5.7929,-5.6507,-5.6292,-5.6292,-5.6292,-5.6276,-5.6251,-5.6251,-5.6214,-5.6185,-5.6185,-5.6185,-5.6185,-5.6185,-5.6067,-5.6012,-5.6012,-5.6012,-5.6012,-5.6012,-5.6012,-5.6012,-5.6012,-5.6012,-5.6012,-5.6012,-5.6012,-5.6012,-4.1269,-4.2226,-4.3555,-4.4707,0.0,0.0,-5.0625,-5.2285,-5.3848,-5.6465,-5.6797,-5.6777,0.0,0.0,0.0,0.0,0.0,0.0,0.0,0.0,0.0,0.0,0.0,0.0,0.0,0.0,0.0,0.0,0.0,0.0,0.0,0.0,0.0,0.0,0.0,0.0,0.0,-6.1699,-6.1699,-6.1699,-6.1699,-6.1699,-6.1699,-6.1699,-6.1699,-6.1699,-6.1699,-6.1677,-6.1624,-6.1624,-6.1588,-6.1491,-6.1491,-6.1491,-6.1491,-6.1491,-6.1491,-6.1491,-6.1491,-6.1491,-6.1491,-6.1491,-6.1491,-6.1491,-6.1491,-6.1491,-6.1488,-6.1463,-6.1474,-6.1474,-6.1402,-6.1402,-6.1393,-6.1393,-6.1435,-6.1456,-6.1456,-6.1474,-6.1491,-6.1491,-6.1277,-6.0633,-5.9248,-5.876,-5.8097,-5.6617,-5.6383,-5.6383,-5.6383,-5.6384,-5.6359,-5.6292,-5.6292,-5.6292,-5.6292,-5.6281,-5.6261,-5.6261,-5.6093,-5.6018,-5.6056,-5.6018,-5.6012,-5.6012,-5.6012,-5.6012,-5.6012,-5.6012,-5.6012,-5.6012,-5.6012,-5.6012,-4.1406,-4.1797,-4.2832,-4.457,0.0,0.0,-5.2832,-5.4023,-5.4765,-5.7402,-5.7246,-5.7168,-5.8887,0.0,0.0,0.0,0.0,0.0,0.0,0.0,0.0,0.0,0.0,0.0,0.0,0.0,0.0,0.0,0.0,0.0,0.0,0.0,0.0,0.0,0.0,0.0,0.0,-6.1699,-6.1699,-6.1699,-6.1699,-6.1699,-6.1699,-6.1699,-6.1699,-6.1699,-6.1699,-6.1699,-6.1699,-6.1699,-6.1699,-6.1699,-6.1699,-6.1699,-6.1699,-6.1699,-6.1699,-6.1699,-6.1699,-6.1699,-6.1699,-6.1699,-6.1699,-6.1699,-6.1699,-6.1699,-6.1698,-6.1618,-6.1651,-6.1679,-6.1616,-6.1501,-6.1398,-6.1398,-6.1501,-6.1605,-6.1605,-6.1652,-6.1699,-6.1699,-6.0996,-6.0137,-5.9336,-5.8476,-5.7598,-5.6738,-5.6601,-5.6601,-5.6601,-5.6531,-5.645,-5.632,-5.6292,-5.6292,-5.6292,-5.6233,-5.6201,-5.6201,-5.6071,-5.6048,-5.6188,-5.6064,-5.6012,-5.6012,-5.6012,-5.6012,-5.6012,-5.6012,-5.6012,-5.6012,-5.6012,-5.6012,-4.0664,-4.2226,0.0,-4.5625,0.0,0.0,0.0,-5.539,0.0,0.0,0.0,0.0,0.0,0.0,0.0,0.0,0.0,0.0,0.0,0.0,0.0,0.0,0.0,0.0,0.0,0.0,0.0,0.0,0.0,0.0,0.0,0.0,0.0,0.0,0.0,0.0,0.0,0.0,-6.1699,-6.1699,-6.1699,-6.1699,-6.1699,-6.1699,-6.1699,-6.1699,-6.1699,-6.1699,-6.1699,-6.1699,-6.1699,-6.1699,-6.1699,-6.1699,-6.1699,-6.1699,-6.1699,-6.1699,-6.1699,-6.1699,-6.1699,-6.1699,-6.1699,-6.1699,-6.1699,-6.1699,-6.1699,-6.1677,-6.1679,-6.1699,-6.1677,-6.1633,-6.1608,-6.1608,-6.1633,-6.1677,-6.1677,-6.1698,-6.1699,-6.1699,-6.0996,-6.0137,-5.9336,-5.8476,-5.7598,-5.6738,-5.6601,-5.6601,-5.6601,-5.6581,-5.6558,-5.6512,-5.6511,-5.6483,-5.645,-5.6426,-5.6416,-5.6416,-5.6242,-5.6117,-5.6056,-5.6018,-5.6012,-5.6012,-5.6012,-5.6012,-5.6012,-5.6012,-5.6012,-5.6012,-5.6012,-5.6012,-4.1504,-4.3164,0.0,-4.7363,-4.9648,-5.2363,-5.6015,0.0,0.0,0.0,0.0,0.0,0.0,0.0,0.0,0.0,0.0,0.0,0.0,0.0,0.0,0.0,0.0,0.0,0.0,0.0,0.0,0.0,0.0,0.0,0.0,0.0,0.0,0.0,0.0,0.0,0.0,0.0,0.0,-6.1699,-6.1699,-6.1699,-6.1699,-6.1699,-6.1699,-6.1699,-6.1699,-6.1699,-6.1699,-6.1699,-6.1699,-6.1699,-6.1699,-6.1699,-6.1699,-6.1699,-6.1699,-6.1699,-6.1699,-6.1699,-6.1699,-6.1699,-6.1699,-6.1699,-6.1699,-6.1699,-6.1699,-6.1699,-6.1699,-6.1699,-6.1699,-6.1699,-6.1699,-6.1699,-6.1699,-6.1699,-6.1699,-6.1699,-6.1699,-6.1699,-6.0742,-5.9765,-5.9277,-5.8183,-5.7207,-5.668,-5.6601,-5.6601,-5.6601,-5.6601,-5.6601,-5.6601,-5.6601,-5.6581,-5.6532,-5.6518,-5.6508,-5.6508,-5.6347,-5.6199,-5.6116,-5.6048,-5.6012,-5.6012,-5.6012,-5.6012,-5.6012,-5.6012,-5.6012,-5.6012,-5.6012,-5.6012,-4.2969,0.0,0.0,-4.9336,-5.1094,0.0,-5.8008,0.0,0.0,0.0,0.0,0.0,0.0,0.0,0.0,0.0,0.0,0.0,0.0,0.0,0.0,0.0,0.0,0.0,0.0,0.0,0.0,0.0,0.0,0.0,0.0,0.0,0.0,0.0,0.0,0.0,0.0,0.0,0.0,0.0,-6.1699,-6.1699,-6.1699,-6.1699,-6.1699,-6.1699,-6.1699,-6.1699,-6.1699,-6.1699,-6.1699,-6.1699,-6.1699,-6.1699,-6.1699,-6.1699,-6.1699,-6.1699,-6.1699,-6.1699,-6.1699,-6.1699,-6.1699,-6.1699,-6.1699,-6.1699,-6.1699,-6.1699,-6.1699,-6.1699,-6.1699,-6.1699,-6.1699,-6.1699,-6.1699,-6.1699,-6.1699,-6.1699,-6.168,-6.1601,-6.0293,-5.918,-5.9101,-5.7695,-5.6601,-5.6601,-5.6601,-5.6601,-5.6601,-5.6601,-5.6601,-5.6601,-5.6601,-5.6601,-5.6582,-5.6548,-5.6508,-5.6508,-5.6374,-5.6312,-5.632,-5.6122,-5.6035,-5.6035,-5.6018,-5.601,-5.601,-5.602,-5.6012,-5.6012,-5.6012,-5.6012,0.0,-4.2812,0.0,0.0,-5.3379,0.0,0.0,0.0,0.0,0.0,0.0,0.0,0.0,0.0,0.0,0.0,0.0,0.0,0.0,0.0,0.0,0.0,0.0,0.0,0.0,0.0,0.0,0.0,0.0,0.0,0.0,0.0,0.0,0.0,0.0,0.0,-6.1699,-6.1698,-6.1698,0.0,-6.1696,-6.1697,-6.1699,-6.1699,-6.1699,-6.1699,-6.1699,-6.1699,-6.1699,-6.1699,-6.1699,-6.1699,-6.1699,-6.1699,-6.1699,-6.1699,-6.1699,-6.1699,-6.1699,-6.1699,-6.1699,-6.1699,-6.1699,-6.1699,-6.1699,-6.1699,-6.1699,-6.1699,-6.1699,-6.1699,-6.1699,-6.1699,-6.1699,-6.1699,-6.1699,-6.1699,-6.1699,-6.1699,-6.1504,-6.0801,-5.9883,-5.8984,-5.8301,-5.7305,-5.6601,-5.6601,-5.6601,-5.6601,-5.6601,-5.6601,-5.6601,-5.6601,-5.6601,-5.658,-5.6523,-5.6513,-5.6508,-5.6508,-5.6374,-5.6359,-5.645,-5.6308,-5.6246,-5.6246,-5.6188,-5.6167,-5.6167,-5.6059,-5.6012,-5.6012,-5.6012,-5.6012,0.0,0.0,0.0,0.0,0.0,0.0,0.0,0.0,0.0,0.0,0.0,0.0,0.0,0.0,0.0,0.0,0.0,0.0,0.0,0.0,0.0,0.0,0.0,0.0,0.0,0.0,0.0,0.0,0.0,0.0,0.0,0.0,0.0,0.0,0.0,0.0,-6.0507,-6.0506,-6.0486,-6.0467,-6.0463,-6.0463,-6.0527,-6.1327,-6.1698,-6.1698,-6.1698,-6.1698,-6.1699,-6.1699,-6.1699,-6.1699,-6.1699,-6.1699,-6.1699,-6.1699,-6.1699,-6.1699,-6.1699,-6.1699,-6.1699,-6.1699,-6.1699,-6.1699,-6.1699,-6.1699,-6.1699,-6.1699,-6.1699,-6.1699,-6.1699,-6.1699,-6.1699,-6.1699,-6.1699,-6.1699,-6.1699,-6.1367,-6.0937,-6.0488,-5.9414,-5.8437,-5.7988,-5.7187,-5.6601,-5.6601,-5.6601,-5.6601,-5.6601,-5.6601,-5.6601,-5.6601,-5.6601,-5.6581,-5.6554,-5.6553,-5.6553,-5.6553,-5.6479,-5.6477,-5.6533,-5.6479,-5.6403,-5.6292,-5.6276,-5.625,-5.625,-5.6181,-5.6149,-5.6142,-5.6112,-5.6094,0.0,0.0,0.0,0.0,0.0,0.0,0.0,0.0,0.0,0.0,0.0,0.0,0.0,0.0,0.0,0.0,0.0,0.0,0.0,0.0,0.0,0.0,0.0,0.0,0.0,0.0,0.0,0.0,0.0,0.0,0.0,0.0,0.0,0.0,0.0,-5.9199,-5.9197,-5.9196,-5.9156,-5.9092,-5.9092,-5.9134,-5.9235,-6.0621,-6.1266,-6.1268,-6.1268,-6.1268,-6.1287,-6.1425,-6.1484,-6.1484,-6.164,-6.1699,-6.1699,-6.1699,-6.1699,-6.1699,-6.1699,-6.1699,-6.1699,-6.1699,-6.1699,-6.1699,-6.1699,-6.1699,-6.1699,-6.1699,-6.1699,-6.1699,-6.1699,-6.1699,-6.1699,-6.1699,-6.1582,-6.1484,-6.1484,-6.0918,-6.0312,-6.0019,-5.873,-5.7676,-5.7676,-5.707,-5.6601,-5.6601,-5.6601,-5.6601,-5.6601,-5.6601,-5.6601,-5.6601,-5.6601,-5.6601,-5.6601,-5.6601,-5.6601,-5.6601,-5.6601,-5.6601,-5.6601,-5.6601,-5.6514,-5.6354,-5.634,-5.6332,-5.6332,-5.6316,-5.6292,-5.6308,-5.6239,-5.6212,0.0,0.0,0.0,0.0,0.0,0.0,0.0,0.0,0.0,0.0,0.0,0.0,0.0,0.0,0.0,0.0,0.0,0.0,0.0,0.0,0.0,0.0,0.0,0.0,0.0,0.0,0.0,0.0,0.0,0.0,0.0,0.0,-5.9199,-5.9199,-5.9199,0.0,-5.9197,-5.9135,-5.9113,-5.9092,-5.9092,-5.909,-5.9125,-5.9359,-5.9483,-5.9529,-5.9529,-5.9529,-5.9588,-6.0293,-6.0566,-6.0644,-6.1406,-6.1699,-6.1699,-6.1699,-6.1699,-6.1699,-6.1699,-6.1699,-6.1699,-6.1699,-6.1699,-6.1699,-6.1699,-6.1699,-6.1699,-6.1699,-6.1699,-6.1699,-6.1699,-6.1699,-6.1699,-6.1699,-6.1113,-6.0566,-6.0566,-6.0488,-5.9961,-5.8515,-5.7441,-5.6777,-5.6777,-5.668,-5.6601,-5.6601,-5.6601,-5.6601,-5.6601,-5.6601,-5.6601,-5.6601,-5.6601,-5.6601,-5.6601,-5.6601,-5.6601,-5.6601,-5.6601,-5.6601,-5.6601,-5.6601,-5.6582,-5.656,-5.6499,-5.6477,-5.6477,-5.6363,-5.6292,-5.6292,-5.6299,-5.629,-3.7988,0.0,0.0,0.0,0.0,0.0,0.0,0.0,0.0,0.0,0.0,0.0,0.0,0.0,0.0,0.0,0.0,0.0,0.0,0.0,0.0,0.0,0.0,0.0,0.0,0.0,0.0,0.0,0.0,0.0,0.0,-5.7734,-5.7734,-5.7734,-5.7734,0.0,-5.7749,-5.7704,-5.7698,-5.7693,-5.7693,-5.7695,-5.7695,-5.7709,-5.8222,-5.9131,-5.9131,-5.9133,-5.9174,-5.9569,-5.9726,-5.9805,-6.0644,-6.0976,-6.1035,-6.1523,-6.1699,-6.1699,-6.1699,-6.1699,-6.1699,-6.1699,-6.1699,-6.1699,-6.1699,-6.1699,-6.1699,-6.1699,-6.1699,-6.1699,-6.1699,-6.1699,-6.1582,-6.1094,-6.0683,-6.0137,-5.9199,-5.9004,-5.8633,-5.7402,-5.6855,-5.6601,-5.6601,-5.6601,-5.6601,-5.6601,-5.6601,-5.6601,-5.6601,-5.6601,-5.6601,-5.6601,-5.6601,-5.6601,-5.6601,-5.6601,-5.6601,-5.6601,-5.6601,-5.6601,-5.6601,-5.6601,-5.6601,-5.6601,-5.6579,-5.6556,-5.6556,-5.6506,-5.6477,-5.6477,-5.643,-5.6413,0.0,0.0,0.0,0.0,0.0,0.0,0.0,0.0,0.0,0.0,0.0,0.0,0.0,0.0,0.0,0.0,0.0,0.0,0.0,0.0,0.0,0.0,0.0,0.0,0.0,0.0,0.0,0.0,0.0,0.0,-5.6621,-5.6601,-5.6601,-5.6601,-5.6601,-5.6597,-5.6593,-5.6603,-5.6595,-5.6606,-5.6606,-5.6591,-5.6598,-5.6608,-5.7274,-5.8455,-5.8456,-5.8461,-5.8486,-5.8765,-5.8866,-5.8945,-5.9765,-6.0215,-6.0488,-6.1133,-6.1504,-6.1699,-6.1699,-6.1699,-6.1699,-6.1699,-6.1699,-6.1699,-6.1699,-6.1699,-6.1699,-6.1699,-6.1699,-6.1699,-6.1699,-6.1699,-6.1484,-6.0605,-6.0234,-5.9687,-5.8223,-5.7734,-5.7383,-5.6738,-5.6601,-5.6601,-5.6601,-5.6601,-5.6601,-5.6601,-5.6601,-5.6601,-5.6601,-5.6601,-5.6601,-5.6601,-5.6601,-5.6601,-5.6601,-5.6601,-5.6601,-5.6601,-5.6601,-5.6601,-5.6601,-5.6601,-5.6601,-5.6601,-5.6601,-5.6601,-5.6601,-5.6601,-5.6601,-5.6601,-5.6553,-5.6523,0.0,0.0,0.0,0.0,0.0,0.0,0.0,0.0,0.0,0.0,0.0,0.0,0.0,0.0,0.0,0.0,0.0,0.0,0.0,0.0,0.0,0.0,0.0,0.0,0.0,0.0,0.0,0.0,0.0,0.0,-5.6601,-5.6601,-5.6601,-5.6601,-5.6601,-5.6597,-5.6593,-5.6596,-5.6606,-5.6606,-5.6606,-5.6606,-5.6606,-5.6606,-5.6645,-5.6723,-5.6735,-5.6738,-5.6798,-5.7632,-5.7966,-5.8045,-5.8926,-5.9726,-6.041,-6.0449,-6.0996,-6.1699,-6.1699,-6.1699,-6.1699,-6.1699,-6.1699,-6.1699,-6.1699,-6.1699,-6.1699,-6.1699,-6.1699,-6.1699,-6.1699,-6.1699,-6.1484,-6.0605,-5.9824,-5.9004,-5.8105,-5.7246,-5.664,-5.6601,-5.6601,-5.6601,-5.6601,-5.6601,-5.6601,-5.6601,-5.6601,-5.6601,-5.6601,-5.6601,-5.6601,-5.6601,-5.6601,-5.6601,-5.6601,-5.6601,-5.6601,-5.6601,-5.6601,-5.6601,-5.6601,-5.6601,-5.6601,-5.6601,-5.6601,-5.6601,-5.6601,-5.6601,-5.6601,-5.6601,-5.6601,-5.6582,0.0,0.0,0.0,0.0,0.0,0.0,0.0,0.0,0.0,0.0,0.0,0.0,0.0,0.0,0.0,0.0,0.0,0.0,0.0,0.0,0.0,0.0,0.0,0.0,0.0,0.0,0.0,0.0,0.0,0.0,-5.5801,-5.5762,-5.5508,-5.4941,-5.5466,-5.6024,-5.6598,-5.661,-5.6606,-5.6606,-5.6606,-5.6606,-5.6606,-5.6606,-5.6606,-5.6606,-5.661,-5.6595,-5.6621,-5.6944,-5.7066,-5.7147,-5.8027,-5.8535,-5.8867,-5.9414,-6.0156,-6.0879,-6.0879,-6.123,-6.1699,-6.1699,-6.1699,-6.1699,-6.1699,-6.1699,-6.1699,-6.1699,-6.1699,-6.1699,-6.1699,-6.1289,-6.0527,-5.9121,-5.8144,-5.7441,-5.7129,-5.6816,-5.6601,-5.6601,-5.6601,-5.6601,-5.6601,-5.6601,-5.6601,-5.6601,-5.6601,-5.6601,-5.6601,-5.6601,-5.6601,-5.6601,-5.6601,-5.6601,-5.6601,-5.6601,-5.6601,-5.6601,-5.6601,-5.6601,-5.6601,-5.6601,-5.6601,-5.6601,-5.6601,-5.6601,-5.6601,-5.6601,-5.6601,-5.6601,-5.6601,-5.6601,-3.0962,0.0,0.0,0.0,0.0,0.0,0.0,0.0,0.0,0.0,0.0,0.0,0.0,0.0,0.0,0.0,0.0,0.0,0.0,0.0,0.0,0.0,0.0,0.0,0.0,0.0,0.0,0.0,0.0,0.0,-5.4883,-5.4863,-5.4609,-5.4023,-5.4566,-5.5142,-5.5728,-5.5728,-5.5728,-5.5728,-5.5728,-5.5884,-5.6157,-5.6157,-5.6313,-5.6606,-5.6606,-5.661,-5.6596,-5.6606,-5.6593,-5.6657,-5.7245,-5.7636,-5.7969,-5.8555,-5.9297,-6.0,-6.0,-6.0547,-6.1269,-6.1269,-6.1465,-6.1699,-6.1699,-6.1699,-6.1699,-6.1699,-6.1699,-6.1621,-6.1348,-6.043,-5.9277,-5.8164,-5.7226,-5.6601,-5.6601,-5.6601,-5.6601,-5.6601,-5.6601,-5.6601,-5.6601,-5.6601,-5.6601,-5.6601,-5.6601,-5.6601,-5.6601,-5.6601,-5.6601,-5.6601,-5.6601,-5.6601,-5.6601,-5.6601,-5.6601,-5.6601,-5.6601,-5.6601,-5.6601,-5.6601,-5.6601,-5.6601,-5.6601,-5.6601,-5.6601,-5.6601,-5.6601,-5.6582,-5.6308,-5.6015,0.0,0.0,0.0,0.0,0.0,0.0,0.0,0.0,0.0,0.0,0.0,0.0,0.0,0.0,0.0,0.0,0.0,0.0,0.0,0.0,0.0,0.0,0.0,0.0,0.0,0.0,0.0,0.0,0.0,-5.3984,-5.3965,-5.3945,-5.3944,-5.3957,-5.3957,-5.397,-5.399,-5.401,-5.401,-5.401,-5.401,-5.4439,-5.5259,-5.5259,-5.5747,-5.6567,-5.6567,-5.6586,-5.6606,-5.6596,-5.6606,-5.6593,-5.6598,-5.7128,-5.7851,-5.7851,-5.8418,-5.916,-5.916,-5.9687,-6.0351,-6.0351,-6.0937,-6.1621,-6.1621,-6.1621,-6.1621,-6.164,-6.164,-6.1426,-6.0547,-5.9121,-5.789,-5.7871,-5.7226,-5.6601,-5.6601,-5.6601,-5.6601,-5.6601,-5.6601,-5.6601,-5.6601,-5.6601,-5.6601,-5.6601,-5.6601,-5.6601,-5.6601,-5.6601,-5.6601,-5.6601,-5.6601,-5.6601,-5.6601,-5.6601,-5.6601,-5.6601,-5.6601,-5.6601,-5.6601,-5.6601,-5.6601,-5.6601,-5.6601,-5.6601,-5.6601,-5.6601,-5.6582,-5.6543,-5.5664,-5.4805,-2.9646,0.0,0.0,0.0,0.0,0.0,0.0,0.0,0.0,0.0,0.0,0.0,0.0,0.0,0.0,0.0,0.0,0.0,0.0,0.0,0.0,0.0,0.0,0.0,0.0,0.0,0.0,0.0,0.0,-5.3711,-5.3086,-5.2461,-5.2401,-5.304,-5.3058,-5.3365,-5.399,-5.401,-5.401,-5.401,-5.401,-5.4127,-5.4361,-5.4361,-5.4849,-5.5669,-5.5669,-5.602,-5.6606,-5.6596,-5.6603,-5.6606,-5.6597,-5.6756,-5.6952,-5.6953,-5.7519,-5.8262,-5.8262,-5.8828,-5.9531,-5.9531,-5.9707,-5.9883,-5.9883,-5.9883,-6.0019,-6.0605,-6.0332,-5.9687,-5.8828,-5.8242,-5.7734,-5.7109,-5.6777,-5.6601,-5.6601,-5.6601,-5.6601,-5.6601,-5.6601,-5.6601,-5.6601,-5.6601,-5.6601,-5.6601,-5.6601,-5.6601,-5.6601,-5.6601,-5.6601,-5.6601,-5.6601,-5.6601,-5.6601,-5.6601,-5.6601,-5.6601,-5.6601,-5.6601,-5.6601,-5.6601,-5.6601,-5.6601,-5.6601,-5.6601,-5.6601,-5.6601,-5.6289,-5.5644,-5.4765,-5.4238,-3.1834,0.0,0.0,0.0,0.0,0.0,0.0,0.0,0.0,0.0,0.0,0.0,0.0,0.0,0.0,0.0,0.0,0.0,0.0,0.0,0.0,0.0,0.0,0.0,0.0,0.0,0.0,0.0,-5.293,-5.2695,-5.2187,-5.168,-5.162,-5.2141,-5.216,-5.2408,-5.2917,-5.2917,-5.2917,-5.2917,-5.2917,-5.3112,-5.3463,-5.3463,-5.3932,-5.4771,-5.5142,-5.5591,-5.6098,-5.6456,-5.6598,-5.6602,-5.6592,-5.6597,-5.6599,-5.6601,-5.6914,-5.7363,-5.7363,-5.793,-5.8652,-5.8652,-5.8906,-5.9199,-5.9199,-5.9199,-5.9297,-5.9765,-5.9297,-5.8535,-5.8027,-5.7637,-5.7226,-5.6719,-5.6601,-5.6601,-5.6601,-5.6601,-5.6601,-5.6601,-5.6601,-5.6601,-5.6601,-5.6601,-5.6601,-5.6601,-5.6601,-5.6601,-5.6601,-5.6601,-5.6601,-5.6601,-5.6601,-5.6601,-5.6601,-5.6601,-5.6601,-5.6601,-5.6601,-5.6601,-5.6601,-5.6601,-5.6601,-5.6601,-5.6601,-5.6426,-5.6055,-5.6055,-5.543,-5.4199,-5.3691,-5.3262,0.0,0.0,0.0,0.0,0.0,0.0,0.0,-3.7844,0.0,0.0,0.0,0.0,0.0,0.0,0.0,0.0,0.0,0.0,0.0,0.0,0.0,0.0,0.0,0.0,0.0,0.0,0.0,-5.1269,-5.1348,-5.1406,-5.1406,-5.1406,-5.1405,-5.1399,-5.1398,-5.1393,-5.1396,-5.1394,-5.1394,-5.1394,-5.1394,-5.1804,-5.2567,-5.2567,-5.3034,-5.3893,-5.4674,-5.5125,-5.5357,-5.6138,-5.6515,-5.66,-5.66,-5.661,-5.6598,-5.6599,-5.66,-5.6601,-5.6601,-5.7109,-5.7754,-5.7754,-5.8281,-5.8906,-5.8906,-5.8906,-5.8906,-5.8906,-5.8418,-5.7871,-5.7773,-5.7187,-5.6601,-5.6601,-5.6601,-5.6601,-5.6601,-5.6601,-5.6601,-5.6601,-5.6601,-5.6601,-5.6601,-5.6601,-5.6601,-5.6601,-5.6601,-5.6601,-5.6601,-5.6601,-5.6601,-5.6601,-5.6601,-5.6601,-5.6601,-5.6601,-5.6601,-5.6601,-5.6601,-5.6601,-5.6601,-5.6601,-5.6601,-5.6601,-5.6504,-5.5976,-5.5019,-5.5019,-5.4219,-5.2695,-5.2598,-5.2148,0.0,0.0,0.0,0.0,0.0,0.0,0.0,-3.4702,0.0,0.0,0.0,0.0,0.0,0.0,0.0,0.0,0.0,0.0,0.0,0.0,0.0,0.0,0.0,0.0,0.0,0.0,-4.9687,-5.0371,-5.1035,-5.1406,-5.1406,-5.1406,-5.1406,-5.1404,-5.14,-5.1395,-5.1407,-5.1398,-5.1394,-5.1394,-5.1394,-5.1492,-5.1648,-5.1648,-5.2136,-5.2958,-5.3134,-5.3992,-5.532,-5.5474,-5.5964,-5.661,-5.6598,-5.6603,-5.6606,-5.6593,-5.6597,-5.66,-5.66,-5.6718,-5.6855,-5.6855,-5.6973,-5.7109,-5.7109,-5.7109,-5.7109,-5.7109,-5.748,-5.7734,-5.7031,-5.6738,-5.6601,-5.6601,-5.6601,-5.6601,-5.6601,-5.6601,-5.6601,-5.6601,-5.6601,-5.6601,-5.6601,-5.6601,-5.6601,-5.6601,-5.6601,-5.6601,-5.6601,-5.6601,-5.6601,-5.6601,-5.6601,-5.6601,-5.6601,-5.6601,-5.6601,-5.6601,-5.6601,-5.6601,-5.6601,-5.6601,-5.6601,-5.6601,-5.5918,-5.4785,-5.3203,-5.3203,-5.3027,-5.2676,-5.1973,-5.1562,0.0,0.0,0.0,-3.8984,0.0,0.0,0.0,0.0,0.0,0.0,0.0,0.0,0.0,0.0,0.0,0.0,0.0,0.0,0.0,0.0,0.0,0.0,0.0,0.0,0.0,0.0,-4.9082,-4.9512,-4.9922,-5.0156,-5.0156,-5.0566,-5.0801,-5.0799,-5.1186,-5.1396,-5.1409,-5.14,-5.1394,-5.1394,-5.1394,-5.1394,-5.1394,-5.1394,-5.1648,-5.2078,-5.2509,-5.3192,-5.4071,-5.4949,-5.5552,-5.5981,-5.6436,-5.6596,-5.6602,-5.6606,-5.6592,-5.6597,-5.6599,-5.66,-5.6601,-5.6601,-5.6601,-5.6601,-5.6601,-5.6601,-5.6601,-5.6601,-5.6914,-5.7148,-5.6719,-5.6601,-5.6601,-5.6601,-5.6601,-5.6601,-5.6601,-5.6601,-5.6601,-5.6601,-5.6601,-5.6601,-5.6601,-5.6601,-5.6601,-5.6601,-5.6601,-5.6601,-5.6601,-5.6601,-5.6601,-5.6601,-5.6601,-5.6601,-5.6601,-5.6601,-5.6601,-5.6601,-5.6601,-5.6601,-5.6601,-5.6172,-5.5742,-5.5312,-5.4453,-5.3574,-5.2695,-5.2266,-5.2051,-5.2031,-5.1601,-5.1406,0.0,0.0,0.0,0.0,0.0,-3.8974,0.0,0.0,0.0,0.0,0.0,0.0,0.0,0.0,0.0,0.0,0.0,0.0,0.0,0.0,0.0,0.0,0.0,0.0,0.0,0.0,-4.8105,-4.8613,-4.834,-4.8379,-4.8867,-4.957,-4.9941,-4.994,-5.0737,-5.1142,-5.1157,-5.1322,-5.1394,-5.1394,-5.1394,-5.1394,-5.1394,-5.1394,-5.1394,-5.1433,-5.2136,-5.2548,-5.2802,-5.4227,-5.5007,-5.5396,-5.6255,-5.6591,-5.6598,-5.6598,-5.6605,-5.6592,-5.6596,-5.6598,-5.66,-5.6601,-5.6601,-5.6601,-5.6601,-5.6601,-5.6601,-5.6601,-5.6601,-5.6601,-5.6601,-5.6601,-5.6601,-5.6601,-5.6601,-5.6601,-5.6601,-5.6601,-5.6601,-5.6601,-5.6601,-5.6601,-5.6601,-5.6601,-5.6601,-5.6601,-5.6601,-5.6601,-5.6601,-5.6601,-5.6601,-5.6601,-5.6601,-5.6601,-5.6601,-5.6601,-5.6601,-5.6601,-5.6601,-5.6523,-5.6367,-5.5508,-5.4648,-5.3769,-5.3066,-5.2617,-5.2441,-5.1738,-5.1406,-5.1406,-5.1406,-5.1406,0.0,0.0,0.0,0.0,-4.2183,0.0,0.0,0.0,0.0,0.0,0.0,0.0,0.0,0.0,0.0,0.0,0.0,0.0,0.0,0.0,0.0,0.0,0.0,0.0,0.0,0.0,0.0,-4.7578,-4.6328,-4.6445,-4.8789,-4.8984,-4.9043,-4.9043,-4.9821,-5.0245,-5.0245,-5.1013,-5.1394,-5.1394,-5.1394,-5.1394,-5.1394,-5.1394,-5.1394,-5.1414,-5.1492,-5.198,-5.2724,-5.2919,-5.3914,-5.5396,-5.6255,-5.6606,-5.6608,-5.6608,-5.6595,-5.6603,-5.6603,-5.6593,-5.6599,-5.66,-5.6601,-5.6601,-5.6601,-5.6601,-5.6601,-5.6601,-5.6601,-5.6601,-5.6601,-5.6601,-5.6601,-5.6601,-5.6601,-5.6601,-5.6601,-5.6601,-5.6601,-5.6601,-5.6601,-5.6601,-5.6601,-5.6601,-5.6601,-5.6601,-5.6601,-5.6601,-5.6601,-5.6601,-5.6601,-5.6601,-5.6601,-5.6601,-5.6601,-5.6601,-5.6601,-5.6601,-5.6601,-5.625,-5.5488,-5.4609,-5.373,-5.2851,-5.2754,-5.2324,-5.1543,-5.1445,-5.1406,-5.1406,-5.1406,-5.1406,0.0,0.0,0.0,0.0,0.0,0.0,0.0,0.0,-3.6035,0.0,0.0,0.0,0.0,0.0,0.0,0.0,0.0,0.0,0.0,0.0,0.0,0.0,0.0,0.0,0.0,0.0,0.0,0.0,0.0,-4.4414,-4.6523,-4.7598,-4.8144,-4.8144,-4.8961,-4.9405,-4.9405,-5.0232,-5.0651,-5.0651,-5.116,-5.1394,-5.1394,-5.1394,-5.1394,-5.1394,-5.1394,-5.1609,-5.198,-5.2489,-5.3134,-5.3934,-5.5318,-5.6157,-5.6606,-5.6606,-5.6608,-5.6593,-5.66,-5.6606,-5.6592,-5.6595,-5.6599,-5.6601,-5.6601,-5.6601,-5.6601,-5.6601,-5.6601,-5.6601,-5.6601,-5.6601,-5.6601,-5.6601,-5.6601,-5.6601,-5.6601,-5.6601,-5.6601,-5.6601,-5.6601,-5.6601,-5.6601,-5.6601,-5.6601,-5.6601,-5.6601,-5.6601,-5.6601,-5.6601,-5.6601,-5.6601,-5.6601,-5.6601,-5.6601,-5.6601,-5.6387,-5.5879,-5.5371,-5.4707,-5.3828,-5.3437,-5.2832,-5.1953,-5.1953,-5.1777,-5.1406,-5.1406,-5.1406,-5.1406,-5.1406,-5.1406,-4.596,0.0,0.0,0.0,0.0,0.0,0.0,0.0,0.0,0.0,0.0,0.0,0.0,0.0,0.0,0.0,0.0,0.0,0.0,0.0,0.0,0.0,0.0,0.0,0.0,0.0,0.0,0.0,0.0,0.0,-4.4863,-4.6191,-4.6992,-4.7246,-4.8082,-4.8546,-4.8546,-4.9334,-4.9733,-4.9753,-5.0633,-5.1043,-5.1043,-5.1297,-5.1394,-5.1394,-5.1394,-5.1394,-5.1453,-5.2078,-5.2489,-5.286,-5.4361,-5.5474,-5.6274,-5.6508,-5.6606,-5.6606,-5.6595,-5.6598,-5.6603,-5.6591,-5.6595,-5.6598,-5.6599,-5.6601,-5.6601,-5.6601,-5.6601,-5.6601,-5.6601,-5.6601,-5.6601,-5.6601,-5.6601,-5.6601,-5.6601,-5.6601,-5.6601,-5.6601,-5.6601,-5.6601,-5.6601,-5.6601,-5.6601,-5.6601,-5.6601,-5.6601,-5.6601,-5.6601,-5.6601,-5.6601,-5.6601,-5.6601,-5.6601,-5.6387,-5.5879,-5.5,-5.4121,-5.3359,-5.2734,-5.2461,-5.205,-5.1406,-5.1406,-5.1406,-5.1406,-5.1406,-5.1406,-5.1406,-5.1406,-5.1406,0.0,0.0,0.0,-4.1843,0.0,0.0,0.0,0.0,-3.8957,0.0,0.0,0.0,0.0,0.0,0.0,-3.4698,0.0,0.0,0.0,0.0,0.0,0.0,0.0,0.0,0.0,0.0,0.0,0.0,0.0,0.0,-4.4726,-4.5058,-4.5469,-4.6328,-4.7184,-4.7648,-4.7648,-4.8436,-4.8837,-4.8857,-4.9733,-5.0143,-5.0163,-5.1023,-5.1394,-5.1394,-5.1394,-5.1394,-5.1394,-5.1433,-5.1941,-5.2782,-5.3698,-5.4576,-5.5435,-5.6294,-5.6606,-5.6606,-5.6606,-5.6593,-5.6603,-5.6591,-5.6593,-5.6594,-5.6598,-5.6599,-5.66,-5.6601,-5.6601,-5.6601,-5.6601,-5.6601,-5.6601,-5.66,-5.6599,-5.6599,-5.6599,-5.6597,-5.6596,-5.6601,-5.6599,-5.6595,-5.6599,-5.6601,-5.6601,-5.6601,-5.6601,-5.6601,-5.6601,-5.6601,-5.66,-5.6601,-5.6601,-5.66,-5.6601,-5.582,-5.4961,-5.4101,-5.3222,-5.2733,-5.2694,-5.189,-5.142,-5.1405,-5.1405,-5.1405,-5.1406,-5.1406,-5.1406,-5.1406,-5.1406,-5.1406,0.0,0.0,-4.799,-4.4008,0.0,0.0,0.0,0.0,0.0,0.0,0.0,0.0,0.0,0.0,0.0,0.0,0.0,0.0,0.0,0.0,0.0,0.0,0.0,0.0,0.0,0.0,0.0,0.0,0.0,0.0,0.0,-4.4375,-4.5137,-4.5429,-4.6284,-4.6749,-4.6744,-4.7574,-4.8017,-4.8017,-4.9421,-5.0104,-5.0124,-5.1004,-5.1394,-5.1394,-5.1394,-5.1394,-5.1394,-5.1394,-5.157,-5.1921,-5.28,-5.3678,-5.4615,-5.6079,-5.6606,-5.6606,-5.6606,-5.6608,-5.6593,-5.6595,-5.6602,-5.6606,-5.6609,-5.6593,-5.6596,-5.6597,-5.6597,-5.6597,-5.6597,-5.6597,-5.6597,-5.6596,-5.6596,-5.6596,-5.6596,-5.6594,-5.6594,-5.6597,-5.6595,-5.6593,-5.6595,-5.6597,-5.6597,-5.6597,-5.6599,-5.66,-5.6598,-5.6597,-5.6596,-5.6597,-5.6089,-5.5738,-5.5741,-5.4414,-5.3457,-5.3163,-5.2323,-5.1833,-5.1831,-5.1555,-5.1399,-5.1401,-5.1401,-5.1402,-5.1402,-5.1405,-5.1405,-5.1405,-5.1406,-5.1406,-4.8279,-4.874,0.0,0.0,-4.4374,0.0,-3.9662,0.0,0.0,0.0,0.0,0.0,0.0,0.0,0.0,0.0,0.0,0.0,0.0,0.0,0.0,0.0,0.0,0.0,0.0,0.0,-3.5131,-3.7833,0.0,0.0,0.0,0.0,-4.4687,-4.4998,-4.5855,-4.63,-4.6293,-4.685,-4.7139,-4.7159,-4.8543,-4.9362,-4.9675,-5.0535,-5.1074,-5.1327,-5.1327,-5.1297,-5.1258,-5.13,-5.1297,-5.1356,-5.2278,-5.313,-5.4031,-5.558,-5.6333,-5.6606,-5.6606,-5.6606,-5.6606,-5.6606,-5.6591,-5.6596,-5.66,-5.6605,-5.6609,-5.6592,-5.6593,-5.6593,-5.6593,-5.6593,-5.6592,-5.6609,-5.6609,-5.6609,-5.6609,-5.6606,-5.6606,-5.6592,-5.6609,-5.6606,-5.6609,-5.6609,-5.661,-5.6593,-5.6596,-5.6597,-5.6593,-5.6591,-5.6591,-5.6593,-5.5811,-5.5051,-5.4431,-5.3358,-5.2577,-5.2264,-5.1715,-5.1399,-5.1396,-5.1393,-5.1393,-5.1395,-5.1395,-5.1396,-5.1398,-5.1402,-5.1403,-5.1403,-5.1405,-5.1405]},{"header":{"parameterUnit":"m.s-1","parameterCategory":1,"la1":30.6,"la2":29.2853,"lo1":-89.7004,"lo2":-87.6739,"dy":0.0162,"dx":0.0183,"nx":112,"ny":82,"refTime":"2025-05-20T18:00:00:Z","depth":0,"parameterNumber":3,"parameterNumberName":"V-component_of_WINDS"},"data":[0.0,0.0,0.0,0.0,0.0,0.0,0.0,0.0,0.0,0.0,0.0,0.0,0.0,0.0,0.0,0.0,0.0,0.0,0.0,0.0,0.0,0.0,0.0,0.0,0.0,0.0,0.0,0.0,0.0,0.0,0.0,0.0,0.0,0.0,0.0,0.0,0.0,0.0,0.0,0.0,0.0,0.0,0.0,0.0,0.0,0.0,0.0,0.0,0.0,0.0,0.0,0.0,0.0,0.0,0.0,0.0,0.0,0.0,0.0,0.0,0.0,0.0,0.0,0.0,0.0,0.0,0.0,0.0,0.0,0.0,0.0,0.0,0.0,0.0,0.0,0.0,0.0,0.0,0.0,0.0,0.0,0.0,0.0,0.0,0.0,0.0,0.0,0.0,0.0,0.0,0.0,-1.3,-1.4826,-1.5677,-1.4994,-1.5092,-1.3979,-1.1091,0.0,0.0,0.0,0.0,0.0,0.0,0.0,0.0,0.0,0.0,0.0,0.0,0.0,0.0,0.0,0.0,0.0,0.0,0.0,0.0,0.0,0.0,0.0,0.0,0.0,0.0,0.0,0.0,0.0,0.0,0.0,0.0,0.0,0.0,0.0,0.0,0.0,0.0,0.0,0.0,0.0,0.0,0.0,0.0,0.0,0.0,0.0,0.0,0.0,0.0,0.0,0.0,0.0,0.0,0.0,0.0,0.0,0.0,0.0,0.0,0.0,0.0,0.0,0.0,0.0,0.0,0.0,0.0,0.0,0.0,0.0,0.0,0.0,0.0,0.0,0.0,0.0,0.0,0.0,0.0,0.0,0.0,0.0,0.0,0.0,0.0,0.0,0.0,0.0,0.0,0.0,0.0,0.0,0.0,0.0,0.0,0.0,0.0,0.0,0.0,0.0,0.0,0.0,0.0,-1.1587,-1.5298,-1.6018,-1.6277,-1.6386,-1.4817,-1.3021,-1.1211,0.0,0.0,0.0,0.0,0.0,0.0,0.0,0.0,0.0,0.0,0.0,0.0,0.0,0.0,0.0,0.0,0.0,0.0,0.0,0.0,0.0,0.0,0.0,0.0,0.0,0.0,0.0,0.0,0.0,0.0,0.0,0.0,0.0,0.0,0.0,0.0,0.0,0.0,0.0,0.0,0.0,0.0,0.0,0.0,0.0,0.0,0.0,0.0,0.0,0.0,0.0,0.0,0.0,0.0,0.0,0.0,0.0,0.0,0.0,0.0,0.0,0.0,0.0,0.0,0.0,0.0,0.0,0.0,0.0,0.0,0.0,0.0,0.0,0.0,0.0,0.0,0.0,0.0,0.0,0.0,0.0,0.0,0.0,0.0,0.0,0.0,0.0,0.0,0.0,0.0,0.0,0.0,0.0,0.0,0.0,0.0,0.0,0.0,0.0,0.0,0.0,0.0,0.0,-1.1325,-1.32,-1.6187,-1.6374,-1.6392,-1.6676,-1.5288,-1.3446,-1.1256,-1.0258,0.0,0.0,0.0,0.0,0.0,0.0,0.0,0.0,0.0,0.0,0.0,0.0,0.0,0.0,0.0,0.0,0.0,0.0,0.0,0.0,0.0,0.0,0.0,0.0,0.0,0.0,0.0,0.0,0.0,0.0,0.0,0.0,0.0,0.0,0.0,0.0,0.0,0.0,0.0,0.0,0.0,0.0,0.0,0.0,0.0,0.0,0.0,0.0,0.0,0.0,0.0,0.0,0.0,0.0,0.0,0.0,0.0,0.0,0.0,0.0,0.0,0.0,0.0,0.0,0.0,0.0,0.0,0.0,0.0,0.0,0.0,0.0,0.0,0.0,0.0,0.0,0.0,0.0,0.0,0.0,0.0,0.0,0.0,0.0,0.0,0.0,0.0,0.0,0.0,0.0,0.0,0.0,0.0,0.0,0.0,0.0,0.0,0.0,0.0,0.0,0.0,0.0,-1.3368,-1.4883,-1.6441,-1.641,-1.6368,-1.6592,-1.5245,-1.3485,-1.1222,-0.9688,0.0,0.0,0.0,0.0,0.0,0.0,0.0,0.0,0.0,0.0,0.0,0.0,0.0,0.0,0.0,0.0,0.0,0.0,0.0,0.0,0.0,0.0,0.0,0.0,0.0,0.0,0.0,0.0,0.0,0.0,0.0,0.0,0.0,0.0,0.0,0.0,0.0,0.0,0.0,0.0,0.0,0.0,0.0,0.0,0.0,0.0,0.0,0.0,0.0,0.0,0.0,0.0,0.0,0.0,0.0,0.0,0.0,0.0,0.0,0.0,0.0,0.0,0.0,0.0,0.0,0.0,0.0,0.0,0.0,0.0,0.0,0.0,0.0,0.0,0.0,0.0,0.0,0.0,0.0,0.0,0.0,0.0,0.0,0.0,0.0,0.0,0.0,0.0,0.0,0.0,0.0,0.0,0.0,0.0,0.0,0.0,0.0,0.0,0.0,0.0,0.0,0.0,-1.3374,-1.5632,-1.6266,-1.6302,-1.6296,-1.6332,-1.3976,-1.205,-1.0965,-0.832,0.0,0.0,0.0,0.0,0.0,0.0,0.0,0.0,0.0,0.0,0.0,0.0,0.0,0.0,0.0,0.0,0.0,0.0,0.0,0.0,0.0,0.0,0.0,0.0,0.0,0.0,0.0,0.0,0.0,0.0,0.0,0.0,0.0,0.0,0.0,0.0,0.0,0.0,0.0,0.0,0.0,0.0,0.0,0.0,0.0,0.0,0.0,0.0,0.0,0.0,0.0,0.0,0.0,0.0,0.0,0.0,0.0,0.0,0.0,0.0,0.0,0.0,0.0,0.0,0.0,0.0,0.0,0.0,0.0,0.0,0.0,0.0,0.0,0.0,0.0,0.0,0.0,0.0,0.0,0.0,0.0,0.0,0.0,0.0,0.0,0.0,0.0,0.0,0.0,0.0,0.0,0.0,0.0,0.0,0.0,0.0,0.0,0.0,0.0,0.0,0.0,0.0,-1.2939,-1.5143,0.0,-1.6296,-1.6229,-1.606,-1.4112,-1.2289,-1.0759,0.0,0.0,0.0,0.0,0.0,0.0,0.0,0.0,0.0,0.0,0.0,0.0,0.0,0.0,0.0,0.0,0.0,0.0,0.0,0.0,0.0,0.0,0.0,0.0,0.0,0.0,0.0,0.0,0.0,0.0,0.0,0.0,0.0,0.0,0.0,0.0,0.0,0.0,0.0,0.0,0.0,0.0,0.0,0.0,0.0,0.0,0.0,0.0,0.0,0.0,0.0,0.0,0.0,0.0,0.0,0.0,0.0,0.0,0.0,0.0,0.0,0.0,0.0,0.0,0.0,0.0,0.0,0.0,0.0,0.0,0.0,0.0,0.0,0.0,0.0,0.0,0.0,0.0,0.0,0.0,0.0,0.0,0.0,0.0,0.0,0.0,0.0,0.0,0.0,0.0,0.0,0.0,0.0,0.0,0.0,0.0,0.0,0.0,0.0,0.0,0.0,0.0,-1.0293,-1.2882,-1.4968,0.0,-1.6169,-1.6066,-1.5789,-1.4265,-1.2519,-1.0484,0.0,0.0,0.0,0.0,0.0,0.0,0.0,0.0,0.0,0.0,0.0,0.0,0.0,0.0,0.0,0.0,0.0,0.0,0.0,0.0,0.0,0.0,0.0,0.0,0.0,0.0,0.0,0.0,0.0,0.0,0.0,0.0,0.0,0.0,0.0,0.0,0.0,0.0,0.0,0.0,0.0,0.0,0.0,0.0,0.0,0.0,0.0,0.0,0.0,0.0,0.0,0.0,0.0,0.0,0.0,0.0,0.0,0.0,0.0,0.0,0.0,0.0,0.0,0.0,0.0,0.0,0.0,0.0,0.0,0.0,0.0,0.0,0.0,0.0,0.0,0.0,0.0,0.0,0.0,0.0,0.0,0.0,0.0,0.0,0.0,0.0,0.0,0.0,0.0,0.0,0.0,0.0,0.0,0.0,0.0,0.0,0.0,0.0,0.0,0.0,0.0,0.0,-1.0477,-1.3244,-1.5306,-1.5831,-1.5885,-1.5777,-1.5517,-1.4232,-1.2484,0.0,0.0,0.0,0.0,0.0,0.0,0.0,0.0,0.0,0.0,0.0,0.0,0.0,0.0,0.0,0.0,0.0,0.0,0.0,0.0,0.0,0.0,0.0,0.0,0.0,0.0,0.0,0.0,0.0,0.0,0.0,0.0,0.0,0.0,0.0,0.0,0.0,0.0,0.0,0.0,0.0,0.0,0.0,0.0,0.0,0.0,0.0,0.0,0.0,0.0,0.0,0.0,0.0,0.0,0.0,0.0,0.0,0.0,0.0,0.0,0.0,0.0,0.0,0.0,0.0,0.0,0.0,0.0,0.0,0.0,0.0,0.0,0.0,0.0,0.0,0.0,0.0,0.0,0.0,0.0,0.0,0.0,0.0,0.0,0.0,0.0,0.0,0.0,0.0,0.0,0.0,0.0,0.0,0.0,0.0,0.0,0.0,0.0,0.0,0.0,0.0,0.0,0.0,0.0,-1.3131,-1.524,-1.5578,-1.4919,-1.4711,-1.5194,-1.3061,-1.1211,-0.9943,0.0,0.0,0.0,0.0,0.0,0.0,0.0,0.0,0.0,0.0,0.0,0.0,0.0,0.0,0.0,0.0,0.0,0.0,0.0,0.0,0.0,0.0,0.0,0.0,0.0,0.0,0.0,0.0,0.0,0.0,0.0,0.0,0.0,0.0,0.0,0.0,0.0,0.0,0.0,0.0,0.0,0.0,0.0,0.0,0.0,0.0,0.0,0.0,0.0,0.0,0.0,0.0,0.0,0.0,0.0,0.0,0.0,0.0,0.0,0.0,0.0,0.0,0.0,0.0,0.0,0.0,0.0,0.0,0.0,0.0,0.0,0.0,0.0,0.0,0.0,0.0,0.0,0.0,0.0,0.0,0.0,0.0,0.0,0.0,0.0,0.0,0.0,0.0,0.0,0.0,0.0,0.0,0.0,0.0,0.0,0.0,0.0,0.0,0.0,0.0,0.0,0.0,-1.0118,-1.2954,-1.5052,-1.5318,-1.4763,-1.4344,-1.4296,-1.3067,-1.1557,-0.9789,0.0,0.0,0.0,0.0,0.0,0.0,0.0,0.0,0.0,0.0,0.0,0.0,0.0,0.0,0.0,0.0,0.0,0.0,0.0,0.0,0.0,0.0,0.0,0.0,0.0,0.0,0.0,0.0,0.0,0.0,0.0,0.0,0.0,0.0,0.0,0.0,0.0,0.0,0.0,0.0,0.0,0.0,0.0,0.0,0.0,0.0,0.0,0.0,0.0,0.0,0.0,0.0,0.0,0.0,0.0,0.0,0.0,0.0,0.0,0.0,0.0,0.0,0.0,0.0,0.0,0.0,0.0,0.0,0.0,0.0,0.0,0.0,0.0,0.0,0.0,0.0,0.0,0.0,0.0,0.0,0.0,0.0,0.0,0.0,0.0,0.0,0.0,0.0,0.0,0.0,0.0,0.0,0.0,0.0,0.0,0.0,0.0,0.0,0.0,0.0,0.0,0.0,-1.0088,-1.2807,-1.4805,-1.5046,-1.4969,-1.4453,-1.3353,-1.3685,-1.2728,-0.9776,0.0,0.0,0.0,0.0,0.0,0.0,0.0,0.0,0.0,0.0,0.0,0.0,0.0,0.0,0.0,0.0,0.0,0.0,0.0,0.0,0.0,0.0,0.0,0.0,0.0,0.0,0.0,0.0,0.0,0.0,0.0,0.0,0.0,0.0,0.0,0.0,0.0,0.0,0.0,0.0,0.0,0.0,0.0,0.0,0.0,0.0,0.0,0.0,0.0,0.0,0.0,0.0,0.0,0.0,0.0,0.0,0.0,0.0,0.0,0.0,-0.5874,0.0,0.0,0.0,0.0,0.0,0.0,0.0,0.0,0.0,0.0,0.0,0.0,0.0,0.0,0.0,0.0,0.0,0.0,0.0,0.0,0.0,0.0,0.0,0.0,0.0,0.0,0.0,0.0,0.0,0.0,0.0,0.0,0.0,0.0,0.0,0.0,0.0,0.0,0.0,0.0,0.0,-0.9842,-1.2705,-1.4739,-1.4793,-1.4029,-1.3746,-1.4313,-1.2608,-1.1164,-1.0186,0.0,0.0,0.0,0.0,0.0,0.0,0.0,0.0,0.0,0.0,0.0,0.0,0.0,0.0,0.0,0.0,0.0,0.0,0.0,0.0,0.0,0.0,0.0,0.0,0.0,0.0,0.0,0.0,0.0,0.0,0.0,0.0,0.0,0.0,0.0,0.0,0.0,0.0,0.0,0.0,0.0,0.0,0.0,0.0,0.0,0.0,0.0,0.0,0.0,0.0,0.0,0.0,0.0,0.0,0.0,0.0,0.0,0.0,0.0,0.0,0.0,-0.6109,0.0,0.0,0.0,0.0,0.0,0.0,0.0,0.0,0.0,0.0,0.0,0.0,0.0,0.0,0.0,0.0,0.0,0.0,0.0,0.0,0.0,0.0,0.0,0.0,0.0,0.0,0.0,0.0,0.0,0.0,0.0,0.0,0.0,0.0,0.0,0.0,0.0,0.0,0.0,0.0,-0.9891,-1.2637,-1.4515,-1.4515,-1.401,-1.3509,-1.3079,-1.2211,-1.1117,-0.9678,-0.8529,0.0,0.0,0.0,0.0,0.0,0.0,0.0,0.0,0.0,0.0,0.0,0.0,0.0,0.0,0.0,0.0,0.0,0.0,0.0,0.0,0.0,0.0,0.0,0.0,0.0,0.0,0.0,0.0,0.0,0.0,0.0,0.0,0.0,0.0,0.0,0.0,0.0,0.0,0.0,0.0,0.0,0.0,0.0,0.0,0.0,0.0,0.0,0.0,0.0,0.0,0.0,0.0,0.0,0.0,-0.7252,-0.7399,-0.7399,-0.7399,-0.7412,-0.7073,-0.6885,-0.6834,0.0,0.0,0.0,0.0,0.0,0.0,0.0,0.0,0.0,0.0,0.0,0.0,0.0,0.0,0.0,0.0,0.0,0.0,0.0,0.0,0.0,0.0,0.0,0.0,0.0,-0.7306,-0.7152,0.0,0.0,0.0,0.0,0.0,0.0,0.0,0.0,0.0,0.0,0.0,0.0,-1.0026,-1.2255,-1.3757,-1.3757,-1.3757,-1.3125,-1.1609,-1.1901,-1.1298,-0.9332,-0.8577,-0.8251,0.0,0.0,0.0,0.0,0.0,0.0,0.0,0.0,0.0,0.0,0.0,0.0,0.0,0.0,0.0,0.0,0.0,0.0,0.0,0.0,0.0,0.0,0.0,0.0,0.0,0.0,0.0,0.0,0.0,0.0,0.0,0.0,-0.4673,-0.5163,0.0,0.0,0.0,0.0,0.0,0.0,0.0,0.0,0.0,0.0,0.0,0.0,0.0,0.0,-0.7185,-0.7581,-0.7755,-0.7758,-0.7967,-0.8079,-0.8092,-0.8092,-0.81,-0.8051,-0.7986,0.0,-0.7158,-0.7095,0.0,0.0,0.0,0.0,0.0,0.0,0.0,0.0,0.0,0.0,0.0,0.0,0.0,0.0,0.0,0.0,0.0,0.0,0.0,0.0,0.0,0.0,-0.7792,-0.8089,-0.8228,-0.8245,0.0,-0.717,-0.6422,-0.6179,0.0,0.0,0.0,0.0,0.0,0.0,0.0,0.0,-0.9967,-1.0966,-1.1609,-1.1609,-1.1609,-1.1853,-1.2436,-1.0974,-1.0197,-1.0688,-0.8574,-0.7238,-0.7112,-0.6329,0.0,0.0,0.0,0.0,0.0,0.0,0.0,0.0,0.0,0.0,0.0,0.0,0.0,0.0,0.0,0.0,0.0,0.0,0.0,0.0,0.0,0.0,0.0,0.0,0.0,0.0,0.0,0.0,0.0,-0.464,-0.5443,-0.5619,-0.5699,-0.5743,0.0,0.0,0.0,0.0,0.0,0.0,0.0,0.0,0.0,-0.7277,-0.7529,-0.7744,-0.7739,-0.803,-0.8179,-0.8179,-0.8288,-0.8372,-0.8435,-0.8435,-0.8435,-0.8435,-0.8435,-0.8217,-0.7845,-0.7573,-0.7228,-0.685,0.0,0.0,0.0,0.0,0.0,-0.6529,-0.6662,0.0,0.0,0.0,0.0,0.0,0.0,0.0,0.0,0.0,0.0,0.0,0.0,0.0,0.0,-0.8371,-0.8499,-0.8489,-0.8513,-0.8035,-0.7504,0.0,-0.6831,-0.6583,-0.5945,0.0,0.0,0.0,0.0,0.0,-0.9516,-1.0522,-1.1219,-1.1219,-1.1219,-1.1121,-1.0974,-1.0145,-0.9522,-0.9348,-0.819,-0.7594,-0.7845,-0.6947,-0.637,0.0,0.0,0.0,0.0,0.0,0.0,0.0,0.0,0.0,0.0,0.0,0.0,0.0,0.0,0.0,0.0,0.0,0.0,0.0,0.0,0.0,0.0,0.0,0.0,0.0,0.0,0.0,0.0,-0.5355,-0.5923,-0.6087,-0.6347,-0.6448,0.0,0.0,0.0,0.0,0.0,0.0,-0.7192,-0.7377,-0.7497,-0.7741,-0.8008,-0.8223,-0.8254,-0.8369,-0.8462,-0.8462,-0.8462,-0.8505,-0.8587,-0.8587,-0.8587,-0.8587,-0.8587,-0.8541,-0.8429,-0.8011,-0.7695,-0.7453,-0.7247,-0.7092,-0.6997,-0.7086,-0.7141,-0.7192,-0.7369,-0.741,-0.7334,-0.7035,0.0,-0.6651,-0.6042,0.0,0.0,0.0,0.0,-0.6445,-0.7346,0.0,-0.7814,-0.8545,-0.8682,-0.8628,-0.8743,-0.8648,-0.8353,0.0,-0.757,-0.7305,-0.6559,0.0,0.0,0.0,0.0,-0.8611,-0.9155,-0.99,-1.0391,-1.0391,-1.0391,-1.0145,-0.9657,-0.9361,-0.897,-0.8432,-0.8004,-0.7939,-0.8348,-0.7409,-0.6908,0.0,0.0,0.0,0.0,0.0,0.0,0.0,0.0,0.0,0.0,0.0,0.0,0.0,0.0,0.0,0.0,0.0,0.0,0.0,0.0,0.0,0.0,0.0,0.0,0.0,0.0,0.0,0.0,0.0,0.0,-0.6678,-0.6967,0.0,0.0,0.0,0.0,-0.7147,-0.7222,-0.7448,-0.7807,-0.8004,-0.8122,-0.8364,-0.8391,-0.8451,-0.856,-0.8573,-0.8579,-0.8579,-0.8579,-0.8581,-0.8587,-0.8587,-0.8587,-0.8587,-0.8587,-0.8584,-0.856,-0.8312,-0.8065,-0.7831,-0.7712,-0.7589,-0.7483,-0.7489,-0.7565,-0.7668,-0.7679,-0.7608,-0.7543,-0.7741,-0.7558,-0.7155,-0.6956,-0.6668,0.0,0.0,-0.6589,-0.6752,-0.7645,-0.7876,-0.8075,-0.8721,-0.8865,-0.8861,-0.8871,-0.8808,-0.8604,0.0,-0.8106,-0.7853,-0.7577,0.0,-0.7639,-0.853,-0.8107,-0.8005,-0.9072,-0.8574,-0.8137,-0.8137,-0.8137,-0.8528,-0.9509,-0.8676,-0.8482,-0.946,-0.8339,-0.7604,-0.7634,-0.7163,-0.6715,-0.6335,-0.5969,0.0,0.0,0.0,0.0,0.0,0.0,0.0,0.0,0.0,0.0,0.0,0.0,0.0,0.0,0.0,0.0,0.0,0.0,0.0,0.0,0.0,0.0,0.0,0.0,0.0,0.0,0.0,0.0,-0.7072,-0.7423,0.0,0.0,-0.7334,-0.7445,-0.7662,-0.7728,-0.7924,-0.8206,-0.8263,-0.8361,-0.8522,-0.8603,-0.8666,-0.8704,-0.8783,-0.8821,-0.8821,-0.8821,-0.878,-0.8706,-0.8706,-0.8663,-0.8587,-0.8587,-0.8587,-0.8581,-0.8497,-0.8367,-0.822,-0.8179,-0.8087,-0.7978,-0.7978,-0.8008,-0.8046,-0.8046,-0.8016,-0.7967,-0.7894,-0.76,-0.7263,-0.7222,-0.7065,-0.6923,-0.7046,-0.7026,-0.7172,-0.779,-0.7948,-0.8109,-0.8636,-0.8798,-0.8772,-0.8902,-0.8728,-0.8545,-0.8443,-0.8387,-0.8197,-0.7804,-0.7855,-0.7997,-0.8027,-0.7917,-0.8,-0.8392,-0.8202,-0.7988,-0.7988,-0.7988,-0.8137,-0.8531,-0.8237,-0.8142,-0.8429,-0.7983,-0.7651,-0.7461,-0.7204,-0.6902,-0.6552,-0.6152,-0.5592,0.0,0.0,0.0,0.0,0.0,0.0,0.0,0.0,0.0,0.0,0.0,0.0,0.0,0.0,0.0,0.0,0.0,0.0,0.0,0.0,0.0,0.0,0.0,0.0,0.0,0.0,-0.725,-0.7331,-0.775,-0.7899,-0.766,-0.7823,-0.7989,-0.8103,-0.8289,-0.8383,-0.8587,-0.8598,-0.8633,-0.8706,-0.8788,-0.8831,-0.8831,-0.891,-0.8882,-0.8882,-0.8882,-0.891,-0.8831,-0.8831,-0.8764,-0.8649,-0.8649,-0.8625,-0.8587,-0.8587,-0.8543,-0.8475,-0.8475,-0.8426,-0.8353,-0.8353,-0.8353,-0.8348,-0.831,-0.8296,-0.8263,-0.806,-0.7807,-0.757,-0.7529,-0.7434,-0.7347,-0.7385,-0.7339,-0.7473,-0.7901,-0.7982,-0.8075,-0.851,-0.8568,-0.8565,-0.8644,-0.8468,-0.8318,-0.8318,-0.8406,-0.8308,-0.786,-0.8136,-0.8241,-0.7796,-0.7925,-0.8116,-0.8116,-0.8022,-0.7988,-0.7988,-0.7988,-0.7988,-0.7988,-0.7941,-0.7891,-0.7892,-0.7746,-0.7597,-0.7455,-0.7204,-0.691,-0.6705,-0.6219,-0.577,-0.5322,0.0,0.0,0.0,0.0,0.0,0.0,0.0,0.0,0.0,0.0,0.0,0.0,0.0,0.0,0.0,0.0,0.0,0.0,0.0,0.0,0.0,0.0,0.0,-0.6329,-0.6824,-0.7296,-0.7487,-0.7964,-0.816,-0.7921,-0.8225,-0.8481,-0.859,-0.8709,-0.8829,-0.8876,-0.8882,-0.8882,-0.8882,-0.8887,-0.8887,-0.8887,-0.8892,-0.8892,-0.8892,-0.8892,-0.889,-0.8887,-0.8887,-0.8891,-0.8777,-0.8772,-0.8704,-0.8592,-0.859,-0.8587,-0.8587,-0.8587,-0.8587,-0.8587,-0.8587,-0.8587,-0.8571,-0.8462,-0.8421,-0.8399,-0.828,-0.8157,-0.81,-0.7974,-0.7801,-0.7687,-0.7565,-0.7529,-0.7588,-0.7935,-0.7994,-0.8052,-0.8347,-0.8302,-0.8205,-0.8196,-0.8089,-0.7992,-0.7989,-0.8163,-0.8177,-0.7843,-0.8159,-0.8384,-0.8013,-0.8157,0.0,-0.8269,-0.8136,-0.7988,-0.7988,-0.7988,-0.7988,-0.7988,-0.7902,-0.7879,-0.7968,-0.7621,-0.7444,-0.7587,-0.717,-0.6865,-0.6712,-0.6268,-0.5962,-0.5817,0.0,0.0,0.0,0.0,0.0,0.0,0.0,0.0,0.0,0.0,0.0,0.0,0.0,0.0,0.0,0.0,0.0,0.0,0.0,0.0,0.0,0.0,-0.6894,-0.6925,-0.7383,-0.7811,-0.8138,-0.8437,-0.8598,-0.853,-0.8693,-0.8749,-0.8851,-0.8883,-0.8847,-0.8882,-0.8882,-0.8882,-0.8882,-0.8968,-0.9014,-0.9014,-0.9166,-0.9207,-0.9207,-0.9207,-0.9163,-0.9014,-0.9014,-0.8949,-0.8897,-0.8807,-0.875,-0.8712,-0.8625,-0.8587,-0.8587,-0.8587,-0.8587,-0.8587,-0.8587,-0.8587,-0.8584,-0.8552,-0.8486,-0.8413,-0.8378,-0.8285,-0.8163,-0.804,-0.8043,-0.7932,-0.7809,-0.7774,-0.7834,-0.7895,-0.7955,-0.7993,-0.8144,-0.8154,-0.8137,-0.8178,-0.7989,-0.7823,-0.7736,-0.7744,-0.7798,-0.7804,-0.7917,-0.7912,-0.7716,0.0,0.0,-0.7952,-0.7979,-0.7988,-0.7988,-0.7988,-0.7988,-0.7988,-0.7951,-0.7853,0.0,-0.7604,-0.7506,-0.7438,-0.7207,-0.697,-0.6868,-0.6427,-0.6214,0.0,0.0,0.0,0.0,0.0,0.0,0.0,0.0,0.0,0.0,0.0,0.0,0.0,0.0,0.0,0.0,0.0,0.0,0.0,0.0,0.0,0.0,-0.6989,-0.7484,-0.7681,-0.7951,-0.8179,-0.8394,-0.8628,-0.8769,-0.8769,-0.8927,-0.8957,-0.8957,-0.9003,-0.9101,-0.9101,-0.9101,-0.9101,-0.9101,-0.9169,-0.9204,-0.9204,-0.9272,-0.9304,-0.9304,-0.9304,-0.9269,-0.9204,-0.9204,-0.9141,0.0,-0.8899,-0.8818,-0.8761,-0.8638,-0.8587,0.0,0.0,0.0,0.0,0.0,-0.8587,-0.8587,-0.8587,-0.8543,-0.8489,-0.8489,-0.8407,-0.8299,-0.8228,-0.8199,-0.81,-0.8029,-0.7971,-0.7872,-0.7872,-0.7872,-0.7914,-0.8027,-0.7973,-0.7943,-0.7919,-0.7715,-0.7582,-0.746,0.0,0.0,-0.7555,-0.7759,-0.7792,-0.7612,-0.7696,-0.7795,0.0,-0.7916,-0.7955,-0.7995,-0.7988,-0.7988,-0.7988,-0.7931,0.0,0.0,0.0,-0.7502,-0.7285,-0.7142,0.0,0.0,0.0,0.0,0.0,0.0,0.0,0.0,-0.6193,-0.6554,0.0,0.0,0.0,0.0,0.0,0.0,0.0,0.0,0.0,0.0,0.0,0.0,0.0,0.0,0.0,0.0,-0.7562,-0.7937,-0.8375,-0.8448,-0.8456,-0.8456,-0.8655,-0.8796,-0.881,-0.9019,-0.9155,-0.9155,-0.9247,-0.9304,-0.9304,0.0,0.0,0.0,0.0,-0.9304,-0.9304,-0.9304,-0.9304,-0.9304,-0.9304,-0.9304,-0.9304,-0.9304,-0.9247,-0.9147,-0.8954,-0.8902,-0.8783,-0.866,-0.86,-0.8587,-0.8587,-0.8587,-0.8587,-0.8587,-0.8587,0.0,0.0,0.0,0.0,-0.8587,-0.8519,-0.8435,-0.8421,-0.8258,-0.8136,-0.8119,-0.8026,-0.7872,-0.7872,-0.7872,-0.7872,-0.7872,-0.7793,-0.7687,-0.7565,-0.7442,-0.732,-0.7198,-0.7221,-0.721,-0.721,-0.7598,-0.7823,-0.7604,-0.7658,0.0,-0.7893,-0.7843,-0.7801,-0.7929,0.0,0.0,-0.7939,-0.7867,-0.7885,-0.7958,-0.777,-0.7502,-0.7183,-0.7173,-0.7173,-0.7173,-0.7156,-0.728,-0.76,-0.76,-0.7539,-0.745,-0.6767,-0.7056,0.0,0.0,0.0,0.0,0.0,0.0,0.0,0.0,0.0,0.0,0.0,0.0,0.0,0.0,0.0,-0.7391,-0.7885,-0.8345,-0.8527,-0.8638,-0.8704,-0.8704,-0.8829,-0.8954,-0.9054,-0.919,-0.9272,-0.9272,-0.9291,-0.9304,-0.9304,-0.9304,0.0,-0.9304,-0.9304,-0.9304,-0.9304,-0.9304,-0.9304,-0.9304,0.0,0.0,-0.9304,-0.9304,-0.9294,-0.9264,-0.915,-0.896,-0.8908,-0.8785,-0.8677,-0.8587,-0.8587,-0.8587,-0.8587,-0.8587,-0.8587,-0.8587,-0.8587,-0.8587,-0.8587,-0.8587,-0.8571,-0.8538,-0.8446,-0.8315,0.0,-0.8144,-0.8026,-0.7872,-0.7872,-0.7872,-0.7872,-0.7872,-0.7853,-0.7807,-0.7693,-0.757,-0.7448,-0.7326,-0.7222,-0.721,-0.721,-0.7265,-0.7324,-0.7268,-0.7382,-0.751,-0.7487,-0.7488,-0.7485,-0.7508,-0.761,-0.7696,-0.7696,-0.7865,-0.7907,-0.7862,-0.7801,-0.7743,-0.7685,-0.7682,-0.7682,-0.7682,-0.757,-0.7539,-0.76,-0.76,-0.7645,-0.7719,-0.7461,-0.741,0.0,0.0,0.0,0.0,0.0,0.0,0.0,0.0,0.0,0.0,0.0,-0.6143,-0.6758,0.0,-0.7609,-0.7909,-0.8283,-0.8543,-0.8663,-0.8783,-0.884,-0.8777,-0.8932,-0.8998,-0.9057,-0.9237,-0.9304,-0.9304,-0.9304,-0.9304,-0.9304,-0.9304,-0.9304,-0.9304,-0.9304,-0.9304,-0.9304,-0.9304,-0.9304,-0.9304,-0.9304,-0.9304,-0.9304,-0.9304,-0.9304,-0.9299,-0.9185,-0.8995,-0.8868,-0.8755,-0.8641,-0.8587,-0.8587,-0.8587,-0.8587,-0.8587,-0.8587,-0.8587,-0.8587,-0.8587,-0.8587,-0.8587,-0.8587,-0.8576,-0.8519,-0.8421,-0.8301,-0.8179,-0.8057,-0.801,-0.7947,-0.7872,-0.7872,-0.7872,-0.7872,-0.7839,-0.7725,-0.7606,-0.7483,-0.7301,-0.7239,-0.721,-0.721,-0.721,-0.721,-0.721,-0.7271,-0.7319,-0.7368,-0.7408,-0.7383,-0.7407,-0.7436,-0.7469,-0.7397,-0.7643,-0.7809,-0.788,-0.7877,-0.7889,-0.7814,-0.7811,-0.7811,-0.7811,-0.7743,-0.7743,-0.7821,-0.7821,-0.7855,-0.7874,-0.7851,-0.778,0.0,0.0,0.0,0.0,0.0,0.0,0.0,0.0,-0.4755,-0.6813,-0.7301,-0.7453,-0.775,-0.7899,-0.8081,-0.8399,-0.8549,-0.8666,-0.8788,-0.8891,-0.8847,-0.8818,-0.9,-0.9144,-0.9166,-0.925,-0.9304,-0.9304,-0.9304,-0.9304,-0.9304,-0.9304,-0.9304,-0.9304,-0.9304,-0.9304,-0.9304,-0.9304,-0.9304,-0.9304,-0.9304,-0.9304,-0.9304,-0.9304,-0.9304,-0.9299,-0.9185,-0.8995,-0.8865,-0.8715,-0.8609,-0.8587,-0.8587,-0.8587,-0.8587,-0.8587,-0.8587,-0.8587,-0.8587,-0.8587,-0.8587,-0.8587,-0.8587,-0.8587,-0.8587,-0.8508,-0.8394,-0.8205,-0.8147,-0.8089,-0.7966,-0.7872,-0.7872,-0.7872,-0.7872,-0.7845,-0.7755,-0.7622,-0.7489,-0.7333,-0.7252,-0.721,-0.721,-0.721,-0.721,-0.721,-0.721,-0.7232,-0.7351,-0.732,-0.7336,-0.7336,-0.7343,-0.7373,-0.7337,-0.7509,-0.7693,-0.7988,-0.7988,-0.7934,-0.7862,-0.7855,-0.7855,-0.7855,-0.7855,-0.7916,-0.7988,-0.7988,-0.7988,-0.7988,-0.7988,-0.7988,0.0,-0.0861,-0.211,-0.3295,-0.4201,-0.529,0.0,0.0,-0.7237,-0.7935,-0.8106,-0.8127,-0.8168,-0.8274,-0.8402,-0.8546,-0.8671,-0.8793,-0.8844,-0.8874,-0.8876,-0.8863,-0.8981,-0.9174,-0.9275,-0.9296,-0.9304,-0.9304,-0.9304,-0.9304,-0.9304,-0.9304,-0.9304,-0.9304,-0.9304,-0.9304,-0.9304,-0.9304,-0.9304,-0.9304,-0.9304,-0.9304,-0.9304,-0.9304,-0.9304,-0.9299,-0.9185,-0.8995,-0.8871,-0.8804,-0.8685,-0.8587,-0.8587,-0.8587,-0.8587,-0.8587,-0.8587,-0.8587,-0.8587,-0.8587,-0.8587,-0.8587,-0.8587,-0.8587,-0.8587,-0.8508,-0.8394,-0.8205,-0.8147,-0.8089,-0.7966,-0.7872,-0.7872,-0.7872,-0.7872,-0.7869,-0.7856,-0.7676,-0.7513,-0.75,-0.7312,-0.721,-0.721,-0.721,-0.721,-0.721,-0.721,-0.7204,-0.7249,-0.71,-0.7029,-0.7056,-0.7163,-0.7354,-0.768,-0.7664,-0.7693,-0.7988,-0.7988,-0.7982,-0.7965,-0.7965,-0.7965,-0.7965,-0.7965,-0.7971,-0.7988,-0.7988,-0.7988,-0.7988,-0.7988,-0.7988,-0.1695,-0.2616,-0.3414,0.0,-0.5374,-0.6055,-0.6773,-0.6869,-0.7118,-0.8076,-0.8342,-0.8361,-0.8429,-0.8481,-0.8554,0.0,-0.8796,-0.8918,-0.8971,-0.8987,-0.8987,-0.8987,-0.8971,-0.9003,-0.9193,-0.9204,-0.9234,-0.9299,-0.9304,-0.9304,-0.9304,-0.9304,-0.9304,-0.9304,-0.9304,-0.9304,-0.9304,-0.9304,-0.9304,-0.9304,-0.9304,-0.9304,-0.9304,-0.9304,-0.9304,-0.9299,-0.9185,-0.8995,-0.8874,-0.8821,-0.8698,-0.8587,-0.8587,-0.8587,-0.8587,-0.8587,-0.8587,-0.8587,-0.8587,-0.8587,-0.8587,-0.8587,-0.8587,-0.8587,-0.8587,-0.8554,-0.8492,-0.8375,-0.8253,-0.8133,-0.807,-0.7985,-0.7872,-0.7872,-0.7872,-0.7872,-0.7872,-0.7741,-0.7606,-0.7532,-0.7377,-0.7239,-0.7224,-0.721,-0.721,-0.721,-0.721,-0.721,-0.721,-0.7169,-0.7114,-0.6991,-0.6981,-0.7066,-0.7301,-0.7445,-0.7579,-0.7749,-0.7892,-0.7988,-0.7988,-0.7988,-0.7988,-0.7988,-0.7988,-0.7988,-0.7988,-0.7988,-0.7988,-0.7988,-0.7988,-0.7988,-0.2567,0.0,0.0,-0.5489,-0.629,-0.6788,-0.6839,-0.689,-0.7184,-0.8222,-0.8465,-0.8489,-0.8571,-0.8587,-0.8638,-0.8796,-0.8894,-0.8936,-0.916,-0.9125,-0.9014,-0.9014,-0.8876,-0.8899,-0.9022,-0.9095,-0.9182,-0.9296,-0.9304,-0.9304,-0.9304,-0.9304,-0.9304,-0.9304,-0.9304,-0.9304,-0.9304,-0.9304,-0.9304,-0.9304,-0.9304,-0.9304,-0.9304,-0.9304,-0.9304,-0.9299,-0.9217,-0.9022,-0.8876,-0.8856,-0.8728,-0.8587,-0.8587,-0.8587,-0.8587,-0.8587,-0.8587,-0.8587,-0.8587,-0.8587,-0.8587,-0.8587,-0.8587,-0.8587,-0.8587,-0.8587,-0.8562,-0.8451,-0.8329,-0.8206,-0.8087,-0.8023,-0.7872,-0.7872,-0.7872,-0.7872,-0.7872,-0.7782,-0.7674,-0.7587,-0.7442,-0.7307,-0.722,-0.7232,-0.721,-0.721,-0.721,-0.721,-0.721,-0.721,-0.718,-0.704,-0.6923,-0.6976,-0.72,-0.7367,-0.7561,-0.7816,-0.7975,-0.8102,-0.8102,-0.8012,-0.7988,-0.7988,-0.7988,-0.7988,-0.7988,-0.7988,-0.8012,-0.8102,-0.8102,-0.8123,0.0,0.0,-0.4274,-0.572,-0.7072,-0.8114,-0.8283,-0.8339,-0.8375,-0.8557,-0.8581,-0.8584,-0.8587,-0.8587,-0.8666,-0.8838,-0.8879,-0.8963,-0.9266,-0.9101,-0.8887,-0.8887,-0.8745,-0.8647,0.0,-0.8995,-0.9182,-0.9296,-0.9304,-0.9304,-0.9304,-0.9304,-0.9304,-0.9304,-0.9304,-0.9304,-0.9304,-0.9304,-0.9304,-0.9304,-0.9304,-0.9304,-0.9304,-0.9304,-0.9304,-0.9304,-0.9299,-0.9166,-0.8882,-0.8879,-0.8804,-0.8587,-0.8587,-0.8587,-0.8587,-0.8587,-0.8587,-0.8587,-0.8587,-0.8587,-0.8587,-0.8587,-0.8587,-0.8587,-0.8587,-0.8587,-0.8562,-0.8451,-0.8329,-0.8206,-0.8087,-0.8023,-0.7872,-0.7872,-0.7872,-0.7872,-0.7872,-0.7782,-0.7701,-0.7698,-0.75,-0.7277,-0.7274,-0.7233,-0.721,-0.721,-0.721,-0.721,-0.721,-0.721,-0.721,-0.7204,-0.7048,-0.7191,-0.772,-0.7662,-0.7849,-0.8416,-0.834,-0.8313,-0.8313,-0.8119,-0.7988,-0.7988,-0.7988,-0.7988,-0.7988,-0.7988,-0.8116,-0.8313,-0.8313,-0.8336,-0.2677,0.0,-0.4725,-0.6931,-0.7975,-0.8429,-0.8511,-0.853,-0.8519,-0.8484,-0.8475,-0.8451,-0.8369,-0.8418,-0.8527,-0.8685,-0.8845,-0.8938,-0.9169,-0.9122,-0.8973,-0.8892,-0.8807,0.0,0.0,0.0,0.0,-0.9177,-0.919,-0.9261,-0.9416,-0.9424,-0.9424,-0.9424,-0.9424,-0.9386,-0.9304,-0.9304,-0.9304,-0.9304,-0.9304,-0.9304,-0.9304,-0.9304,-0.9304,-0.9304,-0.9304,-0.9169,-0.8882,-0.8882,-0.8807,-0.8587,-0.8587,-0.8587,-0.8587,-0.8587,-0.8587,-0.8587,-0.8587,-0.8587,-0.8587,-0.8587,-0.8587,-0.8587,-0.8587,-0.8587,-0.8579,-0.8541,-0.8446,-0.8329,-0.8206,-0.8084,-0.8034,-0.7891,-0.7872,-0.7872,-0.7872,-0.7842,-0.7793,-0.7717,-0.757,-0.7432,-0.7293,-0.7236,-0.721,-0.721,-0.721,-0.721,-0.721,-0.721,-0.721,-0.721,-0.7346,-0.7451,-0.7528,-0.786,-0.8115,-0.823,-0.8334,-0.8411,-0.8411,-0.8269,-0.8194,-0.8194,-0.8092,-0.8089,-0.8194,-0.8194,-0.8269,-0.8411,-0.8411,-0.8435,-0.3269,-0.4119,-0.4936,-0.7596,-0.8446,-0.8587,-0.8587,-0.8557,-0.8505,-0.8435,-0.8348,-0.8263,-0.8185,-0.8198,-0.8288,-0.8494,-0.8693,-0.8894,-0.9106,-0.9133,-0.9035,-0.8957,-0.891,0.0,0.0,0.0,0.0,-0.912,-0.9171,-0.928,-0.9476,-0.9487,-0.9506,-0.9549,-0.9508,-0.9449,-0.937,-0.9326,-0.9304,-0.9304,-0.9304,-0.9304,-0.9304,-0.9304,-0.9304,-0.9304,-0.9304,-0.9196,-0.8944,-0.89,-0.8834,-0.8647,-0.8603,-0.8587,-0.8587,-0.8587,-0.8587,-0.8587,-0.8587,-0.8587,-0.8587,-0.8587,-0.8587,-0.8587,-0.8587,-0.8587,-0.8587,-0.8587,-0.8505,-0.8391,-0.8202,-0.8144,-0.8086,-0.796,-0.7872,-0.7872,-0.7872,-0.7872,-0.785,-0.7777,-0.7665,-0.7546,-0.7421,-0.7263,-0.721,-0.721,-0.721,-0.721,-0.721,-0.721,-0.721,-0.721,-0.7438,-0.7628,-0.7598,-0.8083,-0.8371,-0.8387,-0.8488,-0.8564,-0.8564,-0.8425,-0.8347,-0.8347,-0.8248,-0.8248,-0.8347,-0.8347,-0.8421,-0.8564,-0.8564,-0.8594,-0.329,-0.407,-0.4828,-0.7582,-0.8376,-0.8518,-0.8579,-0.8494,-0.8413,-0.8394,-0.8201,-0.8095,0.0,0.0,-0.7978,-0.8331,-0.8508,-0.872,-0.9076,-0.9136,-0.9141,0.0,0.0,0.0,0.0,0.0,0.0,-0.9133,0.0,-0.9359,-0.9489,-0.9503,-0.9557,-0.9674,-0.956,-0.9495,-0.9487,-0.9367,-0.9304,-0.9304,-0.9304,-0.9304,-0.9304,-0.9304,-0.9304,-0.9304,-0.9304,-0.9239,-0.9125,-0.8933,-0.888,-0.8758,-0.8636,-0.8587,-0.8587,-0.8587,-0.8587,-0.8587,-0.8587,-0.8587,-0.8587,-0.8587,-0.8587,-0.8587,-0.8587,-0.8587,-0.8587,-0.8587,-0.8511,-0.8399,-0.8277,-0.8155,-0.8095,-0.7971,-0.7875,-0.7872,-0.7872,-0.7872,-0.7872,-0.7872,-0.778,-0.766,-0.7532,-0.7317,-0.7218,-0.7213,-0.721,-0.721,-0.721,-0.721,-0.721,-0.721,-0.7438,-0.7715,-0.7989,-0.8318,-0.8598,-0.8881,-0.8801,-0.8723,-0.8723,-0.8574,-0.8492,-0.8492,-0.8486,-0.8486,-0.8492,-0.8492,-0.857,-0.8723,-0.8723,-0.8801,-0.2128,-0.2631,-0.3332,-0.6181,-0.696,-0.7229,-0.8215,-0.844,-0.8339,-0.8068,-0.7894,-0.7736,0.0,0.0,0.0,-0.7981,-0.8413,0.0,-0.8903,-0.915,0.0,-0.9144,0.0,-0.9144,-0.8898,-0.9111,0.0,0.0,-0.9288,-0.9397,-0.9612,-0.9704,-0.9761,-0.9794,-0.9682,-0.9579,-0.9489,-0.9367,-0.9304,-0.9304,-0.9304,-0.9304,-0.9304,-0.9304,-0.9304,-0.9304,-0.9304,-0.9239,-0.9125,-0.8933,-0.888,-0.8758,-0.8636,-0.8587,-0.8587,-0.8587,-0.8587,-0.8587,-0.8587,-0.8587,-0.8587,-0.8587,-0.8587,-0.8587,-0.8587,-0.8587,-0.8587,-0.8587,-0.8565,-0.8516,-0.8402,-0.828,-0.8157,-0.81,-0.7999,-0.7872,-0.7872,-0.7872,-0.7872,-0.7872,-0.778,-0.7633,-0.7418,-0.7331,-0.7258,-0.7224,-0.721,-0.721,-0.721,-0.721,-0.721,-0.721,-0.7438,-0.7715,-0.7989,-0.8318,-0.8598,-0.8881,-0.8848,-0.8824,-0.8824,-0.8733,-0.8652,-0.8652,-0.854,-0.8537,-0.8652,-0.8652,-0.873,-0.8824,-0.8824,-0.8848,-0.1741,-0.2103,-0.2661,-0.4889,-0.5971,-0.6465,-0.6556,-0.7061,-0.7255,-0.6381,-0.6504,0.0,0.0,0.0,0.0,0.0,0.0,0.0,-0.8844,-0.9111,-0.9245,0.0,-0.9345,0.0,-0.9275,-0.9386,-0.9465,0.0,-0.9416,-0.9489,-0.9731,-0.9802,-0.9862,-0.9916,-0.9805,-0.9661,-0.9489,-0.9367,-0.9304,-0.9304,-0.9304,-0.9304,-0.9304,-0.9304,-0.9304,-0.9304,0.0,-0.9266,-0.9196,-0.8954,-0.891,-0.8834,-0.8655,-0.8587,-0.8587,-0.8587,-0.8587,-0.8587,-0.8587,-0.8587,-0.8587,-0.8587,-0.8587,-0.8587,-0.8587,-0.8587,-0.8587,-0.8587,-0.8587,-0.856,-0.8448,-0.8367,-0.8272,-0.8158,-0.8065,-0.7999,-0.7944,-0.7872,-0.7872,-0.7872,-0.778,-0.7657,-0.7519,-0.7451,-0.7375,-0.7252,-0.7233,-0.7214,-0.7218,-0.721,-0.721,-0.721,-0.7438,-0.766,-0.7826,-0.81,-0.8432,-0.8712,-0.8712,-0.8768,-0.8881,-0.8801,-0.8811,-0.8811,-0.8726,-0.8723,-0.8811,-0.8811,-0.8801,-0.8885,-0.8885,-0.8885,-0.1513,-0.1799,-0.2151,-0.3624,-0.4959,-0.5563,-0.4512,-0.5148,-0.5614,-0.4313,0.0,-0.5318,-0.5183,-0.6241,-0.7198,-0.7472,0.0,-0.8337,-0.8814,-0.8987,-0.9223,-0.9459,-0.95,-0.9552,-0.9661,-0.9685,-0.9693,-0.9693,-0.9593,-0.9622,-0.9826,-0.9854,-0.9897,-0.997,-0.987,-0.9701,-0.9465,-0.9356,-0.9304,-0.9304,-0.9304,-0.9304,-0.9304,-0.9304,-0.9304,-0.9304,0.0,0.0,-0.9285,-0.8979,-0.8882,-0.8857,-0.8682,-0.8587,-0.8587,-0.8587,-0.8587,-0.8587,-0.8587,-0.8587,-0.8587,-0.8587,-0.8587,-0.8587,-0.8587,-0.8587,-0.8587,-0.8587,-0.8587,-0.8565,-0.8467,-0.8429,-0.8361,-0.8133,-0.8128,-0.8081,-0.7958,-0.7872,-0.7872,-0.7872,-0.7793,-0.772,-0.7703,-0.7614,-0.7502,-0.732,-0.7288,-0.7298,-0.7248,-0.7221,-0.721,-0.721,-0.7382,-0.7551,-0.7607,-0.7826,-0.81,-0.8484,-0.8484,-0.8598,-0.8881,-0.8881,-0.8881,-0.8885,-0.8885,-0.8885,-0.8885,-0.8885,-0.8885,-0.8885,-0.8885,-0.8885,-0.0267,-0.0336,-0.0673,-0.2151,-0.2664,-0.3077,-0.3931,-0.4329,0.0,0.0,0.0,-0.5044,-0.5029,-0.6016,0.0,-0.7448,0.0,0.0,0.0,0.0,-0.9223,0.0,0.0,0.0,0.0,0.0,0.0,0.0,0.0,0.0,-0.9835,-0.9932,-0.9911,-0.9737,-0.9709,-0.9582,-0.9337,-0.9315,-0.9304,-0.9304,-0.9304,-0.9304,-0.9304,-0.9304,-0.9304,-0.9304,0.0,0.0,-0.9285,-0.8979,-0.8882,-0.8857,-0.8682,-0.8587,-0.8587,-0.8587,-0.8587,-0.8587,-0.8587,-0.8587,-0.8587,-0.8587,-0.8587,-0.8587,-0.8587,-0.8587,-0.8587,-0.8587,-0.8587,-0.8584,-0.8562,-0.8489,-0.838,-0.8239,-0.8127,-0.8081,-0.7958,-0.7872,-0.7872,-0.7872,-0.7856,-0.7812,-0.7717,-0.7684,-0.7627,-0.7505,-0.7342,-0.7271,-0.7307,-0.7217,-0.721,-0.721,-0.7265,-0.7379,-0.7607,-0.7662,-0.7881,-0.8484,-0.8263,-0.8325,-0.8881,-0.8712,-0.8657,-0.8881,-0.8885,-0.8885,-0.8885,-0.8885,-0.8885,-0.8885,-0.8885,-0.8885,0.0,0.0,-0.0135,-0.0807,-0.153,-0.2078,-0.1971,0.0,0.0,0.0,0.0,-0.3213,-0.3133,0.0,0.0,0.0,0.0,0.0,0.0,0.0,0.0,0.0,0.0,0.0,0.0,0.0,0.0,0.0,0.0,0.0,-0.9932,-0.9927,-0.9875,-0.9761,-0.9639,-0.9516,-0.94,-0.9337,-0.9304,-0.9304,-0.9304,-0.9304,-0.9304,-0.9304,-0.9304,-0.9304,0.0,0.0,-0.9285,-0.8979,-0.8882,-0.8857,-0.8682,-0.8587,-0.8587,-0.8587,-0.8587,-0.8587,-0.8587,-0.8587,-0.8587,-0.8587,-0.8587,-0.8587,-0.8587,-0.8587,-0.8587,-0.8587,-0.8587,-0.8587,-0.8587,-0.8546,-0.8475,-0.8359,-0.8187,-0.8081,-0.7958,-0.7872,-0.7872,-0.7872,-0.7872,-0.7853,-0.7799,-0.7788,-0.775,-0.763,-0.7565,-0.7502,-0.7437,-0.7326,-0.7225,-0.7218,-0.721,-0.7265,-0.7379,-0.7379,-0.7601,-0.7992,-0.7881,-0.8048,-0.8654,-0.8543,-0.8598,-0.8881,-0.8885,-0.8885,-0.8885,-0.8885,-0.8885,-0.8885,-0.8885,-0.8885,0.0,0.0,0.0,0.0,-0.0863,-0.1353,-0.0241,-0.0859,0.0,0.0,-0.0816,-0.1547,-0.1442,0.0,0.0,0.0,0.0,0.0,0.0,0.0,0.0,0.0,0.0,0.0,0.0,0.0,0.0,0.0,0.0,0.0,0.0,-0.9889,-0.9815,-0.9764,-0.9584,-0.9473,-0.9449,-0.9351,-0.9304,-0.9304,-0.9304,-0.9304,-0.9304,-0.9304,-0.9304,-0.9304,0.0,0.0,0.0,-0.8968,-0.8865,-0.8891,-0.8674,-0.8587,-0.8587,-0.8587,-0.8587,-0.8587,-0.8587,-0.8587,-0.8587,-0.8587,-0.8587,-0.8587,-0.8587,-0.8587,-0.8587,-0.8587,-0.8587,-0.8587,-0.8587,-0.8587,-0.8552,-0.8413,-0.8212,-0.8081,-0.7958,-0.7872,-0.7872,-0.7872,-0.7872,-0.7872,-0.7872,-0.7872,-0.7842,-0.775,-0.7717,-0.7665,-0.757,-0.7451,-0.7339,-0.7241,-0.724,-0.721,-0.721,-0.721,-0.7324,-0.7607,-0.7551,-0.7826,-0.8484,-0.8429,-0.8543,-0.8881,-0.8885,-0.8885,-0.8885,-0.8885,-0.8885,-0.8885,-0.8885,-0.8885,0.0,0.0,0.0,0.0,-0.0066,-0.0128,0.0,0.0,0.0,-0.005,-0.0751,-0.1459,-0.1556,-0.3387,0.0,0.0,0.0,0.0,0.0,0.0,0.0,0.0,0.0,0.0,0.0,0.0,0.0,0.0,0.0,0.0,0.0,-0.9843,-0.9739,-0.9525,-0.9497,-0.9432,-0.9321,-0.931,-0.9304,-0.9304,-0.9304,-0.9304,-0.9304,-0.9304,-0.9304,-0.9304,0.0,0.0,0.0,-0.8936,-0.8886,-0.8772,-0.8638,-0.8587,-0.8587,-0.8587,-0.8587,-0.8587,-0.8587,-0.8587,-0.8587,-0.8587,-0.8587,-0.8587,-0.8587,-0.8587,-0.8587,-0.8587,-0.8587,-0.8587,-0.8587,-0.8587,-0.853,-0.8304,-0.8149,-0.8081,-0.7958,-0.7872,-0.7872,-0.7872,-0.7872,-0.7872,-0.7872,-0.7872,-0.7867,-0.7856,-0.7769,-0.7698,-0.7687,-0.7578,-0.7497,-0.7486,-0.7285,-0.721,-0.721,-0.721,-0.7324,-0.7607,-0.7379,-0.7598,-0.8484,-0.8211,-0.8325,-0.8881,-0.8885,-0.8885,-0.8885,-0.8885,-0.8885,-0.8885,-0.8885,-0.8885,0.0,0.0,0.0,0.0,0.0,0.0,0.0,0.0,0.0,0.0,-0.0279,-0.0589,-0.0605,-0.1881,-0.3196,0.0,0.0,0.0,0.0,0.0,0.0,0.0,0.0,0.0,0.0,0.0,0.0,0.0,0.0,0.0,0.0,-0.9628,-0.9584,-0.9489,-0.9416,-0.9353,-0.9304,-0.9304,-0.9304,-0.9304,-0.9304,-0.9304,-0.9304,-0.9304,-0.9304,-0.9304,0.0,0.0,0.0,-0.8933,-0.888,-0.8758,-0.8636,-0.8587,-0.8587,-0.8587,-0.8587,-0.8587,-0.8587,-0.8587,-0.8587,-0.8587,-0.8587,-0.8587,-0.8587,-0.8587,-0.8587,-0.8587,-0.8587,-0.8587,-0.8587,-0.8587,-0.8546,-0.8383,-0.8253,-0.813,-0.807,-0.7985,-0.7872,-0.7872,-0.7872,-0.7872,-0.7872,-0.7872,-0.7872,-0.7872,-0.7834,-0.7804,-0.7804,-0.7701,-0.7627,-0.7627,-0.7475,-0.7372,-0.7372,-0.7372,-0.7432,-0.7549,-0.7361,-0.7489,-0.8048,-0.7865,-0.7937,-0.8325,-0.8546,-0.8654,-0.8654,-0.8826,-0.8885,-0.8885,-0.8885,-0.8984,0.0,0.0,0.0,0.0,0.0,0.0,0.0,0.0,0.0,0.0,0.0,0.0,0.0,-0.0882,-0.1896,0.0,0.0,0.0,0.0,0.0,0.0,0.0,0.0,0.0,0.0,0.0,0.0,0.0,0.0,0.0,0.0,0.0,-0.9432,-0.9432,-0.9348,-0.9304,-0.9304,-0.9304,-0.9304,-0.9304,-0.9304,-0.9304,-0.9304,-0.9304,-0.9285,0.0,0.0,0.0,0.0,-0.8935,-0.8826,-0.8706,-0.8622,-0.8587,-0.8587,-0.8587,-0.8587,-0.8587,-0.8587,-0.8587,-0.8587,-0.8587,-0.8587,-0.8587,-0.8587,-0.8587,-0.8587,-0.8587,-0.8587,-0.8587,-0.8587,-0.8587,-0.856,-0.8446,-0.8353,-0.8247,-0.8149,-0.8048,-0.7977,-0.7877,-0.7872,-0.7872,-0.7872,-0.7872,-0.7872,-0.7872,-0.7872,-0.7872,-0.7872,-0.7801,-0.775,-0.775,-0.7676,-0.7595,-0.7524,-0.7519,-0.7519,-0.7519,-0.7437,-0.7503,-0.7844,-0.7725,-0.7771,-0.805,-0.8273,-0.8437,-0.8437,-0.8765,-0.8901,-0.8901,-0.9013,-0.9123,0.0,0.0,0.0,0.0,0.0,0.0,0.0,0.0,0.0,0.0,0.0,0.0,0.0,-0.0893,-0.1639,-0.1803,0.0,0.0,0.0,0.0,0.0,0.0,0.0,0.0,0.0,0.0,0.0,0.0,0.0,0.0,0.0,0.0,-0.9304,-0.9304,-0.9304,-0.9304,-0.9304,-0.9304,-0.9304,-0.9304,-0.9304,-0.9304,-0.9304,-0.9304,0.0,0.0,0.0,0.0,0.0,-0.8774,-0.8701,-0.859,-0.8587,-0.8587,-0.8587,-0.8587,-0.8587,-0.8587,-0.8587,-0.8587,-0.8587,-0.8587,-0.8587,-0.8587,-0.8587,-0.8587,-0.8587,-0.8587,-0.8587,-0.8587,-0.8587,-0.8587,-0.856,-0.8446,-0.8416,-0.835,-0.8169,-0.8114,-0.8078,-0.7955,-0.7872,-0.7872,-0.7872,-0.7872,-0.7872,-0.7872,-0.7872,-0.7872,-0.7872,-0.7869,-0.7869,-0.7869,-0.7869,-0.7771,-0.7538,-0.7519,-0.7519,-0.7519,-0.7516,-0.7633,-0.7979,-0.7855,-0.7903,-0.8193,-0.8193,-0.8193,-0.8193,-0.8672,-0.8913,-0.8913,-0.9262,-0.9378,0.0,0.0,0.0,0.0,0.0,0.0,0.0,0.0,0.0,0.0,0.0,0.0,0.0,-0.0276,-0.0752,-0.1523,-0.1386,0.0,0.0,0.0,0.0,0.0,0.0,0.0,0.0,0.0,0.0,0.0,0.0,0.0,0.0,0.0,-0.9304,-0.9304,-0.9304,-0.9304,-0.9304,-0.9304,-0.9304,-0.9304,-0.9304,-0.9264,-0.9188,-0.9188,0.0,0.0,0.0,0.0,0.0,-0.8769,-0.8698,-0.8587,-0.8587,-0.8587,-0.8587,-0.8587,-0.8587,-0.8587,-0.8587,-0.8587,-0.8587,-0.8587,-0.8587,-0.8587,-0.8587,-0.8587,-0.8587,-0.8587,-0.8587,-0.8587,-0.8587,-0.8587,-0.8579,-0.8543,-0.8475,-0.8375,-0.8212,-0.8111,-0.8078,-0.7955,-0.7872,-0.7872,-0.7872,-0.7872,-0.7872,-0.7872,-0.7872,-0.7872,-0.7872,-0.7872,-0.7872,-0.7872,-0.7872,-0.7842,-0.7766,-0.7761,-0.7761,-0.7761,-0.7687,-0.7703,-0.7762,-0.7641,-0.7635,-0.7693,-0.7922,-0.8037,-0.8037,-0.8375,-0.8687,-0.892,-0.9313,-0.9537,0.0,0.0,0.0,0.0,0.0,0.0,0.0,0.0,0.0,0.0,0.0,0.0,0.0,0.0,-0.0232,-0.0895,-0.0451,0.0,0.0,0.0,0.0,0.0,0.0,0.0,0.0,0.0,0.0,0.0,0.0,0.0,0.0,0.0,-0.9304,-0.9304,-0.9304,-0.9304,-0.9304,-0.9304,-0.9283,-0.9239,-0.9239,-0.9179,-0.8995,0.0,0.0,0.0,0.0,0.0,0.0,-0.8701,-0.8658,-0.8587,-0.8587,-0.8587,-0.8587,-0.8587,-0.8587,-0.8587,-0.8587,-0.8587,-0.8587,-0.8587,-0.8587,-0.8587,-0.8587,-0.8587,-0.8587,-0.8587,-0.8587,-0.8587,-0.8587,-0.8587,-0.8587,-0.8587,-0.8532,-0.8437,-0.8272,-0.8176,-0.8073,-0.7902,-0.7872,-0.7872,-0.7872,-0.7872,-0.7872,-0.7872,-0.7872,-0.7872,-0.7872,-0.7872,-0.7872,-0.7872,-0.7872,-0.7872,-0.7872,-0.7872,-0.7872,-0.7872,-0.7804,-0.7766,-0.7766,-0.7652,-0.7587,-0.7587,-0.7763,-0.7881,-0.7881,-0.8225,-0.8607,-0.9081,-0.9347,-0.957,0.0,0.0,0.0,0.0,0.0,0.0,0.0,0.0,0.0,0.0,0.0,0.0,0.0,0.0,0.0,0.0,0.0,0.0,0.0,0.0,0.0,0.0,0.0,0.0,0.0,0.0,0.0,0.0,0.0,0.0,0.0,0.0,0.0,-0.9294,-0.9291,-0.9291,-0.9291,-0.9291,-0.9234,-0.9052,-0.9052,-0.8987,-0.8871,0.0,0.0,0.0,0.0,0.0,0.0,-0.8587,-0.8587,-0.8587,-0.8587,-0.8587,-0.8587,-0.8587,-0.8587,-0.8587,-0.8587,-0.8587,-0.8587,-0.8587,-0.8587,-0.8587,-0.8587,-0.8587,-0.8587,-0.8587,-0.8587,-0.8587,-0.8587,-0.8587,-0.8587,-0.8587,-0.8587,-0.8524,-0.8296,-0.8178,-0.8166,-0.7929,-0.7877,-0.7872,-0.7872,-0.7872,-0.7872,-0.7872,-0.7872,-0.7872,-0.7872,-0.7872,-0.7872,-0.7872,-0.7872,-0.7872,-0.7872,-0.7872,-0.7872,-0.7872,-0.7872,-0.7872,-0.7872,-0.7769,-0.7714,-0.7714,-0.7714,-0.7714,-0.7714,-0.819,-0.8671,-0.9214,-0.9275,-0.9457,0.0,0.0,0.0,0.0,0.0,0.0,0.0,0.0,0.0,0.0,0.0,0.0,0.0,0.0,0.0,0.0,0.0,0.0,0.0,0.0,0.0,0.0,0.0,0.0,0.0,0.0,0.0,0.0,0.0,0.0,0.0,0.0,0.0,-0.9177,-0.9174,-0.9174,-0.9174,-0.9174,-0.9114,-0.8925,-0.8925,-0.8932,-0.8812,0.0,0.0,0.0,0.0,0.0,-0.8587,-0.8587,-0.8587,-0.8587,-0.8587,-0.8587,-0.8587,-0.8587,-0.8587,-0.8587,-0.8587,-0.8587,-0.8587,-0.8587,-0.8587,-0.8587,-0.8587,-0.8587,-0.8587,-0.8587,-0.8587,-0.8587,-0.8587,-0.8587,-0.8587,-0.8587,-0.8587,-0.8549,-0.8405,-0.8301,-0.819,-0.8103,-0.7996,-0.7872,-0.7872,-0.7872,-0.7872,-0.7872,-0.7872,-0.7872,-0.7872,-0.7872,-0.7872,-0.7872,-0.7872,-0.7872,-0.7872,-0.7872,-0.7872,-0.7872,-0.7872,-0.7872,-0.7872,-0.7845,-0.7831,-0.7831,-0.7831,-0.7831,-0.7831,-0.823,-0.8491,-0.861,-0.9095,-0.9335,0.0,0.0,0.0,0.0,0.0,0.0,0.0,0.0,0.0,0.0,0.0,0.0,0.0,0.0,0.0,0.0,0.0,0.0,0.0,0.0,0.0,0.0,0.0,0.0,0.0,0.0,0.0,0.0,0.0,0.0,0.0,0.0,0.0,0.0,-0.8695,-0.8979,-0.8979,-0.8979,-0.8989,-0.8867,-0.8867,-0.8804,-0.8685,0.0,0.0,0.0,0.0,0.0,-0.8587,-0.8587,-0.8587,-0.8587,-0.8587,-0.8587,-0.8587,-0.8587,-0.8587,-0.8587,-0.8587,-0.8587,-0.8587,-0.8587,-0.8587,-0.8587,-0.8587,-0.8587,-0.8587,-0.8587,-0.8587,-0.8587,-0.8587,-0.8587,-0.8587,-0.8587,-0.8587,-0.8557,-0.8443,-0.8367,-0.8266,-0.8152,-0.8062,-0.7999,-0.788,-0.7872,-0.7872,-0.7872,-0.7872,-0.7872,-0.7872,-0.7872,-0.7872,-0.7872,-0.7872,-0.7872,-0.7872,-0.7872,-0.7872,-0.7872,-0.7872,-0.7872,-0.7872,-0.7872,-0.7872,-0.7872,-0.7872,-0.7872,-0.7872,-0.8058,-0.8244,-0.843,-0.8732,-0.8976,0.0,0.0,0.0,0.0,0.0,0.0,0.0,0.0,0.0,0.0,0.0,0.0,0.0,0.0,0.0,0.0,0.0,0.0,0.0,0.0,0.0,0.0,0.0,0.0,0.0,0.0,0.0,0.0,0.0,0.0,0.0,0.0,0.0,0.0,-0.7597,-0.8216,-0.8201,-0.8636,-0.8861,-0.8742,-0.8742,-0.8687,-0.8587,-0.8587,0.0,0.0,0.0,0.0,-0.8587,-0.8587,-0.8587,-0.8587,-0.8587,-0.8587,-0.8587,-0.8587,-0.8587,-0.8587,-0.8587,-0.8587,-0.8587,-0.8587,-0.8587,-0.8587,-0.8587,-0.8587,-0.8587,-0.8587,-0.8587,-0.8587,-0.8587,-0.8587,-0.8587,-0.8587,-0.8587,-0.856,-0.8465,-0.8432,-0.8356,-0.8149,-0.8141,-0.8084,-0.798,-0.7883,-0.7872,-0.7872,-0.7872,-0.7872,-0.7872,-0.7872,-0.7872,-0.7872,-0.7872,-0.7872,-0.7872,-0.7872,-0.7872,-0.7872,-0.7872,-0.7872,-0.7872,-0.7872,-0.7872,-0.7872,-0.7872,-0.7872,-0.7872,-0.7872,-0.8058,-0.8308,-0.8369,-0.8552,0.0,0.0,0.0,0.0,0.0,0.0,0.0,0.0,0.0,0.0,0.0,0.0,0.0,0.0,0.0,0.0,0.0,0.0,0.0,0.0,0.0,0.0,0.0,0.0,0.0,0.0,0.0,0.0,0.0,0.0,0.0,0.0,0.0,0.0,0.0,-0.5125,-0.4996,-0.7514,-0.8736,-0.8617,-0.8617,-0.8606,-0.8587,-0.8587,-0.8587,0.0,0.0,-0.8587,-0.8587,-0.8587,-0.8587,-0.8587,-0.8587,-0.8587,-0.8587,-0.8587,-0.8587,-0.8587,-0.8587,-0.8587,-0.8587,-0.8587,-0.8587,-0.8587,-0.8587,-0.8587,-0.8587,-0.8587,-0.8587,-0.8587,-0.8587,-0.8587,-0.8587,-0.8587,-0.8587,-0.8584,-0.8565,-0.8486,-0.8407,-0.8369,-0.8195,-0.8111,-0.8092,-0.8002,-0.7872,-0.7872,-0.7872,-0.7872,-0.7872,-0.7872,-0.7872,-0.7872,-0.7872,-0.7872,-0.7872,-0.7872,-0.7872,-0.7872,-0.7872,-0.7872,-0.7872,-0.7872,-0.7872,-0.7872,-0.7872,-0.7872,-0.7872,-0.7872,-0.7933,-0.7994,-0.8244,-0.843,0.0,0.0,0.0,0.0,0.0,0.0,0.0,0.0,0.0,0.0,0.0,0.0,0.0,0.0,0.0,0.0,0.0,0.0,0.0,0.0,0.0,0.0,0.0,0.0,0.0,0.0,0.0,0.0,0.0,0.0,0.0,0.0,0.0,0.0,0.0,0.0,-0.3089,-0.5267,-0.6345,-0.6303,-0.6303,-0.6303,-0.6303,-0.6303,-0.6303,0.0,0.0,-0.6706,-0.7381,-0.7381,-0.7851,-0.8587,-0.8587,-0.8587,-0.8587,-0.8587,-0.8587,-0.8587,-0.8587,-0.8587,-0.8587,-0.8587,-0.8587,-0.8587,-0.8587,-0.8587,-0.8587,-0.8587,-0.8587,-0.8587,-0.8587,-0.8587,-0.8587,-0.8587,-0.8587,-0.8587,-0.8587,-0.8546,-0.8492,-0.8429,-0.8326,-0.8209,-0.8139,-0.807,-0.801,-0.788,-0.7872,-0.7872,-0.7872,-0.7872,-0.7872,-0.7872,-0.7872,-0.7872,-0.7872,-0.7872,-0.7872,-0.7872,-0.7872,-0.7872,-0.7872,-0.7872,-0.7872,-0.7872,-0.7872,-0.7872,-0.7872,-0.7872,-0.7872,-0.7933,-0.8058,-0.8119,0.0,0.0,0.0,0.0,0.0,0.0,0.0,0.0,0.0,0.0,0.0,0.0,0.0,0.0,0.0,0.0,0.0,0.0,0.0,0.0,0.0,0.0,0.0,0.0,0.0,0.0,0.0,0.0,0.0,0.0,0.0,0.0,0.0,0.0,0.0,0.0,-0.1614,-0.2753,-0.3624,-0.4293,-0.4293,-0.4293,-0.4293,-0.4293,-0.4293,-0.4293,-0.4293,-0.4897,-0.5904,-0.5904,-0.6575,-0.7579,-0.7579,-0.7579,-0.7579,-0.7579,-0.7579,-0.7579,-0.7579,-0.7579,-0.7579,-0.7579,-0.7579,-0.7579,-0.7579,-0.7579,-0.7646,-0.7984,-0.7848,-0.7779,-0.8451,-0.8587,-0.8587,-0.8587,-0.8318,-0.8117,-0.8117,-0.7848,-0.7557,-0.7478,-0.7444,-0.737,-0.7178,-0.7125,-0.707,-0.6964,-0.6947,-0.6947,-0.6947,-0.7255,-0.7441,-0.7441,-0.7686,-0.7872,-0.7872,-0.7872,-0.7872,-0.7872,-0.7872,-0.7872,-0.7872,-0.7872,-0.7872,-0.7872,-0.7872,-0.7872,-0.7872,-0.7872,-0.7872,-0.7872,-0.7872,-0.7872,0.0,0.0,0.0,0.0,0.0,0.0,0.0,0.0,0.0,0.0,0.0,0.0,0.0,0.0,0.0,0.0,0.0,0.0,0.0,0.0,0.0,0.0,0.0,0.0,0.0,0.0,0.0,0.0,0.0,0.0,0.0,0.0,0.0,0.0,0.0,0.0,-0.0135,-0.0269,-0.168,-0.4293,-0.4293,-0.4293,-0.4293,-0.4293,-0.4293,-0.4293,-0.4293,-0.4361,-0.4427,-0.4427,-0.4495,-0.4629,-0.4629,-0.4629,-0.4629,-0.4629,-0.4629,-0.4629,-0.4629,-0.4629,-0.4629,-0.4629,-0.4629,-0.4629,-0.4629,-0.4629,-0.4897,-0.6174,-0.5635,-0.5232,-0.7915,-0.8587,-0.8587,-0.8587,-0.7581,-0.6577,-0.6577,-0.5501,-0.4626,-0.4622,-0.451,-0.4384,-0.4381,-0.4254,-0.4194,-0.4192,-0.4183,-0.4183,-0.4183,-0.5289,-0.6031,-0.6031,-0.7133,-0.7872,-0.7872,-0.7872,-0.7872,-0.7872,-0.7872,-0.7872,-0.7872,-0.7872,-0.7872,-0.7872,-0.7872,-0.7872,-0.7872,-0.7872,-0.7872,-0.7872,-0.7872,-0.7872,0.0,0.0,0.0,0.0,0.0,0.0,0.0,0.0,0.0,0.0,0.0,0.0,0.0,0.0,0.0,0.0,0.0,0.0,0.0,0.0,0.0,0.0,0.0,0.0,0.0,0.0,0.0,0.0,0.0,0.0,0.0,0.0,0.0,0.0,0.0,0.0,0.0,0.0,-0.0538,-0.1613,-0.1613,-0.1613,-0.1613,-0.1613,-0.1613,-0.1613,-0.1613,-0.215,-0.2955,-0.2955,-0.3491,-0.4293,-0.4293,-0.4293,-0.4293,-0.4293,-0.4293,-0.4293,-0.4293,-0.4293,-0.4293,-0.4293,-0.4293,-0.4293,-0.4293,-0.4293,-0.4427,-0.4964,-0.4696,-0.4763,-0.6708,-0.6575,-0.5902,-0.5902,-0.5501,-0.5098,-0.5098,-0.4696,-0.4293,-0.4293,-0.4275,-0.4166,-0.4135,-0.4036,-0.3987,-0.3889,-0.3875,-0.3875,-0.3875,-0.4367,-0.4674,-0.4674,-0.5104,-0.541,-0.541,-0.541,-0.541,-0.541,-0.7008,-0.7872,-0.7872,-0.7872,-0.7872,-0.7872,-0.7872,-0.7872,-0.7872,-0.7872,-0.7872,-0.7872,-0.7872,-0.7872,0.0,0.0,0.0,0.0,0.0,0.0,0.0,0.0,0.0,0.0,0.0,0.0,0.0,0.0,0.0,0.0,0.0,0.0,0.0,0.0,0.0,0.0,0.0,0.0,0.0,0.0,0.0,0.0,0.0,0.0,0.0,0.0,0.0,0.0,0.0,0.0,0.0,0.0,0.0,0.0,0.0,0.0,0.0,0.0,0.0,0.0,0.0,-0.0538,-0.1412,-0.1412,-0.2016,-0.2954,-0.2954,-0.2954,-0.2954,-0.2954,-0.2954,-0.2954,-0.2954,-0.2954,-0.2954,-0.2954,-0.2954,-0.2954,-0.2954,-0.2954,-0.3021,-0.349,-0.3289,-0.3289,-0.4698,-0.4698,-0.4293,-0.4293,-0.3959,-0.3624,-0.3624,-0.3289,-0.2954,-0.2954,-0.2943,-0.2912,-0.2846,-0.2822,-0.2791,-0.2658,-0.2647,-0.2647,-0.2647,-0.3017,-0.3447,-0.3875,-0.3875,-0.3875,-0.3875,-0.4306,-0.4551,-0.4551,-0.6639,-0.7686,-0.7255,-0.7686,-0.7872,-0.7872,-0.7872,-0.7872,-0.7872,-0.7872,-0.7872,-0.7872,-0.7872,-0.7872,0.0,0.0,0.0,0.0,0.0,0.0,0.0,0.0,0.0,0.0,0.0,0.0,0.0,0.0,0.0,0.0,0.0,0.0,0.0,0.0,0.0,0.0,0.0,0.0,0.0,0.0,0.0,0.0,0.0,0.0,0.0,0.0,0.0,0.0,0.0,0.0,0.0,0.0,0.0,0.0,0.0,0.0,0.0,0.0,0.0,0.0,0.0,0.0,0.0,0.0,0.0,0.0,0.0,0.0,0.0,0.0,0.0,0.0,0.0,0.0,0.0,0.0,0.0,0.0,0.0,0.0,-0.0269,-0.1681,-0.1076,-0.0336,-0.1748,-0.3156,-0.4226,-0.4226,-0.3156,-0.2084,-0.2084,-0.1009,0.0,0.0,0.0,0.0,0.0,0.0,0.0,0.0,0.0,0.0,0.0,-0.1172,-0.2465,-0.3753,-0.3875,-0.3875,-0.3875,-0.5105,-0.5845,-0.5845,-0.7133,-0.7317,-0.5968,-0.7194,-0.7872,-0.7872,-0.7872,-0.7872,-0.7872,-0.7872,-0.7872,-0.7872,-0.7872,-0.7872,0.0,0.0,0.0,0.0,0.0,0.0,0.0,0.0,0.0,0.0,0.0,0.0,0.0,0.0,0.0,0.0,0.0,0.0,0.0,0.0,0.0,0.0,0.0,0.0,0.0,0.0,0.0,0.0,0.0,0.0,0.0,0.0,0.0,0.0,0.0,0.0,0.0,0.0,0.0,0.0,0.0,0.0,0.0,0.0,0.0,0.0,0.0,0.0,0.0,0.0,0.0,0.0,0.0,0.0,0.0,0.0,0.0,0.0,0.0,0.0,0.0,0.0,0.0,0.0,0.0,0.0,-0.0067,-0.0538,-0.0336,-0.0067,-0.0538,-0.0941,-0.1277,-0.1277,-0.0941,-0.0606,-0.0606,-0.0269,0.0,0.0,0.0,0.0,0.0,0.0,0.0,0.0,0.0,0.0,0.0,-0.037,-0.074,-0.111,-0.1171,-0.1541,-0.2465,-0.2957,-0.3142,-0.3142,-0.523,-0.6766,-0.7255,-0.7686,-0.7872,-0.7872,-0.7872,-0.7872,-0.7872,-0.7872,-0.7872,-0.7872,-0.7872,-0.7872,0.0,0.0,0.0,0.0,0.0,0.0,0.0,0.0,0.0,0.0,0.0,0.0,0.0,0.0,0.0,0.0,0.0,0.0,0.0,0.0,0.0,0.0,0.0,0.0,0.0,0.0,0.0,0.0,0.0,0.0,0.0,0.0,0.0,0.0,0.0,0.0,0.0,0.0,0.0,0.0,0.0,0.0,0.0,0.0,0.0,0.0,0.0,0.0,0.0,0.0,0.0,0.0,0.0,0.0,0.0,0.0,0.0,0.0,0.0,0.0,0.0,0.0,0.0,0.0,0.0,0.0,0.0,0.0,0.0,0.0,0.0,0.0,0.0,0.0,0.0,0.0,0.0,0.0,0.0,0.0,0.0,0.0,0.0,0.0,0.0,0.0,0.0,0.0,0.0,0.0,0.0,0.0,0.0,-0.0309,-0.111,-0.1665,-0.1973,-0.1973,-0.394,-0.5473,-0.627,-0.7317,-0.7872,-0.7872,-0.7872,-0.7872,-0.7872,-0.7872,-0.7872,-0.7872,-0.7872,-0.7872,0.0,0.0,0.0,0.0,0.0,0.0,0.0,0.0,0.0,0.0,0.0,0.0,0.0,0.0,0.0,0.0,0.0,0.0,0.0,0.0,0.0,0.0,0.0,0.0,0.0,0.0,0.0,0.0,0.0,0.0,0.0,0.0,0.0,0.0,0.0,0.0,0.0,0.0,0.0,0.0,0.0067,0.0067,0.0,0.0,0.0,0.0,0.0,0.0,0.0,0.0,0.0,0.0,0.0,0.0,0.0,0.0,0.0,0.0,0.0,0.0,0.0,0.0,0.0,0.0,0.0,0.0,0.0,0.0,0.0,0.0,0.0,0.0,0.0,0.0,0.0,0.0,0.0,0.0,0.0,0.0,0.0,0.0,0.0,0.0,0.0,0.0,0.0,0.0,0.0,0.0,0.0,0.0,0.0,-0.0062,-0.0185,-0.1296,-0.1973,-0.1973,-0.3201,-0.3876,-0.3753,-0.6208,-0.7564,-0.7564,-0.7686,-0.7747,-0.7747,-0.7811,-0.7872,-0.7872,-0.7872,-0.7872,0.0,0.0,0.0,0.0,0.0,0.0,0.0,0.0,0.0,0.0,0.0,0.0,0.0,0.0,0.0,0.0,0.0,0.0,0.0,0.0,0.0,0.0,0.0,0.0,0.0,0.0,0.0,0.0,0.0,0.0,0.0,0.0,0.0,0.0,0.0,0.0,0.0,0.0269,0.0269,0.0,0.0606,0.0538,0.0,0.0,0.0,0.0,0.0,0.0,0.0,0.0,0.0,0.0,0.0,0.0,0.0,0.0,0.0,0.0,0.0,0.0,0.0,0.0,0.0,0.0,0.0,0.0,0.0,0.0,0.0,0.0,0.0,0.0,0.0,0.0,0.0,0.0,0.0,0.0,0.0,0.0,0.0,0.0,0.0,0.0,0.0,0.0,0.0,0.0,0.0,0.0,0.0,0.0,0.0,-0.0432,-0.148,-0.185,-0.1973,-0.1973,-0.3201,-0.3447,-0.2465,-0.3937,-0.4735,-0.4735,-0.5782,-0.6337,-0.6337,-0.738,-0.7872,-0.7872,-0.7872,-0.7872,0.0,0.0,0.0,0.0,0.0,0.0,0.0,0.0,0.0,0.0,0.0,0.0,0.0,0.0,0.0,0.0,0.0,0.0,0.0,0.0,0.0,0.0,0.0,0.0,0.0,0.0,0.0,0.0,0.0,0.0,0.0,0.0,0.0,0.0,0.0,0.0,0.0264,0.0396,0.0462,0.0462,0.0857,0.0792,0.0264,0.0268,0.0269,0.0269,0.0269,0.0269,0.0202,0.0067,0.0,0.0,0.0,0.0,0.0,0.0,0.0,0.0,0.0,0.0,0.0,0.0,0.0,0.0,0.0,0.0,0.0,0.0,0.0,0.0,0.0,0.0,0.0,0.0,0.0,0.0,0.0,0.0,0.0,0.0,0.0,0.0,0.0,0.0,0.0,0.0,0.0,0.0,0.0,0.0,0.0,0.0,0.0,-0.0309,-0.0987,-0.1049,-0.1049,-0.1049,-0.1664,-0.1726,-0.1048,-0.1664,-0.2648,-0.3875,-0.4614,-0.4921,-0.4921,-0.5657,-0.5963,-0.6025,-0.6641,-0.695,0.0,0.0,0.0,0.0,0.0,0.0,0.0,0.0,0.0,0.0,0.0,0.0,0.0,0.0,0.0,0.0,0.0,0.0,0.0,0.0,0.0,0.0,0.0,0.0,0.0,0.0,0.0,0.0,0.0,0.0,0.0,0.0,0.0,0.0,0.0,0.0129,0.0517,0.0581,0.071,0.1031,0.1031,0.0903,0.0646,0.0661,0.0602,0.0468,0.0468,0.0468,0.0468,0.0134,0.0,0.0,0.0,0.0,0.0,0.0,0.0,0.0,0.0,0.0,0.0,0.0,0.0,0.0,0.0,0.0,0.0,0.0,0.0,0.0,0.0,0.0,0.0,0.0,0.0,0.0,0.0,0.0,0.0,0.0,0.0,0.0,0.0,0.0,0.0,0.0,0.0,0.0,0.0,0.0,0.0,0.0,0.0,0.0,0.0,0.0,0.0,0.0,0.0,0.0,0.0,0.0,-0.1048,-0.32,-0.3446,-0.3569,-0.3569,-0.3815,-0.3875,-0.3937,-0.5044,-0.5536,0.0,0.0,0.0,0.0,0.0,0.0,0.0,0.0,0.0,0.0,0.0,0.0,0.0,0.0,0.0,0.0,0.0,0.0,0.0,0.0,0.0,0.0,0.0,0.0,0.0,0.0,0.0,0.0,0.0,0.0,0.0,0.0,0.0,0.0,0.0,0.0,0.0517,0.0774,0.0967,0.1031,0.1031,0.116,0.1355,0.136,0.1038,0.052,0.052,0.052,0.0455,0.0132,0.0,0.0,0.0,0.0,0.0,0.0,0.0,0.0,0.0,0.0,0.0,0.0,0.0,0.0,0.0,0.0,0.0,0.0,0.0,0.0,0.0,0.0,0.0,0.0,0.0,0.0,0.0,0.0,0.0,0.0,0.0,0.0,0.0,0.0,0.0,0.0,0.0,0.0,0.0,0.0,0.0,0.0,0.0,0.0,0.0,0.0,0.0,0.0,0.0,0.0,0.0,0.0,-0.0185,-0.0494,-0.1665,-0.2281,-0.2281,-0.3386,-0.3875,-0.3875,-0.406,-0.4183,0.0083,0.0,0.0,0.0,0.0,0.0,0.0,0.0,0.0,0.0,0.0,0.0,0.0,0.0,0.0,0.0,0.0,0.0,0.0,0.0,0.0,0.0,0.0,0.0,0.0,0.0,0.0,0.0,0.0,0.0,0.0,0.0,0.0,0.0,0.0189,0.0,0.0756,0.1133,0.1385,0.1574,0.1574,0.1511,0.1511,0.17,0.1525,0.1032,0.1032,0.0968,0.0775,0.039,0.0195,0.0,0.0,0.0,0.0,0.0,0.0,0.0,0.0,0.0,0.0,0.0,0.0,0.0,0.0,0.0,0.0,0.0,0.0,0.0,0.0,0.0,0.0,0.0,0.0,0.0,0.0,0.0,0.0,0.0,0.0,0.0,0.0,0.0,0.0,0.0,0.0,0.0,0.0,0.0,0.0,0.0,0.0,0.0,0.0,0.0,0.0,0.0,0.0,0.0,0.0,0.0,0.0,0.0,-0.0555,-0.0864,-0.0864,-0.1418,-0.1726,-0.1726,-0.2464,-0.2833,0.0,0.0,0.0,0.0,0.0,0.0,0.0,0.0,0.0,0.0,0.0,0.0,0.0,0.0,0.0,0.0,0.0,0.0,0.0,0.0,0.0,0.0,0.0,0.0,0.0,0.0,0.0,0.0,0.0,0.0,0.0,0.0,0.0,0.0,0.0309,0.0679,0.0988,0.142,0.1729,0.1977,0.1977,0.1853,0.1606,0.1915,0.1875,0.1594,0.1531,0.1339,0.1085,0.0705,0.0321,0.0129,0.0065,0.0,0.0,0.0,0.0,0.0,0.0,0.0,0.0,0.0,0.0,0.0,0.0,0.0,0.0,0.0,0.0,0.0,0.0,0.0,0.0,0.0,0.0,0.0,0.0,0.0,0.0,0.0,0.0,0.0,0.0,0.0,0.0,0.0,0.0,0.0,0.0,0.0,0.0,0.0,0.0,0.0,0.0,0.0,0.0,0.0,0.0,0.0,0.0,0.0,0.0,0.0,0.0,0.0,0.0,0.0,0.0,0.0,-0.1049,-0.148,0.0,0.0,0.0,0.0,0.0,0.0,0.0,0.0,0.0,0.0,0.0,0.0,0.0,0.0,0.0,0.0,0.0,0.0,0.0,0.0,0.0,0.0,0.0,0.0,0.0,0.0,0.0,0.0,0.0,0.0,0.0,0.0,0.0,0.0,0.0309,0.0679,0.0988,0.1667,0.1977,0.1977,0.1977,0.1977,0.1977,0.1977,0.1978,0.1981,0.161,0.1486,0.1425,0.0754,0.0506,0.0443,0.0129,0.0,0.0,0.0,0.0,0.0,0.0,0.0,0.0,0.0,0.0,0.0,0.0,0.0,0.0,0.0,0.0,0.0,0.0,0.0,0.0,0.0,0.0,0.0,0.0,0.0,0.0,0.0,0.0,0.0,0.0,0.0,0.0,0.0,0.0,0.0,0.0,0.0,0.0,0.0,0.0,0.0,0.0,0.0,0.0,0.0,0.0,0.0,0.0,0.0,0.0,0.0,0.0,0.0,0.0,0.0,0.0,0.0,-0.0062,-0.0123,0.0,0.0,0.0,0.0,0.0,0.0,0.0,0.0,0.0,0.0,0.0,0.0,0.0,0.0,0.0,0.0,0.0,0.0,0.0,0.0,0.0,0.0,0.0,0.0,0.0,0.0,0.0,0.0,0.0,0.0,0.0,0.0,0.0,0.0,0.0545,0.11,0.1606,0.1853,0.1977,0.1977,0.1977,0.1977,0.1977,0.1977,0.1977,0.1977,0.1853,0.1729,0.1483,0.0994,0.0685,0.0436,0.0127,0.0,0.0,0.0,0.0,0.0,0.0,0.0,0.0,0.0,0.0,0.0,0.0,0.0,0.0,0.0,0.0,0.0,0.0,0.0,0.0,0.0,0.0,0.0,0.0,0.0,0.0,0.0,0.0,0.0,0.0,0.0,0.0,0.0,0.0,0.0,0.0,0.0,0.0,0.0,0.0,0.0,0.0,0.0,0.0,0.0,0.0,0.0,0.0,0.0,0.0,0.0,0.0,0.0,0.0,0.0,0.0,0.0,0.0,0.0,0.2403,0.0,0.0,0.0,0.0,0.0,0.0,0.0,0.0,0.0,0.0,0.0,0.0,0.0,0.0,0.0,0.0,0.0,0.0,0.0,0.0,0.0,0.0,0.0,0.0,0.0,0.0,0.0,0.0,0.0,0.0,0.0,0.0119,0.0295,0.0714,0.1263,0.1946,0.1946,0.1946,0.1946,0.1946,0.1952,0.1961,0.1961,0.1967,0.1977,0.1977,0.1853,0.1667,0.1297,0.0988,0.0618,0.0312,0.0126,0.0,0.0,0.0,0.0,0.0,0.0,0.0,0.0,0.0,0.0,0.0,0.0,0.0,0.0,0.0,0.0,0.0,0.0,0.0,0.0,0.0,0.0,0.0,0.0,0.0,0.0,0.0,0.0,0.0,0.0,0.0,0.0,0.0,0.0,0.0,0.0,0.0,0.0,0.0,0.0,0.0,0.0,0.0,0.0,0.0,0.0,0.0,0.0,0.0,0.0,0.0,0.0,0.0,0.0,0.0,0.0,0.0,0.0,0.0,0.0,0.0,0.0,0.0,0.0,0.0,0.0,0.0,0.0,0.0,0.0,0.0,0.0,0.0,0.0,0.0,0.0,0.0,0.0,0.0,0.0,0.0,0.0,0.0,0.0,0.0,0.0,0.0,0.0,0.0,0.0,0.0294,0.0883,0.0883,0.1237,0.1885,0.1886,0.1886,0.1886,0.1886,0.1901,0.193,0.193,0.1947,0.1975,0.1975,0.1976,0.1977,0.1667,0.1297,0.0988,0.0617,0.0312,0.0,0.0,0.0,0.0,0.0,0.0,0.0,0.0,0.0,0.0,0.0,0.0,0.0,0.0,0.0,0.0,0.0,0.0,0.0,0.0,0.0,0.0,0.0,0.0,0.0,0.0,0.0,0.0,0.0,0.0,0.0,0.0,0.0,0.0,0.0,0.0,0.0,0.0,0.0,0.0,0.0,0.0,0.0,0.0,0.0,0.0,0.0,0.0,0.0,0.0,0.0,0.0,0.0,0.0,0.0,0.0,0.0,0.0,0.3903,0.0,0.0,0.0,0.0,0.0,0.0,0.0,0.0,0.0,0.0,0.0,0.0,0.0,0.0,0.0,0.0,0.0,0.0,0.0,0.0,0.0,0.0,0.0,0.0,0.0,0.0,0.0,0.0,0.0,0.0,0.0,0.0286,0.0868,0.0926,0.1223,0.1885,0.1886,0.1886,0.1886,0.1886,0.189,0.1898,0.1898,0.1915,0.1944,0.1944,0.1956,0.1977,0.1667,0.142,0.1297,0.0741,0.0433,0.0311,0.0062,0.0,0.0,0.0,0.0,0.0,0.0,0.0,0.0,0.0,0.0,0.0,0.0,0.0,0.0,0.0,0.0,0.0,0.0,0.0,0.0,0.0,0.0,0.0,0.0,0.0,0.0,0.0,0.0,0.0,0.0,0.0,0.0,0.0,0.0,0.0,0.0,0.0,0.0,0.0,0.0,0.0,0.0,0.0,0.0,0.0,0.0,0.0,0.0,0.0,0.0,0.0,0.0,0.0,0.0,0.0,0.0,0.4758,0.0,0.0,0.0,0.0,0.0,0.0,0.0,0.0,0.0,0.0,0.0,0.0,0.0,0.0,0.0,0.0,0.0,0.0,0.0,0.0,0.0,0.0,0.0,0.0,0.0,0.0,0.0,0.0,0.0,0.0,0.0,0.0282,0.0853,0.091,0.1201,0.1848,0.1848,0.1848,0.1848,0.1848,0.1855,0.1867,0.1867,0.1883,0.1913,0.1926,0.1941,0.1959,0.1787,0.1606,0.1482,0.105,0.0741,0.0494,0.0309,0.0124,0.0,0.0,0.0,0.0,0.0,0.0,0.0,0.0,0.0,0.0,0.0,0.0,0.0,0.0,0.0,0.0,0.0,0.0,0.0,0.0,0.0,0.0,0.0,0.0,0.0,0.0,0.0,0.0,0.0,0.0,0.0,0.0,0.0,0.0,0.0,0.0,0.0,0.0,0.0,0.0,0.0,0.0,0.0,0.0,0.0,0.0,0.0,0.0,0.0,0.0,0.0,0.0,0.0,0.0,0.0,0.0,0.0,0.0,0.0,0.0,0.0,0.0,0.2232,0.0,0.0,0.0,0.0,0.0,0.0,0.0,0.0,0.0,0.0,0.0,0.0,0.0,0.0,0.0,0.0,0.0,0.0,0.0,0.0,0.0,0.0,0.0,0.0,0.028,0.0841,0.0897,0.1177,0.1739,0.1795,0.1795,0.1795,0.1795,0.1809,0.1778,0.1778,0.1852,0.1882,0.1909,0.1865,0.1933,0.196,0.1788,0.1544,0.1544,0.1112,0.0617,0.0556,0.037,0.0062,0.0062,0.0,0.0,0.0,0.0,0.0,0.0,0.0,0.0,0.0,0.0,0.0,0.0,0.0,0.0,0.0,0.0,0.0,0.0,0.0,0.0,0.0,0.0,0.0,0.0,0.0,0.0,0.0,0.0,0.0,0.0,0.0,0.0,0.0,0.0,0.0,0.0,0.0,0.0,0.0,0.0,0.0,0.0,0.0,0.0,0.0,0.0,0.0,0.0,0.0,0.0,0.0,0.0,0.0,0.0,0.0,0.0,0.0,0.0,0.0,0.0,0.3915,0.0,0.0,0.0,0.0,0.0,0.0,0.0,0.0,0.0,0.0,0.0,0.0,0.0,0.0,0.0,0.0,0.0,0.0,0.0,0.0,0.0,0.0,0.0,0.0,0.0168,0.0505,0.0785,0.1065,0.1402,0.1683,0.1795,0.1795,0.1795,0.1798,0.1804,0.1804,0.1821,0.1791,0.1797,0.1826,0.1871,0.1937,0.1893,0.1853,0.1606,0.142,0.1297,0.0988,0.0679,0.0432,0.0432,0.0247,0.0,0.0,0.0,0.0,0.0,0.0,0.0,0.0,0.0,0.0,0.0,0.0,0.0,0.0,0.0,0.0,0.0,0.0,0.0,0.0,0.0,0.0,0.0,0.0,0.0,0.0,0.0,0.0,0.0,0.0,0.0,0.0,0.0,0.0,0.0,0.0,0.0,0.0,0.0,0.0,0.0,0.0,0.0,0.0,0.0,0.0,0.0,0.0,0.0,0.0,0.0,0.0,0.0,0.0,0.0,0.6436,0.0,0.0,0.0,0.0,0.0,0.0,0.0,0.0,0.0,0.0,0.0,0.0,0.0,0.0,0.0,0.0,0.0,0.0,0.0,0.0,0.0,0.0,0.0,0.0,0.0,0.0,0.0,0.0,0.0111,0.0388,0.0726,0.1009,0.129,0.1627,0.1795,0.1795,0.1795,0.1795,0.1795,0.1795,0.1804,0.1819,0.1776,0.1799,0.1829,0.1859,0.194,0.1955,0.1786,0.1667,0.1482,0.1297,0.105,0.0741,0.0556,0.037,0.0247,0.0062,0.0,0.0,0.0,0.0,0.0,0.0,0.0,0.0,0.0,0.0,0.0,0.0,0.0,0.0,0.0,0.0,0.0,0.0,0.0,0.0,0.0,0.0,0.0,0.0,0.0,0.0,0.0,0.0,0.0,0.0,0.0,0.0,0.0,0.0,0.0,0.0,0.0,0.0,0.0,0.0,0.0,0.0,0.0,0.0,0.0,0.0,0.0,0.0,0.0,0.0,0.0,0.0,0.0,0.0,0.0,0.6129,0.0,0.0,0.0,0.0,0.0,0.0,0.0,0.0,0.0,0.0,0.0,0.0,0.0,0.0,0.0,0.0,0.0,0.0,0.0,0.0,0.0,0.0,0.0,0.0,0.0,0.0,0.0109,0.0327,0.072,0.1004,0.1228,0.1624,0.1795,0.1795,0.1795,0.1795,0.1795,0.1795,0.1795,0.1796,0.1821,0.1778,0.1786,0.1834,0.1861,0.1934,0.1964,0.1853,0.1606,0.1606,0.1359,0.105,0.0803,0.0617,0.0432,0.0185,0.0062,0.0,0.0,0.0,0.0,0.0,0.0,0.0,0.0,0.0,0.0,0.0,0.0,0.0,0.0,0.0,0.0,0.0,0.0,0.0,0.0,0.0,0.0,0.0,0.0,0.0,0.0,0.0,0.0,0.0,0.0,0.0,0.0,0.0,0.0,0.0,0.0,0.0,0.0,0.0,0.0,0.0,0.0,0.0,0.0,0.0,0.0,0.0,0.0,0.0,0.0,0.0,0.0,0.0,0.7201,0.0,0.0,0.0,0.0,0.0,0.0,0.0,0.0,0.0,0.0,0.0,0.0,0.0,0.0,0.0,0.0,0.0,0.0,0.0,0.0,0.0,0.0,0.0,0.0,0.0,0.0,0.0,0.0,0.0053,0.0598,0.0932,0.0932,0.1503,0.1795,0.1795,0.1795,0.1795,0.1795,0.1795,0.1795,0.1795,0.1798,0.1815,0.1784,0.179,0.1824,0.1934,0.1964,0.1977,0.1915,0.1915,0.1729,0.142,0.142,0.0988,0.0494,0.0432,0.0247,0.0,0.0,0.0,0.0,0.0,0.0,0.0,0.0,0.0,0.0,0.0,0.0,0.0,0.0,0.0,0.0,0.0,0.0,0.0,0.0,0.0,0.0,0.0,0.0,0.0,0.0,0.0,0.0,0.0,0.0,0.0,0.0,0.0,0.0,0.0,0.0,0.0,0.0,0.0,0.0,0.0,0.0,0.0,0.0,0.0,0.0,0.0,0.0,0.0,0.0,0.0,0.0,0.0,0.0,0.0,0.0,0.0,0.6071,0.0,0.0,0.0,0.0,0.0,0.0,0.0,0.0,0.0,0.0,0.0,0.0,0.0,0.0,0.0,0.0,0.0,0.0,0.0,0.0,0.0,0.0,0.0,0.0,0.0,0.0588,0.0916,0.0916,0.148,0.1824,0.1824,0.1787,0.1795,0.1795,0.1795,0.1795,0.1795,0.1795,0.1802,0.1815,0.1776,0.1797,0.1825,0.1932,0.1961,0.1977,0.1977,0.1915,0.1791,0.1544,0.1297,0.105,0.0864,0.0556,0.0309,0.0309,0.0123,0.0,0.0,0.0,0.0,0.0,0.0,0.0,0.0,0.0,0.0,0.0,0.0,0.0,0.0,0.0,0.0,0.0,0.0,0.0,0.0,0.0,0.0,0.0,0.0,0.0,0.0,0.0,0.0,0.0,0.0,0.0,0.0,0.0,0.0,0.0,0.0,0.0,0.0,0.0,0.0,0.0,0.0,0.0,0.0,0.0,0.0,0.8052,0.0,0.0,0.0,0.0,0.0,0.0,0.0,0.0,0.0,0.0,0.0,0.0,0.0,0.0,0.0,0.0,0.0,0.0,0.0,0.0,0.0,0.0,0.0,0.0,0.0,0.0,0.0,0.0,0.0,0.0,0.0,0.0,0.0,0.0577,0.09,0.09,0.1453,0.1791,0.1792,0.1768,0.1782,0.1782,0.1791,0.1795,0.1795,0.1795,0.1795,0.1797,0.1819,0.1776,0.1788,0.1898,0.1937,0.1965,0.1973,0.1977,0.1977,0.1729,0.1606,0.142,0.1111,0.0864,0.0617,0.0556,0.0309,0.0123,0.0,0.0,0.0,0.0,0.0,0.0,0.0123,0.0123,0.0123,0.0123,0.0185,0.0247,0.0062,0.0123,0.0247,0.0123,0.0062,0.0,0.0,0.0,0.0,0.0,0.0062,0.0123,0.0,0.0062,0.0123,0.0,0.0,0.0,0.0,0.0059,0.0116,0.0115,0.0172,0.0227,0.0112,0.0112,0.0056,0.0,0.0,0.0,0.0,0.0,0.0,0.0,0.0,0.0,0.7331,0.0,0.0,0.0,0.0,0.6825,0.0,0.0,0.0,0.0,0.0,0.0,0.5534,0.0,0.0,0.0,0.0,0.0,0.0,0.0,0.0,0.0,0.0,0.0,0.0,0.0,0.0,0.0,0.0,0.0,0.0,0.0566,0.0884,0.0884,0.1427,0.1705,0.1706,0.1791,0.1806,0.1807,0.1782,0.1795,0.1795,0.1795,0.1795,0.1795,0.1796,0.1814,0.1786,0.1875,0.1906,0.1936,0.1966,0.1977,0.1977,0.1977,0.1791,0.142,0.1111,0.0988,0.0926,0.0617,0.0494,0.0432,0.0062,0.0,0.0,0.0,0.0,0.0062,0.0432,0.0494,0.0494,0.0494,0.0741,0.0803,0.0123,0.0494,0.0864,0.0556,0.0185,0.0,0.0,0.0,0.0,0.0,0.0309,0.037,0.0062,0.0309,0.037,0.0,0.0,0.0,0.0,0.0232,0.0403,0.0402,0.0679,0.0729,0.0393,0.0393,0.028,0.0,0.0,0.0,0.0,0.0,0.0,0.0,0.0,0.8462,0.776,0.0,0.0,0.0,0.0,0.0,0.0,0.0,0.0,0.0,0.0,0.0,0.0,0.0,0.0,0.0,0.0,0.0,0.0,0.0,0.0,0.0,0.0,0.0,0.0,0.0,0.0,0.0,0.0,0.0098,0.0248,0.0656,0.0918,0.1122,0.1505,0.1677,0.1677,0.178,0.1804,0.1805,0.1781,0.1795,0.1795,0.1795,0.1795,0.1795,0.1795,0.1801,0.1813,0.1844,0.1874,0.1907,0.1958,0.1977,0.1977,0.1977,0.1915,0.1791,0.1729,0.1482,0.1297,0.1173,0.0988,0.0803,0.0679,0.0679,0.0679,0.0679,0.0679,0.0679,0.0803,0.0803,0.0803,0.0803,0.0926,0.0926,0.0679,0.0864,0.0988,0.0864,0.0741,0.0679,0.0679,0.0494,0.0432,0.0617,0.0741,0.0803,0.0679,0.0734,0.0669,0.0365,0.0119,0.0058,0.0232,0.0342,0.0509,0.0735,0.0844,0.0841,0.0729,0.0729,0.0673,0.0617,0.0393,0.028,0.028,0.0056,0.0,0.8513,0.8594,0.0,0.0,0.7824,0.0,0.6993,0.0,0.0,0.0,0.0,0.0,0.0,0.0,0.0,0.0,0.0,0.0,0.0,0.0,0.0,0.0,0.0,0.0,0.0,0.0,0.1764,0.1197,0.0,0.0,0.0,0.0,0.0146,0.0393,0.065,0.0909,0.1212,0.1534,0.1646,0.1647,0.1748,0.1778,0.1789,0.1765,0.2007,0.2465,0.2465,0.2688,0.3023,0.2632,0.2688,0.3029,0.2625,0.2784,0.3127,0.2244,0.1967,0.1977,0.1977,0.1977,0.1977,0.1977,0.1853,0.1667,0.1544,0.1359,0.1173,0.105,0.0988,0.0988,0.0988,0.0988,0.105,0.1173,0.1173,0.1173,0.1173,0.1297,0.1297,0.105,0.1173,0.1297,0.1173,0.1173,0.1112,0.0988,0.0803,0.0741,0.0988,0.1111,0.1111,0.0988,0.1035,0.0901,0.0475,0.0349,0.0344,0.0399,0.0621,0.0841,0.1009,0.1177,0.1177,0.1065,0.1065,0.1009,0.0897,0.0673,0.0561,0.0561,0.0393,0.0336]}]]